     2              OBSERVATION DATA    G (GPS)             RINEX VERSION / TYPE
ASRINEXO V2.9.9 LH AIUB 01-FEB- 1 16:30                     PGM / RUN BY / DATE
BERN ASHTECH Z-12                                           COMMENT
BIT 2 OF LLI (+4) FLAGS DATA COLLECTED UNDER "AS" CONDITION COMMENT
USNB                                                        MARKER NAME
                                                            OBSERVER / AGENCY
? ASHTECH Z-XII3 1D15                                       REC # / TYPE / VERS
? CHOKE RING                                                ANT # / TYPE
  1112161.9300 -4842858.4300  3985504.8100                  APPROX POSITION XYZ
        0.0000        0.0000        0.0000                  ANTENNA: DELTA H/E/N
     1     1                                                WAVELENGTH FACT L1/2
     5    C1    L1    L2    P1    P2                        # / TYPES OF OBSERV
  2000     5     6     0     0   30.000000                  TIME OF FIRST OBS
                                                            END OF HEADER
 00  5  6  0  0 30.0000000  0  5 17 09 06 26 23
  20041631.687   -25425042.391 9 -19793924.86148  20041634.958    20041643.0904
  22241489.773   -11919263.636 8  -9252540.50646  22241488.800    22241499.1214
  23771897.918    -4773852.683 8  -3459248.70345  23771898.612    23771912.9954
  20850157.161   -19399778.094 9 -15101022.21747  20850157.723    20850164.8164
  21914512.629   -15580873.074 9 -12132270.13947  21914517.944    21914527.1924
 00  5  6  0  1  0.0000000  0  5 17 09 06 26 23
  20039497.584   -25436261.786 9 -19802667.23648  20039500.027    20039507.9954
  22224819.255   -12006838.341 8  -9320780.40146  22224824.620    22224834.5164
  23790355.785    -4676868.457 8  -3383676.76945  23790354.677    23790367.2124
  20862964.418   -19332461.962 9 -15048568.10947  20862968.007    20862974.9884
  21905611.134   -15627669.705 9 -12168735.03847  21905613.420    21905622.0104
 00  5  6  0  1 30.0000000  0  5 17 09 06 26 23
  20037466.212   -25446922.283 9 -19810974.14048  20037471.080    20037479.3744
  22208217.019   -12094078.712 8  -9388759.80646  22208223.261    22208232.5304
  23808816.416    -4579814.178 8  -3308050.26045  23808824.439    23808835.9324
  20875840.930   -19264793.704 9 -14995839.62447  20875844.656    20875851.9554
  21896725.579   -15674353.234 9 -12205111.80547  21896729.614    21896738.3674
 00  5  6  0  2  0.0000000  0  5 17 09 06 26 23
  20035545.666   -25457022.387 9 -19818844.38948  20035549.185    20035557.4064
  22191683.605   -12180981.616 8  -9456476.28746  22191685.720    22191694.5674
  23827301.863    -4482692.988 8  -3232371.59745  23827306.194    23827318.4804
  20888782.809   -19196775.683 9 -14942838.60247  20888787.647    20888795.4194
  21887866.991   -15720923.362 9 -12241400.19947  21887867.845    21887876.1764
 00  5  6  0  2 30.0000000  0  5 17 09 06 26 23
  20033731.014   -25466560.724 9 -19826276.88048  20033734.247    20033742.5114
  22175209.651   -12267543.870 8  -9523927.28546  22175213.299    22175222.9134
  23845799.960    -4385508.002 8  -3156643.20845  23845799.491    23845811.3564
  20901793.546   -19128410.464 9 -14889567.02047  20901797.233    20901805.2434
  21879025.232   -15767380.026 9 -12277600.19047  21879027.338    21879035.8194
 00  5  6  0  3  0.0000000  0  5 17 09 06 26 23
  20032022.751   -25475536.166 9 -19833270.73448  20032026.510    20032034.3594
  22158807.264   -12353762.216 8  -9591110.31946  22158806.987    22158815.8094
  23864304.153    -4288262.073 7  -3080867.36745  23864303.468    23864317.7464
  20914869.530   -19059700.830 9 -14836027.06747  20914871.999    20914880.1784
  21870204.256   -15813723.038 9 -12313711.61147  21870208.380    21870216.6644
 00  5  6  0  3 30.0000000  0  5 17 09 06 26 23
  20030421.279   -25483947.240 9 -19839824.84548  20030425.841    20030433.7034
  22142459.912   -12439633.618 8  -9658022.98946  22142464.548    22142475.3114
  23882810.010    -4190958.237 7  -3005046.42945  23882819.658    23882835.2904
  20928007.133   -18990648.986 9 -14782220.46747  20928012.103    20928020.0994
  21861408.724   -15859952.105 9 -12349734.23247  21861411.335    21861419.6934
 00  5  6  0  4  0.0000000  0  5 17 09 06 26 23
  20028929.308   -25491792.721 9 -19845938.24948  20028932.813    20028940.9724
  22126189.646   -12525154.807 8  -9724662.75947  22126191.836    22126201.6174
  23901344.047    -4093599.462 8  -2929182.63745  23901348.630    23901361.5294
  20941214.108   -18921257.706 9 -14728149.36747  20941217.411    20941225.2804
  21852630.714   -15906067.106 9 -12385667.99747  21852635.591    21852643.9004
 00  5  6  0  4 30.0000000  0  5 17 09 06 26 23
  20027545.029   -25499071.319 9 -19851609.89648  20027547.672    20027555.9844
  22109980.073   -12610322.451 8  -9791027.06147  22109984.687    22109994.8204
  23919883.238    -3996188.692 8  -2853278.34645  23919884.897    23919898.3064
  20954482.043   -18851529.414 9 -14673815.67347  20954486.690    20954494.1724
  21843878.061   -15952067.810 9 -12421512.69047  21843882.201    21843890.4764
 00  5  6  0  5  0.0000000  0  6 17 09 03 06 26 23
  20026267.052   -25505781.659 9 -19856838.73148  20026270.817    20026278.9034
  22093842.660   -12695133.404 8  -9857113.40747  22093845.457    22093855.7364
  24668289.709     -908670.27018   -700148.66155  24668296.261    24668307.0284
  23938428.575    -3898729.027 8  -2777335.98745  23938431.454    23938443.6734
  20967813.047   -18781466.683 9 -14619221.36447  20967818.602    20967826.7934
  21835147.217   -15997953.954 9 -12457268.10947  21835150.201    21835159.0264
 00  5  6  0  5 30.0000000  0  6 17 09 03 06 26 23
  20025099.185   -25511922.520 9 -19861623.81048  20025102.272    20025110.0254
  22077767.104   -12779584.773 8  -9922919.56447  22077774.870    22077784.4084
  24660659.252     -948780.970 7   -731403.73345  24660664.618    24660674.6254
  23956983.681    -3801223.487 8  -2701357.83845  23956986.251    23956999.2874
  20981210.648   -18711072.025 9 -14564368.40847  20981214.314    20981222.2244
  21826436.575   -16043725.218 9 -12492933.99847  21826440.142    21826448.7834
 00  5  6  0  6  0.0000000  0  6 17 09 03 06 26 23
  20024039.824   -25517493.006 9 -19865964.44648  20024042.097    20024050.3284
  22061774.707   -12863673.065 8  -9988442.81547  22061773.881    22061782.6904
  24653119.093     -988395.206 7   -762271.93545  24653124.820    24653136.6924
  23975551.349    -3703674.902 7  -2625346.16945  23975547.881    23975562.1234
  20994671.235   -18640347.984 9 -14509258.79147  20994672.755    20994680.6114
  21817749.443   -16089381.384 9 -12528510.22747  21817752.636    21817760.8234
 00  5  6  0  6 30.0000000  0  6 17 09 03 06 26 23
  20023087.261   -25522491.722 9 -19869859.55448  20023090.558    20023099.1694
  22045837.244   -12947395.182 8 -10053680.74047  22045841.648    22045851.3384
  24645674.346    -1027511.919 7   -792752.46345  24645679.990    24645693.0724
  23994112.078    -3606086.285 8  -2549303.32245  23994120.341    23994131.8744
  21008187.905   -18569297.108 9 -14453894.50147  21008192.720    21008200.9904
  21809084.591   -16134922.264 9 -12563996.60847  21809086.532    21809094.5384
 00  5  6  0  7  0.0000000  0  6 17 09 03 06 26 23
  20022244.293   -25526917.610 9 -19873308.31548  20022248.371    20022257.0284
  22029978.598   -13030748.115 8 -10118630.96447  22029980.148    22029989.4014
  24638329.134    -1066130.114 7   -822844.55945  24638332.088    24638344.8374
  24012693.461    -3508460.803 7  -2473231.72245  24012697.256    24012709.7514
  21021771.615   -18497921.793 9 -14398277.40347  21021775.137    21021783.4254
  21800439.728   -16180347.537 9 -12599392.91747  21800442.343    21800450.5044
 00  5  6  0  7 30.0000000  0  6 17 09 03 06 26 23
  20021513.146   -25530769.403 9 -19876309.72948  20021515.847    20021523.9074
  22014189.756   -13113728.640 8 -10183291.03647  22014189.880    22014198.8594
  24631076.655    -1104248.940 7   -852547.55245  24631079.732    24631091.2924
  24031273.686    -3410801.436 8  -2397133.74445  24031281.680    24031294.2244
  21035417.063   -18426224.602 9 -14342409.48947  21035418.674    21035427.0064
  21791816.380   -16225657.003 9 -12634698.99547  21791819.865    21791828.5744
 00  5  6  0  8  0.0000000  0  6 17 09 03 06 26 23
  20020889.455   -25534045.997 9 -19878862.92948  20020892.228    20020900.5554
  21998467.090   -13196333.626 8 -10247658.45947  21998470.666    21998479.5474
  24623920.925    -1141867.244 7   -881860.48045  24623919.827    24623932.3004
  24049870.226    -3313111.004 8  -2321011.48445  24049871.592    24049883.6004
  21049118.605   -18354208.239 9 -14286292.89447  21049123.316    21049131.3124
  21783217.864   -16270850.542 9 -12669914.71447  21783219.411    21783228.7414
 00  5  6  0  8 30.0000000  0  6 17 09 03 06 26 23
  20020373.865   -25536746.286 9 -19880967.06348  20020378.104    20020386.7244
  21982821.500   -13278559.975 8 -10311730.83247  21982822.971    21982832.6124
  24616857.323    -1178984.286 7   -910782.84145  24616857.598    24616868.8874
  24068466.468    -3215392.751 8  -2244867.56745  24068466.349    24068478.5814
  21062884.924   -18281874.997 9 -14229929.35547  21062888.002    21062895.8874
  21774639.885   -16315927.747 9 -12705039.79847  21774641.856    21774651.1864
 00  5  6  0  9  0.0000000  0  6 17 09 03 06 26 23
  20019970.161   -25538869.120 9 -19882621.23148  20019974.335    20019982.8814
  21967241.864   -13360404.449 8 -10375505.65447  21967248.329    21967257.3504
  24609885.908    -1215598.539 7   -939313.43945  24609889.950    24609901.7954
  24087065.685    -3117649.504 7  -2168704.21445  24087065.865    24087081.3704
  21076710.619   -18209227.505 9 -14173320.95647  21076712.635    21076720.0534
  21766081.518   -16360888.325 9 -12740074.01447  21766086.039    21766095.1824
 00  5  6  0  9 30.0000000  0  7 17 09 03 06 21 26 23
  20019677.113   -25540413.775 9 -19883824.85948  20019680.560    20019689.0704
  21951744.258   -13441864.044 8 -10438980.55847  21951746.589    21951756.7564
  24603014.873    -1251709.694 7   -967452.02545  24603018.624    24603029.8094
  24105655.371    -3019884.155 7  -2092523.68845  24105671.200    24105686.2164
  24960628.599     -188688.76917   -137105.13255  24960632.392    24960647.2874
  21090593.381   -18136268.233 9 -14116469.60847  21090595.655    21090603.9024
  21757547.593   -16405732.223 9 -12775017.29947  21757552.252    21757561.3154
 00  5  6  0 10  0.0000000  0  7 17 09 03 06 21 26 23
  20019493.887   -25541379.014 9 -19884576.98648  20019496.775    20019505.2804
  21936313.198   -13522935.630 8 -10502153.13947  21936318.939    21936328.4654
  24596239.416    -1287317.009 8   -995197.97845  24596242.526    24596253.2984
  24124260.429    -2922099.720 7  -2016328.23245  24124277.693    24124292.7474
  24945903.279     -266052.211 7   -197388.25245  24945913.626    24945925.0804
  21104534.531   -18062999.787 9 -14059377.36147  21104538.401    21104546.6784
  21749038.647   -16450458.747 9 -12809869.08847  21749041.088    21749050.0384
 00  5  6  0 10 30.0000000  0  7 17 09 03 06 21 26 23
  20019418.107   -25541763.781 9 -19884876.80648  20019423.242    20019432.1904
  21920958.541   -13603616.170 8 -10565020.99047  21920965.473    21920975.3344
  24589559.804    -1322419.400 7  -1022550.48345  24589562.973    24589572.9634
  24142898.525    -2824299.058 7  -1940120.11945  24142890.371    24142904.4034
  24931180.974     -343446.219 7   -257695.22845  24931184.777    24931197.6774
  21118535.035   -17989424.528 9 -14002046.02147  21118539.137    21118547.4554
  21740547.467   -16495067.894 9 -12844629.42447  21740551.991    21740561.4204
 00  5  6  0 11  0.0000000  0  7 17 09 03 06 21 26 23
  20019457.312   -25541567.012 9 -19884723.47848  20019460.663    20019469.4404
  21905685.162   -13683902.425 8 -10627581.61747  21905687.995    21905697.4024
  24582976.939    -1357015.898 7  -1049508.77345  24582979.044    24582990.0854
  24161499.167    -2726485.095 8  -1863901.69245  24161503.600    24161518.1494
  24916454.564     -420870.821 7   -318026.01745  24916451.520    24916464.9954
  21132596.210   -17915545.071 9 -13944477.64147  21132598.435    21132606.0194
  21732080.454   -16539559.337 9 -12879298.05647  21732085.557    21732095.4244
 00  5  6  0 11 30.0000000  0  7 17 09 03 06 21 26 23
  20019605.763   -25540787.766 9 -19884116.24948  20019609.417    20019617.7304
  21890482.251   -13763791.376 8 -10689832.65447  21890486.030    21890495.1644
  24576486.542    -1391105.515 8  -1076072.11745  24576493.044    24576502.3804
  24180107.849    -2628660.868 7  -1787675.23445  24180119.519    24180133.1304
  24901707.904     -498326.191 7   -378380.74245  24901713.131    24901724.8434
  21146711.060   -17841364.008 9 -13886674.25247  21146714.828    21146722.6434
  21723639.061   -16583932.695 9 -12913874.65347  21723641.541    21723651.2404
 00  5  6  0 12  0.0000000  0  7 17 09 03 06 21 26 23
  20019864.961   -25539425.083 9 -19883054.39648  20019868.614    20019876.9634
  21875355.045   -13843279.853 8 -10751771.63647  21875359.689    21875368.8784
  24570095.528    -1424687.573 7  -1102239.90045  24570102.414    24570112.6614
  24198728.677    -2530829.053 8  -1711442.84445  24198735.652    24198751.0554
  24886970.814     -575812.078 7   -438759.32045  24886969.486    24886980.3894
  21160882.674   -17766883.636 9 -13828637.63047  21160887.678    21160895.5804
  21715219.142   -16628187.740 9 -12948359.06747  21715219.771    21715229.2714
 00  5  6  0 12 30.0000000  0  7 17 09 03 06 21 26 23
  20020234.665   -25537478.238 9 -19881537.35148  20020238.977    20020247.4754
  21860310.630   -13922364.930 8 -10813396.27747  21860310.117    21860319.5804
  24563806.004    -1457761.357 7  -1128011.62645  24563808.129    24563817.4004
  24217355.055    -2432992.704 8  -1635206.92345  24217353.833    24217368.3824
  24872212.722     -653328.085 7   -499161.32745  24872216.622    24872229.7244
  21175115.735   -17692106.610 9 -13770369.83947  21175117.370    21175125.1364
  21706816.657   -16672324.279 9 -12982751.14747  21706821.153    21706830.3124
 00  5  6  0 13  0.0000000  0  7 17 09 03 06 21 26 23
  20020717.657   -25534946.277 9 -19879564.37848  20020720.627    20020729.4584
  21845335.432   -14001043.666 8 -10874704.29447  21845338.316    21845347.3944
  24557604.150    -1490326.208 7  -1153386.79045  24557610.534    24557621.1674
  24235960.729    -2335154.845 7  -1558969.83545  24235972.697    24235985.5154
  24857455.924     -730874.461 7   -559586.98545  24857459.834    24857471.7324
  21189399.318   -17617035.488 9 -13711872.89847  21189403.283    21189410.7854
  21698443.233   -16716341.811 9 -13017050.49947  21698445.540    21698454.4044
 00  5  6  0 13 30.0000000  0  7 17 09 03 06 21 26 23
  20021312.103   -25531828.193 9 -19877134.70048  20021314.053    20021322.7134
  21830442.000   -14079313.184 8 -10935693.44747  21830444.213    21830453.2944
  24551503.039    -1522381.370 7  -1178364.79945  24551509.225    24551521.5644
  24254585.167    -2237318.144 7  -1482733.62645  24254589.382    24254603.2504
  24842700.779     -808451.255 7   -620036.38445  24842697.897    24842710.0154
  21203737.987   -17541672.666 9 -13653148.66847  21203743.215    21203751.6714
  21690088.994   -16760240.082 9 -13051256.94347  21690091.486    21690100.4284
 00  5  6  0 14  0.0000000  0  7 17 09 03 06 21 26 23
  20022015.543   -25528123.082 9 -19874247.61748  20022019.384    20022027.9074
  21815625.238   -14157170.111 8 -10996361.08947  21815627.944    21815636.9484
  24545504.875    -1553925.844 7  -1202944.84345  24545507.306    24545519.5504
  24273212.333    -2139485.732 7  -1406500.77445  24273207.183    24273222.5334
  24827910.280     -886057.922 7   -680509.05745  24827928.191    24827941.1634
  21218136.045   -17466020.686 9 -13594199.11247  21218140.109    21218148.0274
  21681757.982   -16804018.705 9 -13085370.14347  21681760.674    21681770.0124
 00  5  6  0 14 30.0000000  0  7 17 09 03 06 21 26 23
  20022832.549   -25523830.316 9 -19870902.63748  20022836.306    20022844.6004
  21800887.005   -14234611.318 8 -11056704.80647  21800891.154    21800900.4064
  24539598.684    -1584959.019 7  -1227126.50145  24539602.469    24539614.1474
  24291826.825    -2041660.643 7  -1330273.62345  24291822.977    24291837.0214
  24813159.212     -963694.981 7   -741005.34145  24813155.748    24813166.3914
  21232585.451   -17390081.903 9 -13535026.05947  21232590.332    21232599.0754
  21673450.195   -16847677.468 9 -13119389.94647  21673453.232    21673462.2674
 00  5  6  0 15  0.0000000  0  8 17 09 03 06 21 26 23 29
  20023762.494   -25518948.946 9 -19867098.99448  20023765.177    20023773.4094
  21786230.807   -14311633.927 8 -11116722.33147  21786233.975    21786243.7254
  24533789.710    -1615480.519 7  -1250909.45045  24533794.869    24533806.0944
  24310432.793    -1943845.450 7  -1254054.16445  24310436.243    24310449.0654
  24798373.325    -1041362.184 7   -801525.18145  24798376.365    24798387.8124
  21247094.280   -17313858.859 9 -13475631.50147  21247095.554    21247103.9484
  21665167.382   -16891215.736 9 -13153315.81847  21665167.868    21665176.7234
  24528351.180    -1680162.67217  -1285932.11055  24528356.037    24528370.9004
 00  5  6  0 15 30.0000000  0  8 17 09 03 06 21 26 23 29
  20024802.812   -25513478.089 9 -19862836.00548  20024806.175    20024814.7504
  21771651.388   -14388235.373 8 -11176411.66947  21771657.046    21771666.9264
  24528077.305    -1645489.337 7  -1274292.94845  24528082.881    24528093.9724
  24329051.478    -1846043.150 8  -1177844.72945  24329048.100    24329061.5284
  24783594.517    -1119058.950 7   -862068.10545  24783593.136    24783602.8074
  21261649.548   -17237354.091 9 -13416017.42047  21261654.250    21261662.0594
  21656902.325   -16934633.391 9 -13187147.69247  21656905.681    21656914.4534
  24510428.594    -1774406.725 7  -1359368.83645  24510424.491    24510435.9394
 00  5  6  0 16  0.0000000  0  8 17 09 03 06 21 26 23 29
  20025955.858   -25507416.972 9 -19858113.08348  20025959.752    20025968.1324
  21757157.695   -14464412.128 8 -11235770.10247  21757161.446    21757170.7894
  24522474.505    -1674984.809 7  -1297276.43145  24522471.194    24522481.2124
  24347667.801    -1748256.636 7  -1101647.61845  24347655.888    24347671.4534
  24768788.620    -1196785.446 7   -922634.12045  24768800.513    24768810.3464
  21276261.359   -17160570.099 9 -13356185.77647  21276266.038    21276273.4934
  21648663.120   -16977930.094 9 -13220885.37047  21648666.987    21648675.4984
  24492513.292    -1868503.451 7  -1432690.75645  24492518.107    24492530.2624
 00  5  6  0 16 30.0000000  0  8 17 09 03 06 21 26 23 29
  20027220.463   -25500764.674 9 -19852929.49148  20027225.426    20027233.7234
  21742741.070   -14540161.640 8 -11294795.60147  21742746.726    21742755.5904
  24516960.573    -1703966.759 7  -1319859.72645  24516956.572    24516968.1454
  24366266.981    -1650488.817 7  -1025465.09845  24366260.373    24366275.2464
  24754005.147    -1274541.707 7   -983223.35845  24754004.775    24754016.6604
  21290927.001   -17083509.278 9 -13296138.42147  21290930.076    21290937.4604
  21640447.564   -17021105.444 9 -13254528.47247  21640450.773    21640459.3144
  24474634.121    -1962451.839 7  -1505897.09045  24474640.109    24474652.7494
 00  5  6  0 17  0.0000000  0  8 17 09 03 06 21 26 23 29
  20028600.936   -25493520.667 9 -19847284.81348  20028604.204    20028612.1914
  21728410.021   -14615480.754 8 -11353485.75047  21728413.623    21728423.1414
  24511528.879    -1732434.029 7  -1342042.02245  24511538.310    24511549.6854
  24384861.664    -1552742.525 7   -949299.37645  24384859.793    24384875.6334
  24739199.102    -1352327.590 7  -1043835.65745  24739200.248    24739213.5414
  21305643.091   -17006174.128 9 -13235877.29247  21305646.314    21305654.2594
  21632252.264   -17064159.139 9 -13288076.76247  21632257.364    21632266.2904
  24456796.307    -2056250.535 7  -1578986.75845  24456788.305    24456802.5444
 00  5  6  0 17 30.0000000  0  8 17 09 03 06 21 26 23 29
  20030092.438   -25485684.337 9 -19841178.58448  20030095.319    20030103.4134
  21714161.978   -14690366.533 9 -11411838.21447  21714163.381    21714172.9904
  24506216.450    -1760386.275 7  -1363822.94745  24506217.282    24506230.3264
  24403452.634    -1455020.460 7   -873152.53345  24403456.428    24403472.3944
  24724391.588    -1430142.663 7  -1104470.69145  24724392.504    24724405.5534
  21320413.294   -16928567.078 9 -13175404.28447  21320414.382    21320422.5894
  21624085.950   -17107090.698 9 -13321529.88247  21624087.981    21624096.8854
  24438967.504    -2149898.605 7  -1651959.05545  24438969.029    24438980.3964
 00  5  6  0 18  0.0000000  0  8 17 09 03 06 21 26 23 29
  20031697.141   -25477254.870 9 -19834610.16248  20031699.124    20031707.4994
  21699996.176   -14764815.973 9 -11469850.67747  21699996.495    21700005.9484
  24500988.717    -1787822.930 7  -1385202.16845  24500997.855    24501009.6034
  24422044.701    -1357325.640 7   -797026.92145  24422049.496    24422062.7494
  24709577.405    -1507987.382 7  -1165128.85045  24709580.518    24709591.1564
  21335229.008   -16850690.752 9 -13114721.45847  21335233.859    21335241.8634
  21615938.928   -17149899.657 9 -13354887.51047  21615941.925    21615950.6904
  24421164.651    -2243394.966 7  -1724813.17145  24421175.621    24421189.5894
 00  5  6  0 18 30.0000000  0  8 17 09 03 06 21 26 23 29
  20033411.257   -25468231.544 9 -19827578.99048  20033416.103    20033424.7424
  21685910.300   -14838826.126 9 -11527520.83147  21685912.793    21685921.9304
  24495871.607    -1814743.637 7  -1406179.31745  24495875.758    24495887.0224
  24440624.769    -1259660.921 7   -720924.71145  24440632.768    24440648.6114
  24694758.911    -1585861.437 7  -1225809.80945  24694761.901    24694772.5274
  21350100.286   -16772547.501 9 -13053830.65947  21350103.940    21350112.7074
  21607817.389   -17192585.712 9 -13388149.35947  21607818.647    21607827.4524
  24403414.405    -2336738.680 7  -1797548.32045  24403414.271    24403425.0154
 00  5  6  0 19  0.0000000  0  8 17 09 03 06 21 26 23 29
  20035243.294   -25458613.757 9 -19820084.60448  20035246.645    20035254.9344
  21671909.708   -14912394.105 9 -11584846.44247  21671912.678    21671922.0354
  24490856.726    -1841147.731 7  -1426753.86645  24490851.788    24490863.1414
  24459198.847    -1162029.221 7   -644848.25045  24459212.892    24459225.8614
  24679933.477    -1663764.258 7  -1286513.28545  24679936.544    24679948.7554
  21365020.334   -16694139.795 9 -12992733.79647  21365025.187    21365032.9654
  21599718.769   -17235148.461 9 -13421315.11447  21599719.807    21599728.2494
  24385680.348    -2429928.383 7  -1870163.45745  24385681.011    24385693.1904
 00  5  6  0 19 30.0000000  0  8 17 09 03 06 21 26 23 29
  20037186.290   -25448400.947 9 -19812126.56848  20037190.012    20037198.3564
  21657992.574   -14985517.249 9 -11641825.43647  21657997.937    21658006.8304
  24485913.230    -1867034.794 7  -1446925.55745  24485923.933    24485935.6214
  24477766.428    -1064433.310 7   -568799.60445  24477784.016    24477799.1764
  24665099.830    -1741695.748 7  -1347239.03845  24665106.817    24665119.3614
  21379991.149   -16615470.117 9 -12931432.79347  21379994.781    21380002.9974
  21591642.064   -17277587.604 9 -13454384.57347  21591643.326    21591651.8704
  24367972.097    -2522963.083 7  -1942657.81945  24367978.017    24367989.2574
 00  5  6  0 20  0.0000000  0  8 17 09 03 06 21 26 23 29
  20039245.050   -25437592.580 9 -19803704.46248  20039246.933    20039255.2844
  21644166.081   -15058192.559 9 -11698455.46947  21644168.338    21644178.1034
  24481093.987    -1892404.368 7  -1466694.07045  24481095.456    24481107.8084
  24496330.663     -966875.706 7   -492780.86645  24496349.085    24496364.6164
  24650266.837    -1819656.215 7  -1407987.41845  24650270.770    24650284.4134
  21395010.497   -16536540.792 8 -12869929.46847  21395014.107    21395022.8254
  21583587.280   -17319902.653 9 -13487357.35047  21583590.871    21583599.6674
  24350296.343    -2615842.052 7  -2015030.81245  24350302.706    24350314.4144
 00  5  6  0 20 30.0000000  0  8 17 09 03 06 21 26 23 29
  20041413.363   -25426188.321 9 -19794818.02748  20041416.979    20041425.4454
  21630424.198   -15130417.213 9 -11754734.35147  21630424.556    21630433.6774
  24476358.217    -1917256.257 7  -1486059.13745  24476367.414    24476379.4434
  24514904.258     -869359.520 7   -416794.40545  24514904.817    24514918.1044
  24635424.122    -1897645.522 7  -1468758.24045  24635431.250    24635443.3284
  21410079.083   -16457354.294 9 -12808225.74247  21410083.052    21410091.9274
  21575558.124   -17362093.177 9 -13520233.06847  21575562.411    21575571.4234
  24332655.089    -2708563.850 8  -2087281.44545  24332659.080    24332669.6254
 00  5  6  0 21  0.0000000  0  7 17 09 03 21 26 23 29
  20043698.118   -25414187.475 9 -19785466.72248  20043700.259    20043709.0044
  21616763.725   -15202188.146 9 -11810659.68547  21616766.488    21616775.7294
  24471731.407    -1941589.771 7  -1505020.27345  24471737.058    24471749.9424
  24620582.411    -1975663.174 7  -1529551.15045  24620581.750    24620593.7194
  21425194.113   -16377913.049 8 -12746323.51247  21425199.817    21425209.0614
  21567556.791   -17404158.738 9 -13553011.39547  21567557.726    21567566.6574
  24315043.242    -2801127.727 7  -2159408.88145  24315044.129    24315054.4074
 00  5  6  0 21 30.0000000  0  7 17 09 03 21 26 23 29
  20046094.662   -25401589.617 9 -19775650.20548  20046097.640    20046106.2794
  21603192.444   -15273502.398 9 -11866229.15647  21603196.213    21603204.8834
  24467205.972    -1965404.160 7  -1523576.93145  24467206.589    24467216.9614
  24605728.819    -2053709.025 7  -1590366.03645  24605733.750    24605745.5564
  21440360.179   -16298219.633 8 -12684224.77247  21440365.423    21440373.7744
  21559573.287   -17446098.962 9 -13585692.09547  21559576.416    21559585.7394
  24297457.863    -2893532.431 7  -2231412.37045  24297458.732    24297470.3514
 00  5  6  0 22  0.0000000  0  7 17 09 03 21 26 23 29
  20048605.088   -25388394.240 9 -19765368.08848  20048608.979    20048617.3764
  21589710.268   -15344357.159 9 -11921440.58947  21589712.995    21589722.0084
  24462765.195    -1988699.428 7  -1541729.07845  24462772.224    24462784.8874
  24590877.783    -2131783.135 7  -1651202.91745  24590876.315    24590887.0664
  21455574.954   -16218276.270 9 -12621931.25647  21455578.494    21455586.3194
  21551615.887   -17487913.470 9 -13618274.83947  21551619.448    21551628.4694
  24279903.365    -2985777.081 7  -2303291.10145  24279905.033    24279916.1864
 00  5  6  0 22 30.0000000  0  7 17 09 03 21 26 23 29
  20051231.052   -25374600.788 9 -19754619.93848  20051233.649    20051242.1044
  21576310.045   -15414749.853 9 -11976291.94947  21576317.513    21576326.3844
  24458437.590    -2011475.053 7  -1559476.24645  24458438.001    24458451.1084
  24576000.868    -2209885.158 7  -1712061.62145  24576012.317    24576025.8804
  21470835.766   -16138085.481 9 -12559444.96347  21470838.590    21470846.3514
  21543684.488   -17529601.773 9 -13650759.19347  21543686.739    21543695.5344
  24262383.237    -3077860.579 7  -2375044.25645  24262381.363    24262393.2874
 00  5  6  0 23  0.0000000  0  7 17 09 03 21 26 23 29
  20053969.581   -25360208.788 9 -19743405.38748  20053972.357    20053980.7564
  21563006.768   -15484677.708 9 -12030781.10747  21563010.674    21563019.7264
  24454206.701    -2033730.812 7  -1576818.36345  24454205.538    24454214.0834
  24561138.622    -2288014.733 7  -1772941.74245  24561145.058    24561156.7544
  21486136.875   -16057649.741 9 -12496767.79247  21486144.928    21486152.6454
  21535775.113   -17571163.420 9 -13683144.84247  21535777.762    21535786.4984
  24244876.713    -3169782.116 7  -2446671.17845  24244887.714    24244902.1294
 00  5  6  0 23 30.0000000  0  7 17 09 03 21 26 23 29
  20056820.862   -25345217.818 9 -19731724.11048  20056825.334    20056833.3114
  21549789.348   -15554137.967 8 -12084905.90547  21549792.763    21549801.9604
  24450065.733    -2055466.336 7  -1593755.11745  24450066.929    24450080.5134
  24546265.300    -2366172.030 7  -1833843.53145  24546274.039    24546285.4994
  21501492.784   -15976971.380 9 -12433901.56647  21501497.107    21501505.4214
  21527893.042   -17612597.972 9 -13715431.48747  21527893.306    21527901.3264
  24227431.999    -3261540.237 7  -2518170.83145  24227427.414    24227440.1014
 00  5  6  0 24  0.0000000  0  7 17 09 03 21 26 23 29
  20059788.362   -25329627.665 9 -19719575.93548  20059791.938    20059799.8004
  21536663.575   -15623127.740 9 -12138664.08847  21536664.488    21536673.0944
  24446021.027    -2076681.119 7  -1610286.08245  24446030.664    24446041.0364
  24531390.446    -2444356.558 7  -1894766.46445  24531393.898    24531406.8314
  21516890.697   -15896052.826 8 -12370848.16247  21516895.310    21516903.3344
  21520030.116   -17653904.861 9 -13747618.63547  21520032.407    21520040.9344
  24209983.429    -3353134.347 7  -2589542.63145  24209997.876    24210010.6844
 00  5  6  0 24 30.0000000  0  7 17 09 03 21 26 23 29
  20062869.106   -25313437.782 9 -19706960.45248  20062872.660    20062880.9264
  21523619.736   -15691644.219 9 -12192053.48647  21523626.171    21523634.9124
  24442098.052    -2097375.146 7  -1626411.30245  24442092.986    24442104.7484
  24516506.071    -2522568.376 7  -1955710.66745  24516508.396    24516522.4624
  21532337.725   -15814896.512 8 -12307609.51547  21532338.660    21532346.6554
  21512192.128   -17695083.622 9 -13779705.92847  21512196.319    21512204.6814
  24192603.356    -3444563.308 7  -2660785.78945  24192599.967    24192611.5784
 00  5  6  0 25  0.0000000  0  7 17 09 03 21 26 23 29
  20066065.449   -25296647.970 9 -19693877.49248  20066067.734    20066076.0554
  21510676.095   -15759684.546 9 -12245071.84047  21510678.312    21510687.1414
  24438243.744    -2117548.294 7  -1642130.60245  24438254.775    24438264.2194
  24501616.891    -2600806.954 7  -2016675.73145  24501621.505    24501633.2124
  21547828.040   -15733504.758 9 -12244187.38747  21547827.660    21547834.8464
  21504381.909   -17736133.652 9 -13811692.91947  21504384.792    21504392.6844
  24175233.219    -3535826.238 7  -2731899.57745  24175232.521    24175244.5034
 00  5  6  0 25 30.0000000  0  7 17 09 03 21 26 23 29
  20069372.527   -25279257.756 9 -19680326.68148  20069376.799    20069385.4444
  21497818.720   -15827246.338 8 -12297717.33247  21497820.993    21497830.5414
  24434511.541    -2137200.066 7  -1657443.67645  24434514.855    24434525.0564
  24486723.740    -2679072.422 7  -2077661.73545  24486729.229    24486740.4784
  21563359.145   -15651879.998 9 -12180583.71247  21563361.035    21563368.2534
  21496594.863   -17777054.563 9 -13843579.27447  21496597.774    21496605.6324
  24157890.978    -3626921.940 7  -2802883.02845  24157896.726    24157909.2724
 00  5  6  0 26  0.0000000  0  7 17 09 03 21 26 23 29
  20072797.741   -25261266.913 9 -19666307.85248  20072800.570    20072808.8734
  21485054.237   -15894326.744 9 -12349987.70147  21485056.651    21485065.5554
  24430871.353    -2156330.648 7  -1672350.63345  24430873.108    24430885.3664
  24471822.977    -2757364.632 7  -2138668.57845  24471832.357    24471842.3384
  21578934.176   -15570024.637 9 -12116800.34547  21578937.753    21578945.0674
  21488833.907   -17817845.962 9 -13875364.71447  21488835.878    21488843.5224
  24140591.479    -3717849.705 7  -2873735.60945  24140594.296    24140606.5074
 00  5  6  0 26 30.0000000  0  7 17 09 03 21 26 23 29
  20076336.236   -25242675.210 9 -19651820.81548  20076338.345    20076346.8414
  21472378.990   -15960922.951 9 -12401880.77147  21472383.815    21472392.5104
  24427327.531    -2174939.905 7  -1686851.38645  24427332.682    24427344.1044
  24456925.097    -2835683.166 7  -2199695.94845  24456926.969    24456938.7604
  21594553.043   -15487940.957 9 -12052839.07547  21594557.102    21594564.8784
  21481096.431   -17858507.608 9 -13907049.07947  21481097.986    21481106.1664
  24123319.875    -3808608.467 8  -2944456.54145  24123324.249    24123335.2694
 00  5  6  0 27  0.0000000  0  7 17 09 03 21 26 23 29
  20079987.227   -25223482.233 9 -19636865.24848  20079990.089    20079999.1944
  21459800.155   -16027032.343 9 -12453394.51447  21459803.304    21459812.4584
  24423888.215    -2193027.296 7  -1700945.43745  24423890.426    24423902.2484
  24442018.001    -2914027.946 7  -2260743.78045  24442018.702    24442028.8794
  21610216.236   -15405631.341 8 -11988701.73147  21610219.599    21610228.2644
  21473382.306   -17899038.839 9 -13938631.83247  21473385.421    21473392.9994
  24106085.355    -3899197.232 8  -3015044.99245  24106085.633    24106096.7774
 00  5  6  0 27 30.0000000  0  7 17 09 03 21 26 23 29
  20083751.754   -25203687.751 9 -19621440.98348  20083757.228    20083765.6744
  21447314.513   -16092652.210 9 -12504526.80247  21447316.363    21447325.3584
  24420547.302    -2210592.475 7  -1714632.60045  24420549.730    24420560.3184
  24427095.750    -2992398.351 7  -2321811.62245  24427105.705    24427115.5484
  21625922.000   -15323098.257 8 -11924390.25447  21625925.214    21625933.3834
  21465693.246   -17939439.020 9 -13970112.46447  21465697.168    21465705.2874
  24088870.927    -3989615.124 7  -3085500.31745  24088879.129    24088890.9944
 00  5  6  0 28  0.0000000  0  7 17 09 03 21 26 23 29
  20087635.379   -25183291.644 9 -19605547.92048  20087638.870    20087647.1524
  21434922.408   -16157779.945 9 -12555275.61847  21434923.187    21434931.7734
  24417304.940    -2227635.526 7  -1727912.92145  24417304.069    24417316.1464
  24412180.807    -3070794.411 7  -2382899.42845  24412188.216    24412196.5474
  21641670.686   -15240343.953 9 -11859906.41447  21641673.142    21641681.5924
  21458033.093   -17979707.790 9 -14001490.70547  21458034.556    21458042.7734
  24071705.522    -4079861.013 7  -3155821.58445  24071704.723    24071717.8784
 00  5  6  0 28 30.0000000  0  7 17 09 03 21 26 23 29
  20091631.341   -25162293.650 9 -19589185.85448  20091634.695    20091642.9594
  21422620.454   -16222412.713 9 -12605638.73947  21422623.406    21422632.0734
  24414157.372    -2244156.655 7  -1740786.55045  24414158.619    24414174.2184
  24397266.500    -3149216.047 7  -2444007.14345  24397263.985    24397274.2834
  21657459.757   -15157370.804 8 -11795252.04247  21657462.460    21657470.4794
  21450393.378   -18019844.557 9 -14032766.12847  21450397.171    21450405.2064
  24054560.556    -4169934.068 7  -3226008.21745  24054564.791    24054577.1614
 00  5  6  0 29  0.0000000  0  7 17 09 03 21 26 23 29
  20095742.498   -25140693.839 9 -19572354.83648  20095745.028    20095752.8674
  21410414.931   -16286548.253 9 -12655614.43447  21410418.553    21410427.3384
  24411113.212    -2260155.902 7  -1753253.48945  24411117.848    24411128.0894
  24382335.140    -3227662.963 7  -2505134.51045  24382335.065    24382347.7704
  21673289.174   -15074181.229 9 -11730429.02247  21673293.387    21673301.1294
  21442781.200   -18059848.840 9 -14063938.29847  21442784.507    21442792.2204
  24037453.748    -4259833.522 7  -3296059.56645  24037458.618    24037470.6044
 00  5  6  0 29 30.0000000  0  7 17 09 03 21 26 23 29
  20099966.424   -25118492.060 9 -19555054.74748  20099969.752    20099977.7754
  21398306.587   -16350184.090 9 -12705200.72747  21398309.709    21398318.2124
  24408169.853    -2275633.048 7  -1765313.60245  24408171.857    24408183.3784
  24367395.414    -3306134.622 7  -2566281.21745  24367401.453    24367414.1464
  21689157.803   -14990777.567 8 -11665439.18547  21689163.987    21689172.5524
  21435195.533   -18099719.870 9 -14095006.62147  21435197.162    21435205.5594
  24020382.063    -4349558.190 8  -3365974.69845  24020382.990    24020395.4504
 00  5  6  0 30  0.0000000  0  7 17 09 03 21 26 23 29
  20104306.477   -25095688.245 9 -19537285.54348  20104309.193    20104317.2124
  21386293.482   -16413317.159 9 -12754395.25347  21386295.500    21386304.4844
  24405320.026    -2290587.618 7  -1776966.50845  24405326.254    24405336.1614
  24352463.931    -3384630.688 7  -2627446.95045  24352465.715    24352478.0684
  21705076.077   -14907161.867 8 -11600284.13047  21705074.992    21705083.9664
  21427630.541   -18139457.194 9 -14125970.76947  21427635.101    21427643.6334
  24003338.476    -4439107.250 7  -3435753.01245  24003342.390    24003353.5804
 00  5  6  0 30 30.0000000  0  7 17 09 03 21 26 23 29
  20108759.693   -25072282.286 9 -19519047.13748  20108763.370    20108771.1934
  21374377.573   -16475944.896 9 -12803196.01547  21374377.432    21374386.0054
  24402572.678    -2305019.814 7  -1788212.34945  24402579.989    24402590.4164
  24337515.359    -3463151.175 7  -2688631.70845  24337524.460    24337534.8554
  21721025.374   -14823336.745 8 -11534965.90147  21721026.786    21721035.4354
  21420096.603   -18179060.396 9 -14156830.40047  21420099.256    21420107.1294
  23986328.024    -4528479.662 7  -3505393.67145  23986336.046    23986347.2094
 00  5  6  0 31  0.0000000  0  7 17 09 03 21 26 23 29
  20113327.958   -25048274.269 9 -19500339.59648  20113331.762    20113339.8504
  21362553.271   -16538064.924 9 -12851601.17047  21362556.344    21362565.1504
  24399931.003    -2318930.035 7  -1799051.46045  24399930.718    24399944.6664
  24322573.066    -3541695.612 7  -2749835.10745  24322575.816    24322588.8124
  21737012.988   -14739304.433 8 -11469486.23947  21737017.150    21737025.9474
  21412586.540   -18218528.847 9 -14187585.03447  21412588.123    21412596.3254
  23969361.711    -4617674.818 8  -3574896.20845  23969363.508    23969372.8584
 00  5  6  0 31 30.0000000  0  7 17 09 03 21 26 23 29
  20118012.173   -25023664.154 9 -19481162.88948  20118014.791    20118023.0544
  21350828.385   -16599674.696 9 -12899608.72547  21350832.405    21350841.4564
  24397383.680    -2332318.244 7  -1809483.83245  24397384.213    24397396.6684
  24307617.508    -3620264.229 7  -2811057.32645  24307625.728    24307637.4494
  21753044.330   -14655067.262 8 -11403846.94347  21753047.651    21753055.0724
  21405100.065   -18257861.913 9 -14218234.09647  21405102.940    21405111.2584
  23952426.628    -4706691.450 8  -3644259.68445  23952424.662    23952433.4314
 00  5  6  0 32  0.0000000  0  7 17 09 03 21 26 23 29
  20122808.915   -24998451.851 9 -19461516.95148  20122812.439    20122820.8964
  21339198.826   -16660771.738 9 -12947216.74747  21339206.315    21339215.1774
  24394932.412    -2345184.488 7  -1819509.47945  24394936.423    24394947.9084
  24292671.009    -3698856.253 7  -2872297.79845  24292670.896    24292683.0914
  21769114.006   -14570627.488 8 -11338049.75547  21769116.133    21769124.0654
  21397640.158   -18297059.091 9 -14248777.25547  21397643.953    21397652.3574
  23935514.678    -4795528.909 8  -3713483.52245  23935519.046    23935530.6164
 00  5  6  0 32 30.0000000  0  7 17 09 03 21 26 23 29
  20127720.537   -24972637.269 9 -19441401.69848  20127725.214    20127733.1034
  21327674.859   -16721353.668 9 -12994423.37347  21327677.903    21327686.1524
  24392586.472    -2357528.922 7  -1829128.47845  24392587.500    24392599.0544
  24277706.589    -3777471.441 7  -2933556.34945  24277710.945    24277722.1834
  21785217.323   -14485987.427 8 -11272096.45547  21785222.523    21785230.8244
  21390206.391   -18336119.883 9 -14279214.23247  21390211.293    21390219.7154
  23918639.949    -4884186.283 7  -3782567.03445  23918646.584    23918657.4604
 00  5  6  0 33  0.0000000  0  7 17 09 03 21 26 23 29
  20132750.223   -24946220.692 9 -19420817.35648  20132752.133    20132760.2624
  21316246.576   -16781417.902 9 -13041226.62047  21316248.006    21316256.3434
  24390330.202    -2369351.513 7  -1838340.87645  24390337.697    24390349.9154
  24262736.527    -3856109.428 7  -2994832.69545  24262744.827    24262758.7704
  21801363.701   -14401149.385 8 -11205988.91247  21801366.706    21801374.8864
  21382801.591   -18375043.503 9 -14309544.31847  21382804.500    21382812.7884
  23901809.615    -4972662.836 8  -3851509.60445  23901809.259    23901821.2124
 00  5  6  0 33 30.0000000  0  7 17 09 03 21 26 23 29
  20137890.589   -24919202.188 9 -19399763.98148  20137893.524    20137901.7044
  21304914.333   -16840961.931 9 -13087624.50647  21304916.929    21304925.7884
  24388181.051    -2380652.363 7  -1847146.72445  24388187.134    24388198.3594
  24247775.845    -3934770.189 7  -3056126.72545  24247777.636    24247789.1394
  21817546.410   -14316115.480 8 -11139728.76847  21817547.860    21817556.7164
  21375422.153   -18413829.613 9 -14339767.25047  21375424.048    21375431.6414
  23885001.793    -5060957.293 7  -3920310.33045  23885006.816    23885018.8944
 00  5  6  0 34  0.0000000  0  7 17 09 03 21 26 23 29
  20143145.791   -24891581.973 9 -19378241.74248  20143149.317    20143157.5684
  21293685.810   -16899983.359 9 -13133615.16747  21293685.702    21293694.0634
  24386127.845    -2391431.797 7  -1855546.23945  24386135.202    24386145.6704
  24232793.908    -4013453.339 7  -3117438.15845  24232802.810    24232816.6004
  21833761.696   -14230888.241 8 -11073317.95647  21833765.880    21833774.9384
  21368066.907   -18452477.690 9 -14369882.61247  21368068.818    21368077.1454
  23868231.729    -5149069.116 8  -3988968.74245  23868240.771    23868250.3484
 00  5  6  0 34 30.0000000  0  7 17 09 03 21 26 23 29
  20148516.607   -24863360.191 9 -19356250.75248  20148520.016    20148528.0204
  21282549.451   -16958479.886 9 -13179196.80547  21282553.516    21282562.8584
  24384187.097    -2401689.646 7  -1863539.36245  24384183.470    24384195.2904
  24217815.325    -4092158.223 8  -3178766.60145  24217827.634    24217839.2044
  21850015.406   -14145469.841 8 -11006758.19647  21850020.366    21850029.1874
  21360738.015   -18490987.054 9 -14399889.91447  21360741.128    21360748.8944
  23851509.414    -5236997.332 8  -4057484.11445  23851509.009    23851519.1764
 00  5  6  0 35  0.0000000  0  7 17 09 03 21 26 23 29
  20154001.904   -24834536.892 9 -19333791.05248  20154004.806    20154012.8954
  21271519.003   -17016448.867 9 -13224367.37347  21271522.593    21271531.6914
  24382326.781    -2411426.379 7  -1871126.42345  24382331.030    24382342.8244
  24202843.086    -4170884.802 8  -3240111.92645  24202847.116    24202858.8644
  21866310.814   -14059862.450 8 -10940051.15547  21866311.420    21866319.8714
  21353437.922   -18529357.166 9 -14429788.76547  21353439.761    21353447.6504
  23834810.518    -5324741.065 8  -4125855.65745  23834811.305    23834821.7094
 00  5  6  0 35 30.0000000  0  7 17 09 03 21 26 23 29
  20159600.593   -24805111.984 9 -19310862.55948  20159604.107    20159612.3624
  21260591.090   -17073887.832 9 -13269124.94447  21260592.743    21260601.1264
  24380574.317    -2420642.226 7  -1878307.59145  24380575.290    24380588.4114
  24187859.566    -4249632.737 8  -3301473.91945  24187861.556    24187871.5944
  21882631.652   -13974068.414 8 -10873198.68847  21882637.221    21882645.8904
  21346159.498   -18567587.070 9 -14459578.35047  21346164.309    21346172.7714
  23818145.343    -5412299.405 8  -4194082.79245  23818149.228    23818160.4314
 00  5  6  0 36  0.0000000  0  7 17 09 03 21 26 23 29
  20165313.911   -24775085.720 9 -19287465.47948  20165317.718    20165326.0394
  21249760.709   -17130794.568 9 -13313467.79347  21249763.235    21249771.8464
  24378921.839    -2429337.394 7  -1885083.01945  24378920.506    24378933.5004
  24172867.170    -4328401.360 8  -3362852.02445  24172872.102    24172882.7544
  21898996.046   -13888089.914 8 -10806202.47847  21898998.741    21899006.8524
  21338911.915   -18605676.072 9 -14489258.07447  21338915.912    21338924.4624
  23801520.795    -5499671.941 8  -4262165.10845  23801522.992    23801532.9514
 00  5  6  0 36 30.0000000  0  7 17 09 03 21 26 23 29
  20171141.127   -24744458.534 9 -19263600.15248  20171145.764    20171154.4064
  21239029.934   -17187166.964 9 -13357394.28247  21239035.878    21239044.2264
  24377361.120    -2437512.235 7  -1891453.01745  24377366.409    24377378.6634
  24157873.122    -4407191.139 8  -3424246.56645  24157879.122    24157890.0224
  21915388.223   -13801929.274 8 -10739064.35247  21915394.004    21915402.2424
  21331692.414   -18643623.836 9 -14518827.68347  21331695.252    21331703.4734
  23784929.973    -5586857.359 8  -4330101.65945  23784932.593    23784941.3924
 00  5  6  0 37  0.0000000  0  7 17 09 03 21 26 23 29
  20177085.957   -24713230.745 9 -19239266.81548  20177088.484    20177096.5734
  21228406.118   -17243002.413 9 -13400902.36847  21228411.068    21228419.5214
  24375903.402    -2445166.874 7  -1897417.64845  24375909.197    24375920.3544
  24142878.741    -4486001.122 8  -3485656.89345  24142881.761    24142892.4304
  21931819.279   -13715588.666 8 -10671785.98947  21931824.359    21931832.9174
  21324494.990   -18681429.808 9 -14548286.86447  21324500.797    21324508.6654
  23768374.946    -5673854.910 8  -4397891.81245  23768376.975    23768386.7984
 00  5  6  0 37 30.0000000  0  7 17 09 03 21 26 23 29
  20183143.543   -24681402.582 9 -19214465.65148  20183145.131    20183153.3214
  21217884.118   -17298298.684 9 -13443990.30647  21217888.551    21217897.1854
  24374546.365    -2452301.749 7  -1902977.26845  24374551.555    24374564.4444
  24127874.736    -4564830.969 8  -3547082.68945  24127880.479    24127890.7724
  21948285.299   -13629070.276 8 -10604369.09547  21948288.420    21948296.4924
  21317331.055   -18719093.092 9 -14577634.75847  21317333.569    21317341.4974
  23751845.968    -5760664.038 8  -4465535.12645  23751856.400    23751868.2414
 00  5  6  0 38  0.0000000  0  7 17 09 03 21 26 23 29
  20189313.272   -24648974.198 9 -19189196.79148  20189316.145    20189324.2244
  21207466.520   -17353053.470 9 -13486656.31447  21207469.129    21207477.5614
  24373291.028    -2458917.152 7  -1908132.07545  24373293.439    24373304.8504
  24112873.682    -4643680.346 8  -3608523.74445  24112876.101    24112885.9334
  21964783.228   -13542376.431 8 -10536815.50047  21964786.046    21964794.0844
  21310189.956   -18756613.311 9 -14606871.21247  21310194.026    21310201.9334
  23735370.150    -5847283.652 8  -4533030.77045  23735374.212    23735385.0514
 00  5  6  0 38 30.0000000  0  7 17 09 03 21 26 23 29
  20195598.916   -24615946.168 9 -19163460.67448  20195601.209    20195609.2834
  21197152.297   -17407264.516 9 -13528898.62347  21197153.100    21197161.4974
  24372132.479    -2465013.652 7  -1912882.58045  24372133.665    24372144.3524
  24097867.446    -4722548.997 8  -3669979.76845  24097867.126    24097877.7484
  21981310.257   -13455509.104 8 -10469126.69647  21981316.783    21981324.5604
  21303078.550   -18793989.853 9 -14635995.74647  21303081.543    21303089.2624
  23718930.516    -5933713.109 8  -4600378.25945  23718927.177    23718937.6294
 00  5  6  0 39  0.0000000  0  7 17 09 03 21 26 23 29
  20201997.164   -24582318.953 9 -19137257.65448  20202000.049    20202008.1774
  21186935.237   -17460929.575 9 -13570715.48947  21186940.723    21186949.1824
  24371068.862    -2470591.563 7  -1917229.01245  24371071.632    24371083.1144
  24082851.015    -4801436.685 8  -3731450.63245  24082855.861    24082867.8834
  21997877.562   -13368470.695 8 -10401304.58547  21997879.472    21997887.5794
  21295992.161   -18831221.953 9 -14665007.70947  21295996.239    21296004.0174
  23702506.860    -6019951.612 8  -4667576.95845  23702515.852    23702525.8894
 00  5  6  0 39 30.0000000  0  7 17 09 03 21 26 23 29
  20208509.890   -24548092.721 9 -19110587.87048  20208513.545    20208521.2244
  21176830.977   -17514046.494 9 -13612105.23347  21176832.983    21176841.0224
  24370104.263    -2475651.228 7  -1921171.55845  24370107.848    24370120.4824
  24067834.246    -4880342.499 8  -3792935.63045  24067840.468    24067851.0854
  22014464.940   -13281263.345 8 -10333350.87246  22014473.605    22014482.3504
  21288936.068   -18868309.233 9 -14693906.91647  21288938.860    21288946.6634
  23686134.430    -6105998.145 8  -4734626.04845  23686141.918    23686151.8914
 00  5  6  0 40  0.0000000  0  7 17 09 03 21 26 23 29
  20215137.726   -24513267.902 9 -19083451.64648  20215140.223    20215148.1774
  21166823.894   -17566613.012 9 -13653066.09747  21166829.860    21166837.6024
  24369235.503    -2480193.101 7  -1924710.64045  24369243.492    24369256.7624
  24052818.004    -4959266.132 8  -3854434.49645  24052822.178    24052832.7914
  22031101.084   -13193889.159 8 -10265267.15046  22031100.256    22031109.1984
  21281903.946   -18905250.696 9 -14722692.50947  21281908.885    21281917.0614
  23669805.689    -6191852.219 8  -4801525.18645  23669804.423    23669814.2304
 00  5  6  0 40 30.0000000  0  7 17 09 03 21 26 23 29
  20221874.643   -24477844.941 9 -19055849.34748  20221880.752    20221889.0874
  21156926.854   -17618626.785 9 -13693596.25147  21156931.288    21156939.9564
  24368472.191    -2484217.535 7  -1927846.57745  24368477.972    24368489.5884
  24037799.168    -5038207.443 8  -3915947.13846  24037800.907    24037811.5004
  22047754.090   -13106350.308 8 -10197055.09246  22047758.451    22047766.7074
  21274903.719   -18942045.641 9 -14751363.90347  21274906.867    21274915.1484
  23653498.130    -6277513.078 8  -4868273.75245  23653502.759    23653514.5464
 00  5  6  0 41  0.0000000  0  7 17 09 03 21 26 23 29
  20228732.151   -24441824.291 9 -19027781.32048  20228735.407    20228743.6104
  21147133.638   -17670085.813 9 -13733694.13847  21147139.333    21147148.3774
  24367807.573    -2487725.138 7  -1930579.77845  24367811.754    24367822.7804
  24022769.903    -5117165.865 8  -3977473.13445  24022775.057    24022784.7374
  22064441.258   -13018649.037 8 -10128716.44546  22064448.095    22064456.3904
  21267928.042   -18978693.411 9 -14779920.60747  21267932.581    21267941.4414
  23637238.753    -6362979.779 8  -4934871.03145  23637239.793    23637250.6374
 00  5  6  0 41 30.0000000  0  7 17 09 03 21 26 23 29
  20235700.486   -24405206.378 9 -18999247.89648  20235703.699    20235711.9974
  21137448.108   -17720988.049 9 -13773358.15447  21137453.127    21137461.4054
  24367241.616    -2490716.277 7  -1932910.49045  24367241.934    24367253.3594
  24007741.456    -5196141.337 8  -4039012.41645  24007746.057    24007757.6544
  22081161.610   -12930787.445 8 -10060252.89847  22081168.165    22081176.2534
  21260982.295   -19015193.279 9 -14808362.04247  21260986.996    21260995.7094
  23621015.747    -6448251.523 8  -5001316.44145  23621013.435    23621023.9154
 00  5  6  0 42  0.0000000  0  7 17 09 03 21 26 23 29
  20242781.705   -24367991.775 9 -18970249.51548  20242785.573    20242793.8074
  21127868.062   -17771331.174 9 -13812586.50247  21127872.598    21127881.3294
  24366765.248    -2493191.546 7  -1934839.25245  24366770.729    24366782.4404
  23992714.621    -5275132.934 8  -4100564.24445  23992714.432    23992724.4124
  22097913.581   -12842767.735 8  -9991666.16247  22097917.592    22097926.0274
  21254068.498   -19051544.530 9 -14836687.67347  21254070.151    21254078.4144
  23604816.504    -6533327.576 8  -5067609.32845  23604823.127    23604834.0364
 00  5  6  0 42 30.0000000  0  7 17 09 03 21 26 23 29
  20249979.139   -24330180.948 9 -18940786.54748  20249980.877    20249988.7834
  21118394.765   -17821113.199 9 -13851377.62547  21118399.254    21118408.2314
  24366390.580    -2495151.607 7  -1936366.55345  24366397.792    24366408.1584
  23977674.683    -5354140.474 8  -4162128.47645  23977679.207    23977690.5914
  22114692.491   -12754592.056 8  -9922957.89247  22114697.137    22114705.2914
  21247176.497   -19087746.536 9 -14864896.99547  21247180.995    21247189.0774
  23588662.683    -6618207.264 7  -5133749.21545  23588670.335    23588681.2844
 00  5  6  0 43  0.0000000  0  7 17 09 03 21 26 23 29
  20257285.780   -24291774.648 9 -18910859.56748  20257289.233    20257297.0944
  21109032.401   -17870332.135 9 -13889729.98047  21109033.534    21109041.9334
  24366113.563    -2496597.004 7  -1937492.86345  24366121.610    24366133.9324
  23962644.686    -5433163.663 8  -4223704.91345  23962642.111    23962652.9734
  22131501.611   -12666262.376 8  -9854129.58446  22131505.384    22131513.8924
  21240317.627   -19123798.624 9 -14892989.46147  21240320.348    21240328.7104
  23572555.022    -6702889.922 8  -5199735.55045  23572557.274    23572566.8624
 00  5  6  0 43 30.0000000  0  7 17 09 03 21 26 23 29
  20264706.151   -24252773.472 9 -18880469.05848  20264710.730    20264718.8494
  21099770.868   -17918985.929 9 -13927641.96247  21099775.176    21099783.4734
  24365947.972    -2497528.292 7  -1938218.56645  24365944.451    24365955.8664
  23947602.800    -5512201.618 8  -4285292.89446  23947601.701    23947612.6874
  22148339.101   -12577780.957 8  -9785183.09146  22148342.437    22148351.6174
  21233486.651   -19159699.885 9 -14920964.40747  21233488.597    21233496.3074
  23556476.368    -6787374.810 8  -5265567.79545  23556479.573    23556489.7444
 00  5  6  0 44  0.0000000  0  7 17 09 03 21 26 23 29
  20272241.682   -24213178.040 9 -18849615.49148  20272245.667    20272253.7404
  21090622.466   -17967072.519 9 -13965111.98747  21090624.067    21090632.9374
  24365861.848    -2497946.039 7  -1938544.07145  24365865.940    24365875.9494
  23932556.579    -5591254.480 8  -4346892.45745  23932559.156    23932570.0954
  22165200.803   -12489149.865 8  -9716119.92946  22165208.905    22165217.0224
  21226681.245   -19195449.900 9 -14948821.50747  21226685.633    21226693.4664
  23540434.634    -6871661.047 8  -5331245.20845  23540440.814    23540451.1994
 00  5  6  0 44 30.0000000  0  7 17 09 03 21 26 23 29
  20279888.453   -24172989.100 9 -18818299.45148  20279893.144    20279901.3104
  21081575.681   -18014589.773 9 -14002138.35447  21081582.032    21081590.4814
  24365886.344    -2497850.826 7  -1938469.89045  24365882.965    24365895.6964
  23917512.028    -5670321.717 8  -4408503.21345  23917513.067    23917522.5094
  22182097.041   -12400371.148 8  -9646941.75746  22182102.609    22182111.6934
  21219908.646   -19231047.751 9 -14976560.08047  21219911.787    21219919.5954
  23524435.744    -6955747.963 8  -5396767.31945  23524438.618    23524449.2464
 00  5  6  0 45  0.0000000  0  7 17 09 03 21 26 23 29
  20287649.754   -24132207.130 9 -18786521.30848  20287653.554    20287661.6934
  21072646.063   -18061535.707 9 -14038719.54447  21072648.617    21072656.9634
  24365994.849    -2497243.286 7  -1937996.48145  24366001.875    24366010.4164
  23902460.251    -5749402.540 8  -4470124.56146  23902462.987    23902474.9144
  22199018.105   -12311446.941 8  -9577650.19346  22199024.411    22199033.3844
  21213160.925   -19266492.754 9 -15004179.52547  21213166.521    21213174.5434
  23508472.603    -7039634.866 8  -5462133.64445  23508475.812    23508484.7354
 00  5  6  0 45 30.0000000  0  7 17 09 03 21 26 23 29
  20295523.777   -24090832.722 9 -18754281.53248  20295526.773    20295534.9564
  21063820.233   -18107908.352 9 -14074854.01247  21063823.852    21063832.4174
  24366202.553    -2496124.212 7  -1937124.49745  24366211.986    24366222.5154
  23887407.976    -5828496.569 8  -4531756.21346  23887413.392    23887422.0804
  22215972.500   -12222379.391 8  -9508246.93346  22215973.355    22215982.2924
  21206448.690   -19301784.278 9 -15031679.34747  21206450.708    21206459.1634
  23492549.006    -7123321.077 8  -5527343.54645  23492550.545    23492559.9514
 00  5  6  0 46  0.0000000  0  7 17 09 03 21 26 23 29
  20303508.890   -24048866.697 9 -18721580.75648  20303512.754    20303521.0534
  21055102.940   -18153705.931 9 -14110540.38347  21055108.869    21055117.3014
  24366513.980    -2494494.093 7  -1935854.29145  24366523.004    24366532.4284
  23872353.123    -5907603.113 8  -4593397.60346  23872359.669    23872369.0124
  22232944.822   -12133170.489 8  -9438733.55246  22232949.310    22232957.9014
  21199760.541   -19336921.438 9 -15059058.87548  21199764.532    21199772.7464
  23476657.262    -7206805.905 8  -5592396.52945  23476663.511    23476673.0784
 00  5  6  0 46 30.0000000  0  7 17 09 03 21 26 23 29
  20311609.017   -24006309.728 9 -18688419.49948  20311611.018    20311619.7614
  21046501.852   -18198926.503 9 -14145777.12647  21046504.001    21046511.9554
  24366932.901    -2492353.952 7  -1934186.65745  24366931.426    24366941.3514
  23857300.626    -5986721.900 8  -4655048.54445  23857303.151    23857313.3114
  22249950.162   -12043822.392 8  -9369111.70846  22249951.497    22249961.1984
  21193105.228   -19371903.488 9 -15086317.56248  21193107.894    21193115.6834
  23460812.457    -7290088.657 8  -5657292.04845  23460815.367    23460826.0714
 00  5  6  0 47  0.0000000  0  7 17 09 03 21 26 23 29
  20319818.130   -23963162.670 9 -18654798.41948  20319821.530    20319830.4444
  21038007.274   -18243568.253 9 -14180562.85847  21038009.146    21038016.7474
  24367431.418    -2489704.458 7  -1932122.16045  24367434.366    24367446.1724
  23842246.400    -6065852.522 8  -4716708.70345  23842244.623    23842254.7874
  22266976.737   -11954337.076 8  -9299382.95146  22266980.241    22266988.7624
  21186476.832   -19406729.641 9 -15113454.80748  21186480.424    21186488.9094
  23445002.438    -7373168.552 8  -5722029.47945  23445005.690    23445016.4234
 00  5  6  0 47 30.0000000  0  7 17 09 03 21 26 23 29
  20328142.104   -23919426.315 9 -18620718.16348  20328144.830    20328152.7514
  21029623.068   -18287629.124 9 -14214895.95347  21029624.485    21029632.0484
  24368037.181    -2486546.304 7  -1929661.22845  24368037.873    24368047.4124
  23827177.377    -6144994.287 8  -4778377.55145  23827184.402    23827194.1044
  22284028.294   -11864716.637 8  -9229548.87246  22284034.568    22284043.7514
  21179880.161   -19441399.238 9 -15140470.11248  21179883.150    21179891.4664
  23429231.411    -7456045.126 8  -5786608.49046  23429234.906    23429245.6024
 00  5  6  0 48  0.0000000  0  7 17 09 03 21 26 23 29
  20336575.368   -23875101.505 9 -18586179.36548  20336579.329    20336587.6414
  21021345.387   -18331107.285 9 -14248774.97747  21021351.194    21021358.6294
  24368731.554    -2482880.360 7  -1926804.62945  24368731.735    24368742.3344
  23812122.750    -6224147.123 8  -4840055.03445  23812122.994    23812130.5834
  22301111.162   -11774963.102 8  -9159611.08646  22301114.171    22301122.5994
  21173313.105   -19475911.222 9 -15167362.52348  21173316.322    21173323.3904
  23413502.037    -7538717.473 8  -5851028.34646  23413503.649    23413513.4684
 00  5  6  0 48 30.0000000  0  7 17 09 03 21 26 23 29
  20345121.557   -23830189.023 9 -18551182.64848  20345125.953    20345134.5254
  21013184.409   -18374001.210 9 -14282198.75347  21013188.579    21013196.4594
  24369521.510    -2478707.441 7  -1923553.01845  24369528.124    24369538.8904
  23797056.337    -6303310.062 8  -4901740.37745  23797057.068    23797068.4144
  22318214.937   -11685078.418 8  -9089571.12546  22318219.141    22318226.5294
  21166774.798   -19510265.065 9 -15194131.72748  21166778.442    21166786.3724
  23397807.432    -7621185.021 8  -5915288.63446  23397809.867    23397820.0024
 00  5  6  0 49  0.0000000  0  7 17 09 03 21 26 23 29
  20353780.920   -23784689.803 9 -18515728.71848  20353784.100    20353792.4984
  21005135.211   -18416308.808 9 -14315165.67047  21005137.511    21005145.3034
  24370414.719    -2474028.485 7  -1919907.11545  24370418.867    24370428.1664
  23781990.712    -6382482.594 8  -4963433.16845  23781991.855    23782003.1554
  22335348.316   -11595064.565 8  -9019430.42546  22335347.574    22335355.7744
  21160266.869   -19544460.001 9 -15220777.10748  21160270.861    21160279.0724
  23382150.513    -7703447.178 8  -5979388.88045  23382155.698    23382165.1534
 00  5  6  0 49 30.0000000  0  7 17 09 03 21 26 23 29
  20362552.186   -23738604.697 9 -18479818.24948  20362553.997    20362562.3394
  20997196.058   -18458028.214 9 -14347674.24147  20997198.550    20997206.2894
  24371398.411    -2468844.129 7  -1915867.38845  24371404.457    24371412.8274
  23766923.651    -6461664.418 8  -5025133.20245  23766923.578    23766934.4354
  22352498.867   -11504923.734 8  -8949190.86346  22352500.220    22352509.2464
  21153790.159   -19578495.200 9 -15247298.02348  21153794.185    21153802.3464
  23366543.197    -7785503.172 8  -6043328.45845  23366541.903    23366550.0794
 00  5  6  0 50  0.0000000  0  7 17 09 03 21 26 23 29
  20371432.223   -23691934.840 9 -18443452.14248  20371434.972    20371443.5384
  20989370.864   -18499157.757 9 -14379723.18147  20989372.124    20989379.4234
  24372486.510    -2463155.496 7  -1911434.69445  24372487.116    24372497.3394
  23751850.024    -6540854.853 8  -5086839.96746  23751855.053    23751865.3804
  22369674.008   -11414657.951 8  -8878853.91946  22369677.658    22369686.2054
  21147345.898   -19612369.795 9 -15273693.77648  21147348.345    21147356.3964
  23350964.743    -7867352.605 8  -6107107.10646  23350965.563    23350975.2144
 00  5  6  0 50 30.0000000  0  7 17 09 03 21 26 23 29
  20380422.864   -23644680.984 9 -18406630.97948  20380427.144    20380435.0694
  20981653.014   -18539695.856 9 -14411311.26347  20981657.559    20981664.8794
  24373666.337    -2456963.517 7  -1906609.75645  24373666.512    24373675.4384
  23736780.854    -6620053.325 8  -5148553.02645  23736783.285    23736793.4804
  22386873.830   -11324269.121 8  -8808421.08846  22386878.329    22386887.6464
  21140930.923   -19646083.129 9 -15299963.88148  21140932.447    21140940.8204
  23335434.503    -7948994.587 8  -6170724.08146  23335428.249    23335439.7534
 00  5  6  0 51  0.0000000  0  7 17 09 03 21 26 23 29
  20389527.223   -23596844.003 9 -18369355.42048  20389530.427    20389538.1494
  20974049.977   -18579640.833 9 -14442437.18247  20974056.062    20974064.0864
  24374936.035    -2450268.928 7  -1901393.17745  24374938.967    24374949.4784
  23721706.309    -6699259.279 8  -5210271.87646  23721710.534    23721722.0374
  22404097.293   -11233759.192 8  -8737893.92546  22404101.644    22404110.7174
  21134545.537   -19679634.302 9 -15326107.64747  21134547.628    21134556.1344
  23319923.389    -8030428.798 8  -6234179.20546  23319931.797    23319943.0064
 00  5  6  0 51 30.0000000  0  7 17 09 03 21 26 23 29
  20398742.386   -23548424.796 9 -18331626.17548  20398743.839    20398752.2764
  20966565.238   -18618991.183 9 -14473099.75347  20966567.971    20966575.4434
  24376295.348    -2443072.619 7  -1895785.69544  24376305.640    24376320.0734
  23706632.108    -6778471.894 8  -5271995.90046  23706637.343    23706647.4194
  22421343.404   -11143130.070 8  -8667273.88846  22421347.646    22421357.2434
  21128191.172   -19713022.336 9 -15352124.25748  21128194.691    21128203.0794
  23304468.281    -8111654.132 8  -6297471.50746  23304475.993    23304486.6604
 00  5  6  0 52  0.0000000  0  7 17 09 03 21 26 23 29
  20408065.490   -23499424.488 9 -18293444.13548  20408068.377    20408076.5994
  20959189.390   -18657744.761 9 -14503297.30447  20959193.589    20959201.3884
  24377773.523    -2435375.517 7  -1889787.93744  24377771.220    24377784.2284
  23691559.150    -6857690.912 8  -5333724.92146  23691562.560    23691573.9474
  22438615.458   -11052383.750 8  -8596562.46846  22438616.017    22438625.2214
  21121870.897   -19746246.449 9 -15378013.15048  21121872.369    21121880.3074
  23289059.013    -8192670.484 8  -6360601.01546  23289059.548    23289068.8594
 00  5  6  0 52 30.0000000  0  7 17 09 03 21 26 23 29
  20417499.195   -23449844.024 9 -18254810.02048  20417503.441    20417511.3214
  20951928.889   -18695900.021 9 -14533028.63447  20951932.514    20951941.1714
  24379322.781    -2427178.836 7  -1883400.90444  24379331.033    24379343.1634
  23676485.945    -6936915.445 8  -5395458.27046  23676486.686    23676497.1594
  22455905.167   -10961522.351 8  -8525761.45546  22455907.330    22455916.0484
  21115577.682   -19779306.019 9 -15403773.84848  21115580.989    21115588.8854
  23273680.157    -8273476.897 8  -6423566.90546  23273682.411    23273691.9504
 00  5  6  0 53  0.0000000  0  7 17 09 03 21 26 23 29
  20427044.299   -23399684.602 9 -18215724.76948  20427048.375    20427056.3244
  20944781.972   -18733455.482 9 -14562292.58247  20944785.744    20944794.1314
  24380986.689    -2418483.482 7  -1876625.32945  24380988.701    24380998.8284
  23661412.536    -7016145.118 8  -5457195.60246  23661409.535    23661419.1744
  22473215.000   -10870547.716 8  -8454872.17346  22473218.935    22473227.9554
  21109317.393   -19812200.026 9 -15429405.49348  21109321.521    21109329.6154
  23258339.554    -8354072.760 8  -6486368.75546  23258344.916    23258354.2874
 00  5  6  0 53 30.0000000  0  7 17 09 03 21 26 23 29
  20436700.216   -23348947.201 9 -18176189.14548  20436703.211    20436711.4514
  20937749.406   -18770409.856 9 -14591088.13647  20937753.690    20937761.7834
  24382739.054    -2409290.329 7  -1869461.77345  24382737.498    24382749.1694
  23646330.445    -7095379.464 8  -5518936.57545  23646331.383    23646340.6394
  22490551.359   -10779461.796 8  -8383896.17746  22490551.826    22490561.4014
  21103089.606   -19844927.604 9 -15454907.45148  21103093.950    21103101.7594
  23243044.239    -8434457.743 8  -6549006.26646  23243048.376    23243057.1004
 00  5  6  0 54  0.0000000  0  7 17 09 03 21 26 23 29
  20446465.241   -23297633.115 9 -18136204.15548  20446467.844    20446476.3764
  20930834.514   -18806761.341 9 -14619413.93347  20930835.853    20930844.2934
  24384573.089    -2399600.394 7  -1861911.12845  24384580.732    24384590.7644
  23631251.164    -7174617.712 8  -5580680.58446  23631253.472    23631263.5434
  22507900.171   -10688266.423 8  -8312834.92846  22507905.853    22507915.2824
  21096895.107   -19877488.050 9 -15480279.20548  21096897.774    21096905.5774
  23227787.619    -8514631.065 8  -6611478.86645  23227790.856    23227800.0774
 00  5  6  0 54 30.0000000  0  7 17 09 03 21 26 23 29
  20456337.479   -23245743.370 9 -18095770.59848  20456342.281    20456350.5774
  20924029.967   -18842508.604 9 -14647268.91147  20924033.777    20924041.4134
  24386516.493    -2389415.030 7  -1853974.46545  24386516.880    24386530.5744
  23616166.355    -7253859.177 8  -5642427.09346  23616173.952    23616183.8444
  22525272.517   -10596963.682 8  -8241689.98346  22525280.036    22525289.6034
  21090730.395   -19909880.707 9 -15505520.24648  21090733.410    21090741.8384
  23212572.847    -8594592.279 8  -6673786.21946  23212575.688    23212584.4404
 00  5  6  0 55  0.0000000  0  7 17 09 03 21 26 23 29
  20466323.329   -23193279.079 9 -18054889.35048  20466326.087    20466334.3674
  20917343.707   -18877649.942 9 -14674651.73447  20917347.015    20917354.2574
  24388546.057    -2378735.107 7  -1845652.46144  24388550.189    24388562.9624
  23601090.357    -7333103.527 8  -5704175.86246  23601093.514    23601103.0884
  22542666.430   -10505555.307 8  -8170462.71346  22542674.659    22542682.8894
  21084598.970   -19942104.576 9 -15530629.81648  21084601.723    21084609.6154
  23197396.373    -8674340.815 8  -6735927.80946  23197400.033    23197409.2074
 00  5  6  0 55 30.0000000  0  7 17 09 03 21 26 23 29
  20476415.739   -23140241.427 9 -18013561.32848  20476418.795    20476427.0254
  20910770.275   -18912184.148 9 -14701561.45847  20910775.058    20910782.9164
  24390677.533    -2367562.016 7  -1836946.10545  24390677.580    24390688.4154
  23586013.985    -7412349.609 8  -5765925.99146  23586014.353    23586023.6604
  22560087.908   -10414043.254 8  -8099154.65146  22560088.927    22560097.8694
  21078497.665   -19974158.580 9 -15555606.98948  21078501.696    21078510.0184
  23182262.116    -8753875.962 8  -6797903.14646  23182264.212    23182273.8484
 00  5  6  0 56  0.0000000  0  7 17 09 03 21 26 23 29
  20486618.693   -23086631.793 9 -17971787.60248  20486620.555    20486628.4544
  20904316.561   -18946109.308 9 -14727996.60547  20904319.386    20904327.4954
  24392894.383    -2355896.629 7  -1827856.26245  24392896.340    24392910.1734
  23570930.748    -7491597.162 8  -5827677.26246  23570934.026    23570943.6594
  22577521.329   -10322429.459 8  -8027767.29246  22577522.620    22577531.3524
  21072432.076   -20006041.959 9 -15580451.16047  21072434.278    21072442.4124
  23167167.218    -8833197.441 8  -6859711.94946  23167169.129    23167179.4654
 00  5  6  0 56 30.0000000  0  7 17 09 03 21 26 23 29
  20496926.895   -23032451.229 9 -17929568.99148  20496930.774    20496938.7444
  20897977.241   -18979424.040 9 -14753956.09547  20897979.711    20897987.5354
  24395210.914    -2343740.371 7  -1818383.78145  24395210.768    24395221.3134
  23555852.023    -7570845.783 8  -5889429.33146  23555853.417    23555863.5134
  22594975.401   -10230715.753 8  -7956302.08246  22594974.757    22594984.2984
  21066396.155   -20037753.935 9 -15605161.82247  21066399.738    21066408.0624
  23152113.710    -8912304.545 8  -6921353.74946  23152116.371    23152125.1464
 00  5  6  0 57  0.0000000  0  7 17 09 03 21 26 23 29
  20507345.596   -22977701.266 9 -17886906.69548  20507349.221    20507357.6734
  20891752.722   -19012127.120 9 -14779438.97047  20891756.525    20891764.0704
  24397606.307    -2331094.204 7  -1808529.63745  24397617.890    24397629.1724
  23540766.801    -7650094.797 8  -5951181.70746  23540772.752    23540782.9044
  22612438.065   -10138903.956 8  -7884760.43646  22612446.364    22612456.0354
  21060394.320   -20069293.321 9 -15629737.96448  21060398.155    21060406.3514
  23137102.753    -8991196.651 8  -6982827.99346  23137103.059    23137111.8444
 00  5  6  0 57 30.0000000  0  7 17 09 03 21 26 23 29
  20517872.423   -22922382.943 9 -17843801.53648  20517875.978    20517884.2184
  20885646.247   -19044217.477 9 -14804444.40647  20885649.431    20885657.7214
  24400102.624    -2317959.392 7  -1798294.64045  24400115.554    24400129.3064
  23525685.236    -7729343.503 8  -6012933.85446  23525691.429    23525702.2044
  22629933.024   -10046996.205 8  -7813144.08646  22629935.561    22629944.8884
  21054427.181   -20100659.168 9 -15654178.79348  21054429.234    21054437.1804
  23122128.027    -9069873.175 8  -7044134.25846  23122130.777    23122140.4834
 00  5  6  0 58  0.0000000  0  7 17 09 03 21 26 23 29
  20528506.347   -22866497.817 9 -17800254.72048  20528510.546    20528518.8284
  20879659.576   -19075693.582 9 -14828971.20247  20879659.869    20879667.5354
  24402714.598    -2304337.174 7  -1787679.90745  24402707.375    24402719.5574
  23510609.373    -7808591.236 8  -6074685.26046  23510610.953    23510622.1084
  22647442.532    -9954994.160 8  -7741454.31046  22647443.258    22647451.8764
  21048489.279   -20131850.981 9 -15678484.00448  21048493.617    21048501.5524
  23107194.877    -9148333.809 8  -7105272.32546  23107200.199    23107210.4044
 00  5  6  0 58 30.0000000  0  7 17 09 03 21 26 23 29
  20539249.693   -22810046.973 9 -17756267.07348  20539252.656    20539261.3634
  20873785.808   -19106553.978 9 -14853018.22847  20873787.759    20873795.2394
  24405380.821    -2290228.967 7  -1776686.48144  24405391.951    24405405.8034
  23495525.443    -7887836.695 8  -6136434.88346  23495530.721    23495542.0084
  22664962.435    -9862899.505 8  -7669692.28746  22664967.985    22664976.3014
  21042587.824   -20162867.749 9 -15702652.86248  21042591.597    21042599.4234
  23092309.046    -9226577.886 8  -7166241.63446  23092311.046    23092321.5914
 00  5  6  0 59  0.0000000  0  7 17 09 03 21 26 23 29
  20550098.998   -22753031.876 9 -17711839.73548  20550102.201    20550110.7864
  20868028.282   -19136797.344 9 -14876584.44347  20868032.028    20868040.4664
  24408165.540    -2275635.910 7  -1765315.28844  24408168.089    24408181.0284
  23480447.163    -7967079.339 8  -6198182.31046  23480451.936    23480462.9734
  22682504.536    -9770714.193 8  -7597859.59446  22682509.958    22682519.5254
  21036718.628   -20193708.719 9 -15726684.77347  21036722.500    21036730.8204
  23077463.615    -9304605.020 8  -7227041.90146  23077464.419    23077472.1924
 00  5  6  0 59 30.0000000  0  7 17 09 03 21 26 23 29
  20561055.951   -22695453.692 9 -17666973.62547  20561059.126    20561067.4954
  20862389.600   -19166422.580 9 -14899669.00747  20862394.603    20862402.5184
  24411038.233    -2260559.252 7  -1753567.23544  24411039.751    24411050.4674
  23465370.628    -8046318.696 8  -6259927.18846  23465373.346    23465384.4444
  22700068.652    -9678440.013 8  -7525957.63946  22700069.420    22700078.4024
  21030884.994   -20224372.726 9 -15750578.75848  21030887.688    21030895.4204
  23062654.307    -9382414.590 8  -7287672.65146  23062657.284    23062665.7114
 00  5  6  1  0  0.0000000  0  7 17 09 03 21 26 23 29
  20572119.284   -22637313.924 9 -17621669.92247  20572123.015    20572131.1454
  20856870.474   -19195428.600 9 -14922271.06447  20856874.978    20856882.4404
  24413994.562    -2245000.275 7  -1741443.36644  24413999.473    24414011.7504
  23450292.588    -8125554.143 8  -6321669.01846  23450295.205    23450305.5664
  22717641.146    -9586079.010 8  -7453988.08246  22717645.271    22717653.7604
  21025082.779   -20254858.744 9 -15774333.97848  21025086.388    21025093.8934
  23047891.796    -9460006.113 8  -7348133.50246  23047890.192    23047899.7914
 00  5  6  1  0 30.0000000  0  7 17 09 03 21 26 23 29
  20583289.124   -22578613.903 9 -17575929.66348  20583293.139    20583301.5584
  20851471.016   -19223814.043 9 -14944389.55447  20851473.022    20851481.0474
  24417048.160    -2228960.207 7  -1728944.62344  24417052.219    24417064.1984
  23435217.267    -8204785.462 8  -6383407.62746  23435218.367    23435228.1144
  22735232.315    -9493632.687 8  -7381952.07846  22735237.429    22735247.0844
  21019318.162   -20285166.203 9 -15797950.07348  21019318.896    21019326.5764
  23033161.475    -9537379.235 8  -7408424.13246  23033166.845    23033176.0024
 00  5  6  1  1  0.0000000  0  7 17 09 03 21 26 23 29
  20594565.209   -22519355.205 9 -17529754.08948  20594569.394    20594578.3064
  20846184.553   -19251577.728 9 -14966023.56547  20846189.943    20846197.2534
  24420183.645    -2212440.391 7  -1716072.05745  24420198.234    24420208.0174
  23420137.031    -8284011.219 8  -6445141.92246  23420142.073    23420151.7064
  22752847.666    -9401102.919 8  -7309851.02146  22752846.016    22752854.2964
  21013584.618   -20315294.135 9 -15821426.35748  21013585.734    21013593.7004
  23018483.192    -9614533.136 8  -7468543.99646  23018486.583    23018494.6744
 00  5  6  1  1 30.0000000  0  7 17 09 03 21 26 23 29
  20605947.641   -22459539.176 9 -17483144.21847  20605951.738    20605960.6804
  20841021.592   -19278718.461 9 -14987172.15447  20841025.427    20841032.7584
  24423431.423    -2195442.262 7  -1702826.83645  24423429.141    24423441.5584
  23405067.012    -8363230.622 8  -6506871.25746  23405066.582    23405076.6574
  22770464.910    -9308491.558 8  -7237686.36246  22770468.365    22770477.9454
  21007883.253   -20345241.411 9 -15844761.84148  21007886.956    21007895.1084
  23003843.535    -9691467.739 8  -7528492.96146  23003846.052    23003854.3734
 00  5  6  1  2  0.0000000  0  7 17 09 03 21 26 23 29
  20617437.129   -22399167.329 9 -17436101.23147  20617440.384    20617449.4704
  20835976.176   -19305235.170 9 -15007834.48947  20835979.506    20835986.9754
  24426748.856    -2177967.257 7  -1689209.97544  24426756.018    24426769.2004
  23389990.443    -8442443.064 8  -6568595.15846  23389993.141    23390003.0864
  22788102.878    -9215800.200 8  -7165459.33146  22788107.208    22788116.7944
  21002219.690   -20375007.333 9 -15867956.09148  21002222.884    21002231.0854
  22989241.263    -9768182.348 8  -7588270.51246  22989247.197    22989255.2554
 00  5  6  1  2 30.0000000  0  7 17 09 03 21 26 23 29
  20629030.746   -22338241.071 9 -17388626.24548  20629034.689    20629043.3004
  20831051.611   -19331126.898 9 -15028009.82747  20831052.540    20831060.2274
  24430175.580    -2160016.856 7  -1675222.71144  24430173.276    24430181.6774
  23374916.439    -8521647.850 8  -6630313.12446  23374920.982    23374930.7044
  22805758.263    -9123030.720 8  -7093171.41346  22805760.661    22805769.6874
  20996588.700   -20404590.777 9 -15891008.19348  20996592.865    20996601.3104
  22974689.223    -9844676.470 8  -7647876.20446  22974691.363    22974699.4834
 00  5  6  1  3  0.0000000  0  7 17 09 03 21 26 23 29
  20640729.879   -22276761.879 9 -17340720.40747  20640733.542    20640741.9604
  20826239.329   -19356392.525 9 -15047697.29147  20826244.347    20826252.4074
  24433673.851    -2141592.365 7  -1660866.00545  24433677.728    24433688.7044
  23359844.132    -8600844.170 8  -6692024.45046  23359850.567    23359860.4304
  22823429.498    -9030184.773 8  -7020823.96146  22823428.834    22823436.9854
  20990996.351   -20433990.753 9 -15913917.32348  20990998.590    20991006.5254
  22960174.086    -9920949.706 8  -7707309.82346  22960176.643    22960185.6644
 00  5  6  1  3 30.0000000  0  7 17 09 03 21 26 23 29
  20652533.356   -22214731.271 9 -17292384.88047  20652537.462    20652546.1824
  20821551.946   -19381030.843 9 -15066895.93547  20821555.557    20821563.8354
  24437274.012    -2122695.320 7  -1646141.07145  24437275.648    24437282.9814
  23344779.665    -8680031.603 8  -6753728.86846  23344781.754    23344790.6464
  22841102.734    -8937264.311 8  -6948418.43046  22841111.048    22841119.0874
  20985434.899   -20463206.549 9 -15936683.02748  20985438.870    20985447.3714
  22945699.898    -9997001.634 8  -7766570.97046  22945704.100    22945713.1854
 00  5  6  1  4  0.0000000  0  7 17 09 03 21 26 23 29
  20664442.556   -22152150.927 9 -17243620.99747  20664446.209    20664454.7064
  20816982.146   -19405041.032 9 -15085605.13647  20816986.473    20816994.6564
  24440959.149    -2103327.278 7  -1631049.08645  24440962.711    24440968.9404
  23329714.444    -8759209.287 8  -6815425.68046  23329714.720    23329723.5834
  22858809.335    -8844270.994 8  -6875956.15146  22858807.535    22858815.0884
  20979911.749   -20492236.884 9 -15959304.15948  20979915.005    20979922.8984
  22931270.906   -10072831.830 8  -7825659.34046  22931274.234    22931283.6184
 00  5  6  1  4 30.0000000  0  7 17 09 03 21 26 23 29
  20676455.637   -22089022.533 9 -17194430.06847  20676459.348    20676467.8774
  20812534.541   -19428422.051 9 -15103824.08947  20812537.621    20812545.2234
  24444735.130    -2083489.275 7  -1615590.95745  24444735.070    24444745.3994
  23314650.954    -8838376.163 8  -6877114.09046  23314651.015    23314658.7374
  22876510.773    -8751206.364 8  -6803438.28446  22876516.336    22876524.9864
  20974422.919   -20521080.754 9 -15981779.85948  20974425.928    20974434.2754
  22916881.641   -10148439.802 8  -7884574.53846  22916886.441    22916895.3894
 00  5  6  1  5  0.0000000  0  7 17 09 03 21 26 23 29
  20688573.026   -22025347.624 9 -17144813.28247  20688576.239    20688585.1264
  20808204.669   -19451172.769 9 -15121551.89447  20808208.249    20808215.6624
  24448596.850    -2063182.917 7  -1599767.86745  24448599.664    24448609.1204
  23299582.593    -8917531.554 8  -6938793.56046  23299586.701    23299595.3844
  22894237.697    -8658072.515 8  -6730866.53746  22894239.572    22894248.4064
  20968970.883   -20549737.326 9 -16004109.66348  20968973.109    20968980.9324
  22902537.981   -10223825.240 8  -7943316.33146  22902541.310    22902549.5084
 00  5  6  1  5 30.0000000  0  7 17 09 03 21 26 23 29
  20700792.897   -21961127.710 9 -17094771.81047  20700796.871    20700805.2164
  20803993.173   -19473292.391 9 -15138787.92747  20803998.977    20804006.5584
  24452539.637    -2042409.970 7  -1583581.20744  24452551.135    24452561.5304
  23284524.825    -8996674.951 8  -7000463.67346  23284524.632    23284535.3474
  22911974.061    -8564870.920 8  -6658242.06046  22911975.585    22911983.7434
  20963553.217   -20578205.673 9 -16026292.73148  20963555.407    20963563.5664
  22888234.124   -10298987.402 8  -8001884.15046  22888238.146    22888246.6334
 00  5  6  1  6  0.0000000  0  7 17 09 03 21 26 23 29
  20713118.177   -21896364.613 9 -17044307.08147  20713120.918    20713129.1624
  20799908.057   -19494780.157 9 -15155531.60948  20799910.339    20799917.6484
  24456599.703    -2021171.507 7  -1567031.82544  24456596.602    24456605.4804
  23269466.054    -9075805.254 8  -7062123.56046  23269467.758    23269478.1564
  22929719.490    -8471603.046 8  -6585565.83446  22929723.699    22929732.4674
  20958171.242   -20606484.935 9 -16048328.49748  20958174.264    20958182.0624
  22873974.478   -10373926.325 8  -8060278.02246  22873978.186    22873986.5914
 00  5  6  1  6 30.0000000  0  7 17 09 03 21 26 23 29
  20725543.948   -21831060.012 9 -16993420.40047  20725547.814    20725556.3554
  20795935.936   -19515635.172 9 -15171782.23447  20795941.197    20795948.9984
  24460722.940    -1999469.711 7  -1550121.35645  24460723.687    24460733.3344
  23254406.872    -9154921.417 8  -7123772.43746  23254412.665    23254421.7634
  22947477.989    -8378270.892 8  -6512839.58246  22947484.361    22947493.4874
  20952825.687   -20634573.801 9 -16070215.89748  20952828.784    20952836.5784
  22859755.371   -10448641.394 8  -8118497.49546  22859759.808    22859768.6034
 00  5  6  1  7  0.0000000  0  7 17 09 03 21 26 23 29
  20738074.437   -21765215.399 9 -16942112.93647  20738077.592    20738085.8974
  20792090.314   -19535856.321 9 -15187538.94147  20792093.438    20792101.1214
  24464938.625    -1977305.816 7  -1532850.81345  24464941.261    24464951.8624
  23239354.749    -9234023.139 8  -7185410.07746  23239358.421    23239369.0484
  22965255.128    -8284875.987 8  -6440064.41246  22965256.656    22965265.6024
  20947517.161   -20662471.255 9 -16091954.09348  20947519.923    20947527.8184
  22845582.681   -10523132.081 8  -8176542.08946  22845584.246    22845592.7854
 00  5  6  1  7 30.0000000  0  7 17 09 03 21 26 23 29
  20750707.130   -21698832.627 9 -16890386.13147  20750710.225    20750718.6494
  20788364.379   -19555443.138 9 -15202801.36748  20788366.065    20788373.8604
  24469242.685    -1954681.435 7  -1515221.44744  24469247.255    24469254.6974
  23224308.564    -9313109.194 8  -7247035.49846  23224309.309    23224320.2644
  22983034.844    -8191419.855 8  -6367241.45646  22983041.481    22983050.5264
  20942241.414   -20690176.501 9 -16113542.55948  20942247.521    20942255.6824
  22831446.334   -10597398.106 8  -8234411.62446  22831452.008    22831460.5134
 00  5  6  1  8  0.0000000  0  7 17 09 03 21 26 23 29
  20763440.836   -21631913.536 9 -16838241.42047  20763444.376    20763452.8994
  20784755.726   -19574394.746 9 -15217568.82748  20784759.756    20784767.3144
  24473633.933    -1931598.454 7  -1497234.75245  24473639.361    24473649.1474
  23209256.568    -9392178.660 8  -7308648.04646  23209263.332    23209273.1504
  23000835.226    -8097904.359 8  -6294372.23046  23000836.941    23000845.8184
  20937009.962   -20717688.398 9 -16134980.29948  20937012.499    20937020.4244
  22817361.191   -10671439.063 8  -8292105.77346  22817362.740    22817371.3134
 00  5  6  1  8 30.0000000  0  7 17 09 03 21 26 23 29
  20776277.944   -21564459.682 9 -16785680.01347  20776280.410    20776288.9464
  20781271.146   -19592710.088 9 -15231840.49948  20781274.586    20781281.9924
  24478118.019    -1908058.146 7  -1478891.65045  24478118.236    24478128.8644
  23194216.461    -9471230.443 8  -7370246.79446  23194220.195    23194230.3914
  23018641.204    -8004331.024 8  -6221457.99346  23018643.134    23018652.2854
  20931811.050   -20745006.083 9 -16156266.63948  20931814.179    20931821.7014
  22803309.622   -10745254.562 8  -8349624.24746  22803315.862    22803325.2864
 00  5  6  1  9  0.0000000  0  7 17 09 03 21 26 23 29
  20789212.691   -21496472.797 9 -16732703.24647  20789217.954    20789226.1174
  20777907.746   -19610388.605 9 -15245615.93348  20777910.673    20777917.9434
  24482688.707    -1884062.394 7  -1460193.65045  24482684.994    24482695.3544
  23179174.011    -9550264.338 8  -7431831.61246  23179179.394    23179190.7824
  23036450.151    -7910701.639 8  -6148500.08046  23036460.040    23036469.5394
  20926650.884   -20772128.679 9 -16177401.11148  20926652.722    20926660.6614
  22789307.645   -10818844.248 8  -8406966.76146  22789311.270    22789321.1914
 00  5  6  1  9 30.0000000  0  7 17 09 03 21 26 23 29
  20802253.405   -21427954.834 9 -16679312.67147  20802256.432    20802264.5534
  20774663.635   -19627429.712 9 -15258894.69048  20774667.481    20774675.3544
  24487329.340    -1859612.785 7  -1441141.98545  24487336.783    24487348.6044
  23164144.156    -9629279.385 8  -7493401.71446  23164143.921    23164154.0344
  23054279.555    -7817017.765 8  -6075499.74746  23054286.747    23054296.9494
  20921525.504   -20799055.246 9 -16198382.94548  20921528.678    20921536.7714
  22775347.292   -10892207.796 8  -8464133.06746  22775350.952    22775359.7734
 00  5  6  1 10  0.0000000  0  7 17 09 03 21 26 23 29
  20815391.888   -21358907.751 9 -16625509.77747  20815395.832    20815403.7304
  20771542.218   -19643832.812 9 -15271676.30148  20771545.887    20771553.9294
  24492077.260    -1834711.042 7  -1421738.02545  24492076.157    24492086.9574
  23149109.751    -9708274.721 8  -7554956.44946  23149112.943    23149121.7854
  23072117.338    -7723280.973 8  -6002458.17446  23072124.347    23072134.6244
  20916440.759   -20825784.351 9 -16219210.84048  20916442.192    20916450.2514
  22761432.810   -10965344.811 8  -8521122.86346  22761433.507    22761442.5864
 00  5  6  1 10 30.0000000  0  7 17 09 03 21 26 23 29
  20828630.687   -21289333.252 9 -16571295.90547  20828635.748    20828643.7964
  20768543.435   -19659597.278 9 -15283960.27448  20768546.569    20768553.6774
  24496899.241    -1809358.762 7  -1401983.03745  24496900.672    24496911.7114
  23134076.390    -9787249.264 8  -7616494.99346  23134083.609    23134093.3934
  23089970.915    -7629492.719 8  -5929376.46546  23089972.711    23089981.4494
  20911391.842   -20852314.916 9 -16239883.99948  20911393.866    20911401.3804
  22747561.061   -11038254.972 8  -8577935.88446  22747559.529    22747568.3944
 00  5  6  1 11  0.0000000  0  7 17 09 03 21 26 23 29
  20841969.667   -21219233.085 9 -16516672.42547  20841975.184    20841983.5774
  20765663.950   -19674722.359 9 -15295746.01548  20765667.866    20765675.6984
  24501803.326    -1783557.712 7  -1381878.30045  24501809.666    24501821.3984
  23119056.566    -9866202.114 8  -7678016.60346  23119059.076    23119069.0764
  23107828.344    -7535654.814 8  -5856256.08946  23107829.591    23107838.2114
  20906380.846   -20878646.047 9 -16260401.67448  20906383.339    20906390.9664
  22733722.260   -11110937.920 8  -8634571.84246  22733727.349    22733737.1624
 00  5  6  1 11 30.0000000  0  7 17 09 03 21 26 23 29
  20855409.690   -21148609.097 9 -16461640.76347  20855414.506    20855422.8594
  20762907.416   -19689207.487 9 -15307033.10047  20762910.975    20762919.2884
  24506799.191    -1757309.859 7  -1361425.42745  24506803.035    24506817.0524
  23104037.835    -9945132.526 8  -7739520.70846  23104040.610    23104049.7014
  23125687.860    -7441768.700 8  -5783098.15746  23125694.744    23125704.1294
  20901408.071   -20904776.939 9 -16280763.40848  20901410.697    20901418.2854
  22719928.012   -11183393.238 8  -8691030.43346  22719938.573    22719948.6004
 00  5  6  1 12  0.0000000  0  7 17 09 03 21 26 23 29
  20868947.759   -21077463.338 9 -16406202.53147  20868953.044    20868961.8024
  20760273.581   -19703052.323 9 -15317821.25947  20760276.790    20760284.2884
  24511878.481    -1730616.528 7  -1340625.42945  24511885.469    24511895.5204
  23089021.290   -10024039.579 8  -7801006.65446  23089025.602    23089033.9924
  23143567.271    -7347836.118 8  -5709903.99246  23143569.361    23143578.7544
  20896474.384   -20930706.313 9 -16300968.05548  20896476.209    20896484.1684
  22706191.854   -11255620.785 8  -8747311.55746  22706194.757    22706204.7194
 00  5  6  1 12 30.0000000  0  7 17 09 03 21 26 23 29
  20882585.805   -21005797.397 9 -16350358.99347  20882590.591    20882599.3384
  20757762.289   -19716256.060 9 -15328109.85447  20757764.413    20757771.4004
  24517046.233    -1703479.789 7  -1319479.95845  24517049.572    24517059.1514
  23074011.519   -10102922.030 8  -7862473.41146  23074014.338    23074022.0304
  23161452.938    -7253858.249 8  -5636674.50746  23161453.746    23161462.4294
  20891579.977   -20956433.253 9 -16321014.95048  20891580.685    20891588.7504
  22692490.320   -11327619.975 8  -8803414.72846  22692493.977    22692503.2394
 00  5  6  1 13  0.0000000  0  7 17 09 03 21 26 23 29
  20896322.128   -20933613.366 9 -16294111.72847  20896326.547    20896335.4394
  20755370.426   -19728818.259 9 -15337898.55847  20755374.097    20755381.0384
  24522286.518    -1675901.466 7  -1297990.34745  24522296.656    24522308.5684
  23059006.996   -10181779.564 8  -7923920.76646  23059007.536    23059016.9564
  23179341.114    -7159836.941 8  -5563411.17746  23179345.475    23179353.3684
  20886720.641   -20981956.804 9 -16340903.44848  20886723.694    20886731.8504
  22678833.347   -11399390.713 8  -8859339.89646  22678836.621    22678845.5804
 00  5  6  1 13 30.0000000  0  7 17 09 03 21 26 23 29
  20910155.840   -20860913.335 9 -16237462.37547  20910160.666    20910169.4834
  20753100.979   -19740738.551 9 -15347187.07347  20753105.496    20753112.5624
  24527631.696    -1647883.154 7  -1276157.97145  24527629.450    24527639.0764
  23044003.728   -10260610.875 8  -7985347.71446  23044005.831    23044015.5274
  23197237.618    -7065773.893 8  -5490115.37946  23197245.409    23197254.1644
  20881901.825   -21007275.830 9 -16360632.55148  20881905.179    20881913.4404
  22665219.228   -11470932.352 8  -8915086.57846  22665222.867    22665232.3404
 00  5  6  1 14  0.0000000  0  7 17 09 03 21 26 23 29
  20924090.051   -20787699.457 9 -16180412.62747  20924093.324    20924101.9574
  20750954.929   -19752016.373 9 -15355974.96947  20750958.914    20750966.7674
  24533036.514    -1619427.029 7  -1253984.40444  24533042.989    24533053.6574
  23029006.580   -10339415.032 8  -8046753.49846  23029010.133    23029019.3834
  23215152.781    -6971670.422 8  -5416788.16846  23215152.311    23215161.5484
  20877122.787   -21032389.332 9 -16380201.44148  20877126.458    20877134.5634
  22651644.626   -11542244.982 8  -8970654.81346  22651651.968    22651661.2634
 00  5  6  1 14 30.0000000  0  7 17 09 03 21 26 23 29
  20938118.086   -20713973.570 9 -16122963.91847  20938122.847    20938131.5014
  20748932.139   -19762651.370 9 -15364261.95648  20748935.520    20748943.3274
  24538545.030    -1590534.525 7  -1231470.72544  24538542.139    24538552.0794
  23014017.848   -10418190.922 8  -8108137.26646  23014020.089    23014029.2154
  23233070.078    -6877527.962 8  -5343430.47446  23233067.451    23233076.5834
  20872385.220   -21057296.178 9 -16399609.37448  20872387.228    20872394.8584
  22638120.250   -11613328.223 8  -9026044.29446  22638126.139    22638135.0924
 00  5  6  1 15  0.0000000  0  7 17 09 03 21 26 23 29
  20952246.924   -20639737.457 9 -16065117.62747  20952249.395    20952258.4834
  20747032.268   -19772643.139 9 -15372047.72948  20747034.526    20747041.8124
  24544115.391    -1561207.576 7  -1208618.59544  24544123.355    24544132.3334
  22999031.031   -10496937.707 8  -8169498.35446  22999034.201    22999044.3934
  23250982.076    -6783348.050 8  -5270043.58546  23250988.577    23250997.2484
  20867683.671   -21081995.234 9 -16418855.38448  20867687.092    20867694.7034
  22624637.155   -11684181.758 8  -9081254.74946  22624642.646    22624652.5894
 00  5  6  1 15 30.0000000  0  7 17 09 03 21 26 23 29
  20966469.124   -20564993.122 9 -16006875.33247  20966472.824    20966481.4744
  20745252.027   -19781991.343 9 -15379332.02048  20745255.323    20745262.8614
  24549775.020    -1531448.311 7  -1185429.60144  24549784.758    24549795.7064
  22984050.432   -10575654.241 8  -8230835.82346  22984054.719    22984064.1594
  23268915.099    -6689132.442 8  -5196628.88546  23268917.478    23268926.9984
  20863023.317   -21106485.481 9 -16437938.66448  20863026.636    20863034.3574
  22611198.562   -11754805.013 8  -9136285.76246  22611202.859    22611212.6934
 00  5  6  1 16  0.0000000  0  7 17 09 03 21 26 23 29
  20980791.207   -20489742.836 9 -15948238.78247  20980792.745    20980800.7164
  20743595.561   -19790695.569 9 -15386114.52048  20743599.156    20743606.3054
  24555532.815    -1501258.607 7  -1161905.17844  24555531.205    24555539.9804
  22969079.319   -10654340.179 8  -8292149.50246  22969082.379    22969090.4604
  23286853.173    -6594882.221 8  -5123187.16346  23286853.009    23286862.3044
  20858403.769   -21130765.677 9 -16456858.24048  20858406.127    20858413.7474
  22597806.654   -11825197.918 8  -9191137.29846  22597808.943    22597817.0044
 00  5  6  1 16 30.0000000  0  7 17 09 03 21 26 23 29
  20995206.382   -20413988.544 9 -15889209.49847  20995208.823    20995216.7884
  20742061.167   -19798755.663 9 -15392395.08948  20742065.325    20742072.4384
  24561347.096    -1470640.119 7  -1138046.63844  24561357.763    24561368.4104
  22954113.338   -10732993.477 8  -8353437.73146  22954114.473    22954123.8314
  23304793.649    -6500599.147 8  -5049719.91246  23304794.687    23304803.3314
  20853822.271   -21154834.839 9 -16475613.43848  20853825.762    20853833.7354
  22584454.978   -11895360.307 8  -9245809.21846  22584457.036    22584465.6234
 00  5  6  1 17  0.0000000  0  7 17 09 03 21 26 23 29
  21009715.814   -20337732.380 9 -15829789.15447  21009719.629    21009728.0394
  20740649.474   -19806171.238 9 -15398173.45148  20740654.000    20740661.4644
  24567262.547    -1439594.741 7  -1113855.42144  24567263.325    24567273.8444
  22939150.261   -10811613.546 8  -8414700.09446  22939153.226    22939163.0144
  23322739.583    -6406284.647 8  -4976228.19946  23322742.233    23322750.8654
  20849284.267   -21178691.984 9 -16494203.41148  20849285.917    20849293.8434
  22571146.670   -11965291.784 8  -9300301.19446  22571149.262    22571158.1814
 00  5  6  1 17 30.0000000  0  7 17 09 03 21 26 23 29
  21024322.246   -20260976.367 9 -15769979.29947  21024325.871    21024334.3584
  20739361.789   -19812941.978 9 -15403449.33548  20739365.318    20739372.7754
  24573247.762    -1408124.491 7  -1089333.19844  24573253.992    24573265.3664
  22924192.652   -10890199.676 8  -8475936.00546  22924197.726    22924208.5874
  23340687.136    -6311940.068 8  -4902712.92346  23340694.869    23340704.1944
  20844785.323   -21202335.984 9 -16512627.34948  20844787.029    20844794.3394
  22557882.405   -12034992.116 8  -9354613.01546  22557885.711    22557894.4654
 00  5  6  1 18  0.0000000  0  7 17 09 03 21 26 23 29
  21039024.547   -20183722.775 9 -15709781.73047  21039026.605    21039035.0984
  20738196.707   -19819068.063 9 -15408222.88948  20738199.622    20738207.0574
  24579314.567    -1376231.641 7  -1064481.62644  24579321.343    24579331.0374
  22909247.109   -10968750.766 8  -8537144.61346  22909251.302    22909260.4414
  23358647.999    -6217567.041 8  -4829175.60446  23358653.381    23358663.2074
  20840324.170   -21225765.688 9 -16530884.26248  20840328.273    20840335.8744
  22544658.940   -12104460.846 8  -9408744.39646  22544666.279    22544674.4694
 00  5  6  1 18 30.0000000  0  7 17 09 03 21 26 23 29
  21053820.293   -20105973.826 9 -15649198.17947  21053821.723    21053830.7484
  20737154.615   -19824549.245 9 -15412493.92448  20737156.484    20737164.2694
  24585471.187    -1343917.569 7  -1039301.86344  24585470.582    24585484.5474
  22894309.308   -11047265.676 8  -8598325.01646  22894310.437    22894318.6934
  23376612.438    -6123166.912 8  -4755617.17446  23376617.123    23376627.0554
  20835906.102   -21248980.021 9 -16548973.38748  20835910.416    20835918.3864
  22531488.590   -12173698.171 8  -9462695.47346  22531490.774    22531499.4864
 00  5  6  1 19  0.0000000  0  7 17 09 03 21 26 23 29
  21068705.813   -20027731.431 9 -15588230.12847  21068710.682    21068719.6784
  20736234.479   -19829385.187 9 -15416262.17148  20736236.281    20736244.1284
  24591693.084    -1311184.751 7  -1013795.72844  24591699.958    24591712.3134
  22879374.398   -11125743.645 8  -8659476.60046  22879376.411    22879385.6084
  23394587.993    -6028740.980 8  -4682038.58546  23394586.551    23394595.5144
  20831532.438   -21271977.787 9 -16566893.71948  20831534.837    20831542.2634
  22518355.448   -12242703.574 8  -9516465.83046  22518359.378    22518368.1404
 00  5  6  1 19 30.0000000  0  7 17 09 03 21 26 23 29
  21083690.137   -19948997.622 9 -15526879.15047  21083693.269    21083702.1534
  20735436.872   -19833576.010 9 -15419527.73748  20735438.746    20735446.6824
  24598003.448    -1278035.316 7   -987965.05444  24598008.984    24598020.5614
  22864446.792   -11204183.073 8  -8720598.20446  22864449.769    22864458.7274
  23412554.579    -5934290.776 8  -4608441.05945  23412559.073    23412569.0504
  20827197.623   -21294757.988 9 -16584644.54348  20827199.579    20827207.2774
  22505270.523   -12311476.899 8  -9570055.32146  22505271.914    22505280.5064
 00  5  6  1 20  0.0000000  0  7 17 09 03 21 26 23 29
  21098762.971   -19869774.727 9 -15465147.06447  21098769.144    21098777.3414
  20734759.088   -19837121.349 9 -15422290.31948  20734763.928    20734771.7234
  24604387.818    -1244471.049 7   -961811.05444  24604397.191    24604408.1534
  22849525.477   -11282583.055 8  -8781689.12946  22849531.580    22849539.7804
  23430524.515    -5839817.716 8  -4534825.76745  23430536.551    23430546.5724
  20822903.388   -21317319.523 9 -16602225.01948  20822906.205    20822914.1564
  22492231.219   -12380017.809 8  -9623463.72546  22492229.279    22492237.0604
 00  5  6  1 20 30.0000000  0  8 17 09 03 15 21 26 23 29
  21113934.425   -19790065.087 9 -15403035.70047  21113937.402    21113945.8754
  20734209.704   -19840021.308 9 -15424550.01447  20734212.260    20734219.6934
  24610859.631    -1210494.129 7   -935335.57244  24610859.890    24610872.7294
  24227162.583     -547878.56117   -405743.26655  24227155.774    24227166.7054
  22834617.765   -11360942.871 8  -8842748.72546  22834620.664    22834628.4564
  23448508.144    -5745323.065 8  -4461193.59545  23448518.556    23448528.0914
  20818651.263   -21339661.184 9 -16619634.11048  20818654.682    20818662.5634
  22479226.147   -12448326.215 8  -9676690.99146  22479230.331    22479238.3194
 00  5  6  1 21  0.0000000  0  8 17 09 03 15 21 26 23 29
  21129190.884   -19709870.936 9 -15340546.79347  21129197.351    21129205.9954
  20733776.666   -19842275.671 9 -15426306.64948  20733783.047    20733791.0344
  24617400.363    -1176106.415 7   -908539.92944  24617403.528    24617416.4054
  24206930.930     -654120.201 7   -488528.78145  24206940.017    24206950.3504
  22819714.156   -11439261.090 8  -8903775.88246  22819716.442    22819725.2174
  23466502.620    -5650808.497 8  -4387545.87945  23466503.852    23466513.5324
  20814441.376   -21361781.960 9 -16636871.09048  20814445.226    20814453.0644
  22466272.141   -12516401.771 8  -9729736.78046  22466275.757    22466283.6464
 00  5  6  1 21 30.0000000  0  8 17 09 03 15 21 26 23 29
  21144547.311   -19629194.318 9 -15277681.93647  21144549.830    21144558.7514
  20733474.675   -19843884.777 9 -15427560.47947  20733476.890    20733484.5184
  24624027.322    -1141309.993 7   -881425.79544  24624025.073    24624037.9224
  24186755.607     -760167.573 7   -571162.93445  24186757.633    24186769.9074
  22804819.795   -11517536.856 8  -8964769.91046  22804820.343    22804830.1424
  23484484.076    -5556275.082 8  -4313883.50445  23484492.953    23484503.0354
  20810274.942   -21383680.431 9 -16653934.72948  20810278.092    20810285.9714
  22453365.966   -12584244.291 8  -9782601.00846  22453366.416    22453373.7784
 00  5  6  1 22  0.0000000  0  7 17 09 15 21 26 23 29
  21159992.583   -19548037.475 9 -15214442.88547  21159993.674    21160002.1394
  20733290.318   -19844848.394 9 -15428311.33847  20733293.748    20733301.1134
  24166608.049     -866018.140 7   -653643.72345  24166613.868    24166627.6164
  22789929.708   -11595768.714 8  -9025729.68446  22789933.308    22789942.6624
  23502484.860    -5461724.593 8  -4240207.88945  23502486.476    23502495.0544
  20806150.146   -21405355.951 9 -16670824.71548  20806153.522    20806161.1884
  22440493.907   -12651853.775 8  -9835283.64046  22440499.662    22440507.9774
 00  5  6  1 22 30.0000000  0  7 17 09 15 21 26 23 29
  21175523.243   -19466402.745 9 -15150831.44647  21175528.111    21175537.0734
  20733231.881   -19845166.479 9 -15428559.18948  20733233.281    20733240.5784
  24146500.174     -971668.968 7   -735968.99345  24146511.214    24146520.6644
  22775050.076   -11673956.168 8  -9086654.92746  22775055.403    22775063.7894
  23520476.279    -5367157.882 8  -4166519.62945  23520481.734    23520491.4224
  20802069.144   -21426807.098 9 -16687539.93248  20802071.775    20802078.9054
  22427673.060   -12719229.738 8  -9887784.29746  22427677.627    22427687.1664
 00  5  6  1 23  0.0000000  0  7 17 09 15 21 26 23 29
  21191149.115   -19384292.611 9 -15086849.56447  21191153.243    21191161.9934
  20733290.528   -19844839.194 9 -15428304.15547  20733295.272    20733303.1954
  24126442.014    -1077117.061 7   -818136.25545  24126443.375    24126454.4724
  22760183.309   -11752097.654 8  -9147544.38146  22760184.620    22760193.1694
  23538484.542    -5272576.531 8  -4092819.91445  23538479.646    23538489.2514
  20798029.290   -21448032.878 9 -16704079.48148  20798032.470    20798039.8554
  22414898.071   -12786372.133 8  -9940102.95846  22414902.573    22414910.0104
 00  5  6  1 23 30.0000000  0  7 17 09 15 21 26 23 29
  21206863.781   -19301709.245 9 -15022498.93247  21206868.351    21206876.8764
  20733477.502   -19843866.767 9 -15427546.41247  20733480.389    20733487.9914
  24106405.131    -1182359.743 7   -900143.37745  24106415.542    24106428.5134
  22745316.033   -11830192.276 8  -9208397.33046  22745323.800    22745333.4054
  23556471.119    -5177981.792 8  -4019109.77745  23556480.009    23556490.4974
  20794031.937   -21469032.091 9 -16720442.44248  20794035.832    20794044.0704
  22402163.252   -12853280.784 8  -9992239.51346  22402169.397    22402178.4854
 00  5  6  1 24  0.0000000  0  7 17 09 15 21 26 23 29
  21222674.344   -19218654.916 9 -14957781.30747  21222673.425    21222681.6954
  20733784.863   -19842249.483 9 -15426286.18547  20733788.205    20733795.6694
  24086427.001    -1287394.323 7   -981988.38345  24086427.994    24086442.2334
  22730470.188   -11908238.797 8  -9269212.81046  22730472.587    22730481.5034
  23574487.879    -5083375.281 8  -3945390.44945  23574484.757    23574493.2424
  20790079.818   -21489803.679 9 -16736628.07748  20790083.291    20790091.1644
  22389478.736   -12919955.389 8 -10044193.66146  22389481.945    22389490.3444
 00  5  6  1 24 30.0000000  0  8 17 09 03 15 21 26 23 29
  21238563.962   -19135132.005 9 -14892698.56047  21238567.063    21238575.5124
  20734213.210   -19839987.573 9 -15424523.65147  20734218.602    20734225.7574
  24665370.641       27066.56417
  24066469.601    -1392218.015 7  -1063669.02945  24066480.941    24066496.0654
  22715625.596   -11986236.211 8  -9329990.04646  22715630.695    22715639.5514
  23592483.168    -4988758.328 8  -3871663.07745  23592488.885    23592497.2184
  20786172.146   -21510346.429 9 -16752635.36648  20786174.519    20786182.3024
  22376834.399   -12986395.909 8 -10095965.42046  22376838.465    22376846.8984
 00  5  6  1 25  0.0000000  0  8 17 09 03 15 21 26 23 29
  21254544.406   -19051142.880 8 -14827252.52847  21254549.393    21254558.1944
  20734769.080   -19837080.866 9 -15422258.67348  20734772.123    20734779.3514
  24672515.210       64664.086 7
  24046579.063    -1496827.560 7  -1145182.93045  24046575.673    24046587.2734
  22700794.165   -12064183.227 8  -9390727.92946  22700797.330    22700805.5464
  23610487.644    -4894131.701 8  -3797928.12345  23610495.406    23610505.3214
  20782305.804   -21530659.291 9 -16768463.60448  20782308.995    20782316.8364
  22364236.404   -13052602.082 8 -10147554.56246  22364239.046    22364247.8604
 00  5  6  1 25 30.0000000  0  8 17 09 03 15 21 26 23 29
  21270617.178   -18966689.834 8 -14761445.02047  21270620.372    21270629.4654
  20735444.265   -19833529.576 9 -15419491.42848  20735447.562    20735455.2314
  24679757.599      102653.306 7
  24026709.093    -1601220.200 7  -1226527.76545  24026708.617    24026722.4964
  22685967.971   -12142078.453 8  -9451425.39046  22685974.133    22685982.7764
  23628506.022    -4799496.968 8  -3724186.78645  23628503.960    23628513.5284
  20778483.923   -21550741.071 9 -16784111.70948  20778487.350    20778495.3334
  22351683.624   -13118573.815 8 -10198961.03746  22351684.701    22351694.2494
 00  5  6  1 26  0.0000000  0  7 17 09 15 21 26 23 29
  21286772.714   -18881775.133 8 -14695277.76147  21286778.959    21286788.1954
  20736243.246   -19829334.007 9 -15416222.15748  20736245.759    20736253.3844
  24006884.784    -1705393.261 7  -1307701.44745  24006886.325    24006899.4904
  22671158.836   -12219921.183 8  -9512082.08546  22671161.926    22671169.5444
  23646505.720    -4704855.746 8  -3650440.48445  23646513.179    23646523.0354
  20774707.572   -21570590.597 9 -16799578.90548  20774710.418    20774717.9124
  22339173.965   -13184310.862 8 -10250184.61246  22339175.910    22339185.0984
 00  5  6  1 26 30.0000000  0  7 17 09 15 21 26 23 29
  21303022.818   -18796401.260 9 -14628752.71547  21303025.749    21303034.4304
  20737163.378   -19824494.696 9 -15412451.24848  20737166.802    20737174.6414
  23987101.617    -1809343.979 7  -1388701.88545  23987105.115    23987118.5644
  22656355.617   -12297709.427 8  -9572696.23646  22656358.484    22656367.5524
  23664515.553    -4610208.950 7  -3576689.85945  23664523.359    23664533.6514
  20770972.293   -21590206.617 9 -16814864.09848  20770977.010    20770985.0314
  22326706.283   -13249813.175 8 -10301225.30246  22326711.485    22326720.4914
 00  5  6  1 27  0.0000000  0  7 17 09 15 21 26 23 29
  21319355.418   -18710570.663 9 -14561871.77647  21319358.713    21319367.6014
  20738207.502   -19819011.939 9 -15408178.95748  20738210.185    20738217.9754
  23967364.367    -1913069.689 7  -1469527.07945  23967365.985    23967378.3724
  22641560.480   -12375442.486 8  -9633267.36446  22641566.177    22641575.7034
  23682531.736    -4515557.689 8  -3502935.69245  23682536.022    23682545.6704
  20767285.945   -21609588.031 9 -16829966.46448  20767288.799    20767296.8344
  22314289.526   -13315080.547 8 -10352082.91646  22314291.544    22314299.9104
 00  5  6  1 27 30.0000000  0  7 17 09 15 21 26 23 29
  21335774.005   -18624285.802 9 -14494636.86447  21335778.015    21335786.6584
  20739372.744   -19812885.904 9 -15403405.42947  20739375.498    20739383.0664
  23947674.239    -2016567.313 8  -1550174.50645  23947673.200    23947682.9824
  22626783.149   -12453118.966 8  -9693794.36446  22626785.212    22626793.8964
  23700547.641    -4420903.514 8  -3429179.18045  23700549.134    23700557.3864
  20763643.781   -21628733.665 9 -16844885.11748  20763645.771    20763653.3704
  22301912.066   -13380113.016 8 -10402757.48746  22301916.285    22301924.0474
 00  5  6  1 28  0.0000000  0  7 17 09 15 21 26 23 29
  21352281.683   -18537549.041 8 -14427049.82947  21352283.063    21352292.0514
  20740660.441   -19806117.058 9 -15398130.99648  20740663.957    20740671.2754
  23928018.219    -2119834.032 8  -1630642.03045  23928022.438    23928031.9584
  22612014.743   -12530737.857 8  -9754276.59146  22612014.816    22612023.2564
  23718561.149    -4326247.652 8  -3355421.41745  23718561.873    23718570.2044
  20760042.662   -21647642.503 9 -16859619.24548  20760047.804    20760055.0784
  22289578.209   -13444910.159 8 -10453248.70446  22289585.530    22289593.5724
 00  5  6  1 28 30.0000000  0  7 17 09 15 21 26 23 29
  21368867.620   -18450363.043 8 -14359112.74347  21368874.221    21368883.2424
  20742070.579   -19798705.701 9 -15392355.89648  20742074.554    20742081.6174
  23908416.893    -2222867.050 7  -1710927.41145  23908413.996    23908425.9364
  22597252.239   -12608298.367 8  -9814713.34846  22597255.516    22597263.3494
  23736565.514    -4231591.298 8  -3281663.25045  23736573.560    23736582.9444
  20756490.885   -21666313.280 9 -16874167.93148  20756494.849    20756502.2404
  22277294.618   -13509471.971 8 -10503556.54646  22277299.854    22277308.2044
 00  5  6  1 29  0.0000000  0  7 17 09 15 21 26 23 29
  21385547.286   -18362730.117 9 -14290827.41047  21385550.655    21385559.2954
  20743603.098   -19790652.251 9 -15386080.46948  20743606.533    20743614.2644
  23888853.961    -2325663.591 7  -1791028.50945  23888853.320    23888864.8814
  22582503.788   -12685798.953 8  -9875103.36746  22582508.045    22582515.8954
  23754586.899    -4136935.644 8  -3207905.61845  23754585.530    23754595.9274
  20752983.880   -21684744.827 9 -16888530.15548  20752987.045    20752994.6984
  22265054.363   -13573798.428 8 -10553680.97746  22265058.578    22265068.0904
 00  5  6  1 29 30.0000000  0  7 17 09 15 21 26 23 29
  21402307.908   -18274652.830 8 -14222195.80447  21402311.098    21402319.9194
  20745258.946   -19781957.358 9 -15379305.22448  20745261.455    20745268.8514
  23869335.203    -2428220.684 8  -1870943.08345  23869337.966    23869348.5604
  22567768.807   -12763238.250 8  -9935445.58446  22567771.616    22567779.8934
  23772584.857    -4042282.084 8  -3134149.65245  23772597.641    23772607.6834
  20749523.953   -21702936.049 9 -16902705.08948  20749525.691    20749533.3234
  22252856.181   -13637889.337 8 -10603621.86446  22252862.440    22252871.5704
 00  5  6  1 30  0.0000000  0  7 17 09 15 21 26 23 29
  21419150.898   -18186133.514 8 -14153219.76447  21419155.809    21419164.4364
  20747034.488   -19772621.262 9 -15372030.33748  20747037.876    20747045.4984
  23849862.455    -2530535.368 7  -1950668.75445  23849866.772    23849878.7524
  22553041.607   -12840614.806 8  -9995738.91346  22553046.706    22553055.7944
  23790603.560    -3947631.631 8  -3060396.14645  23790608.868    23790618.4594
  20746106.053   -21720885.819 9 -16916691.92648  20746110.000    20746117.4324
  22240708.418   -13701744.544 8 -10653379.10046  22240711.896    22240720.3354
 00  5  6  1 30 30.0000000  0  7 17 09 15 21 26 23 29
  21436082.470   -18097174.668 8 -14083901.22747  21436084.345    21436093.3904
  20748932.239   -19762644.567 9 -15364256.27947  20748936.084    20748943.9134
  23830442.709    -2632604.730 7  -2030203.21145  23830444.237    23830455.6284
  22538330.676   -12917927.464 8 -10055982.54046  22538334.748    22538343.8034
  23808618.040    -3852985.541 8  -2986645.97845  23808620.120    23808628.8684
  20742737.731   -21738593.006 9 -16930489.70348  20742740.127    20742747.8934
  22228599.590   -13765363.895 8 -10702952.58046  22228605.230    22228612.7954
 00  5  6  1 31  0.0000000  0  7 17 09 15 21 26 23 29
  21453093.917   -18007778.970 8 -14014242.29947  21453095.681    21453104.9144
  20750953.213   -19752027.916 9 -15355983.54948  20750956.822    20750964.2274
  23811068.841    -2734425.829 8  -2109544.24545  23811068.737    23811079.7914
  22523630.382   -12995175.546 8 -10116175.84546  22523634.078    22523643.6324
  23826627.410    -3758345.001 8  -2912900.19545  23826628.293    23826638.5744
  20739413.969   -21756056.337 9 -16944097.47348  20739417.144    20739424.8844
  22216539.649   -13828747.447 8 -10752342.27946  22216543.403    22216551.8354
 00  5  6  1 31 30.0000000  0  7 17 09 15 21 26 23 29
  21470184.231   -17917948.959 8 -13944244.94647  21470189.318    21470198.8714
  20753095.300   -19740771.745 9 -15347212.49848  20753098.871    20753106.4694
  23791738.515    -2835995.740 8  -2188689.54045  23791741.098    23791751.3684
  22508943.786   -13072357.304 8 -10176317.38346  22508947.387    22508956.0534
  23844634.213    -3663711.211 8  -2839159.71845  23844636.385    23844647.2644
  20736137.010   -21773274.535 9 -16957514.21148  20736140.514    20736148.6014
  22204525.153   -13891895.172 8 -10801548.23146  22204526.910    22204535.3764
 00  5  6  1 32  0.0000000  0  7 17 09 15 21 26 23 29
  21487360.827   -17827686.932 8 -13873910.95547  21487365.733    21487375.1614
  20755358.570   -19728876.718 9 -15337943.63648  20755362.134    20755370.1264
  23772453.441    -2937311.634 7  -2267636.81145  23772460.332    23772471.7484
  22494269.576   -13149471.539 8 -10236406.36546  22494273.014    22494282.3204
  23862641.121    -3569085.301 8  -2765425.29645  23862643.479    23862654.3244
  20732906.009   -21790246.319 9 -16970738.94848  20732910.739    20732918.6944
  22192550.748   -13954806.765 8 -10850570.19346  22192555.215    22192563.4154
 00  5  6  1 32 30.0000000  0  7 17 09 15 21 26 23 29
  21504621.090   -17736995.499 8 -13803242.35647  21504624.186    21504632.7434
  20757746.233   -19716343.487 9 -15328177.47448  20757747.309    20757754.9244
  23753221.664    -3038370.783 8  -2346384.04745  23753228.510    23753241.3484
  22479606.991   -13226516.861 8 -10296441.58246  22479611.402    22479621.6164
  23880638.539    -3474468.408 8  -2691697.91145  23880648.419    23880658.8964
  20729726.900   -21806970.642 9 -16983770.87548  20729728.251    20729736.4254
  22180626.197   -14017482.251 8 -10899408.17447  22180629.233    22180636.6594
 00  5  6  1 33  0.0000000  0  7 17 09 15 21 26 23 29
  21521961.426   -17645877.139 8 -13732241.08047  21521963.591    21521972.3494
  20760249.021   -19703172.839 9 -15317914.62148  20760253.405    20760261.0594
  23734045.558    -3139170.219 8  -2424928.98445  23734048.634    23734059.5674
  22464960.316   -13303491.931 8 -10356422.02046  22464963.631    22464973.2804
  23898646.780    -3379861.720 8  -2617978.50145  23898652.804    23898661.9514
  20726590.119   -21823446.313 9 -16996609.05048  20726593.179    20726601.0134
  22168743.081   -14079921.534 8 -10948062.09046  22168746.874    22168754.3414
 00  5  6  1 33 30.0000000  0  7 17 09 15 21 26 23 29
  21539381.717   -17554334.632 8 -13660909.29547  21539383.191    21539392.0044
  20762876.335   -19689365.273 9 -15307155.48047  20762880.725    20762888.3804
  23714911.937    -3239707.243 7  -2503269.43945  23714916.421    23714928.3794
  22450326.961   -13380395.477 8 -10416346.73246  22450329.276    22450338.5994
  23916658.054    -3285266.445 8  -2544267.96245  23916654.611    23916663.1884
  20723501.203   -21839672.260 9 -17009252.60648  20723505.611    20723513.2144
  22156908.825   -14142124.398 8 -10996531.80347  22156910.387    22156917.9594
 00  5  6  1 34  0.0000000  0  7 17 09 15 21 26 23 29
  21556878.833   -17462370.401 8 -13589248.89947  21556883.888    21556892.4104
  20765626.641   -19674921.401 9 -15295900.51147  20765629.600    20765636.8804
  23695829.372    -3339979.093 7  -2581403.14245  23695835.153    23695847.2584
  22435709.180   -13457226.400 8 -10476214.82546  22435708.799    22435718.3714
  23934650.412    -3190683.594 8  -2470567.13645  23934652.416    23934662.3184
  20720463.285   -21855647.213 9 -17021700.60648  20720466.288    20720472.9924
  22145112.635   -14204091.154 8 -11044817.53647  22145118.473    22145125.5044
 00  5  6  1 34 30.0000000  0  7 17 09 15 21 26 23 29
  21574461.035   -17369986.992 8 -13517261.88047  21574463.870    21574472.7344
  20768495.379   -19659842.228 9 -15284150.49647  20768498.897    20768506.4414
  23676800.859    -3439982.632 8  -2659327.91445  23676804.522    23676817.7894
  22421096.734   -13533983.263 8 -10536025.22946  22421101.732    22421111.5824
  23952638.581    -3096114.255 8  -2396876.80245  23952648.205    23952658.6464
  20717470.526   -21871370.099 9 -17033952.17448  20717473.978    20717481.1824
  22133367.125   -14265821.447 8 -11092919.01647  22133371.627    22133378.2144
 00  5  6  1 35  0.0000000  0  7 17 09 15 21 26 23 29
  21592119.104   -17277187.103 8 -13444950.33647  21592122.759    21592132.2084
  20771484.685   -19644128.485 9 -15271906.01147  20771489.009    20771497.0774
  23657823.398    -3539714.940 8  -2737041.21845  23657825.629    23657838.4374
  22406506.429   -13610664.917 8 -10595777.14346  22406509.935    22406519.4184
  23970636.688    -3001559.641 8  -2323197.94945  23970640.935    23970651.2234
  20714527.335   -21886839.696 9 -17046006.38348  20714530.429    20714537.6004
  22121663.728   -14327315.321 8 -11140836.25546  22121669.001    22121676.1914
 00  5  6  1 35 30.0000000  0  7 17 09 15 21 26 23 29
  21609859.256   -17183973.479 8 -13372316.37647  21609861.037    21609869.5624
  20774595.898   -19627780.899 9 -15259167.63247  20774600.074    20774607.3364
  23638891.453    -3639173.217 8  -2814541.00445  23638898.897    23638912.0914
  22391930.445   -13687269.388 8 -10655468.79546  22391933.148    22391941.5174
  23988631.254    -2907020.846 8  -2249531.41945  23988631.529    23988641.3354
  20711632.614   -21902054.822 9 -17057862.31648  20711635.129    20711642.3914
  22110008.876   -14388572.618 8 -11188569.14846  22110012.296    22110019.4674
 00  5  6  1 36  0.0000000  0  7 17 09 15 21 26 23 29
  21627677.705   -17090348.745 8 -13299362.09547  21627677.493    21627686.2664
  20777826.292   -19610799.959 9 -15245935.72447  20777830.990    20777838.4154
  23620023.782    -3738354.263 8  -2891824.76245  23620025.497    23620037.7464
  22377361.956   -13763795.737 8 -10715099.56346  22377369.692    22377379.7834
  24006609.618    -2812499.081 7  -2175878.18645  24006618.473    24006628.5194
  20708785.105   -21917014.163 9 -17069518.91648  20708787.909    20708795.5654
  22098396.594   -14449593.513 8 -11236117.85747  22098400.903    22098408.1954
 00  5  6  1 36 30.0000000  0  7 17 09 15 21 26 23 29
  21645565.277   -16996315.354 8 -13226089.36447  21645570.930    21645580.2274
  20781178.800   -19593186.858 9 -15232211.22147  20781182.861    20781190.3014
  23601201.271    -3837255.601 8  -2968890.59345  23601206.182    23601216.5534
  22362821.061   -13840242.786 8 -10774668.62847  22362822.473    22362832.2184
  24024605.331    -2717995.201 8  -2102238.89345  24024602.098    24024612.0264
  20705987.539   -21931716.566 9 -17080975.34548  20705990.327    20705997.6624
  22086828.193   -14510377.643 8 -11283482.04147  22086833.394    22086842.2344
 00  5  6  1 37  0.0000000  0  7 17 09 15 21 26 23 29
  21663541.595   -16901876.135 8 -13152500.41647  21663542.654    21663551.4624
  20784650.687   -19574942.420 9 -15217994.76647  20784654.764    20784662.1454
  23582438.276    -3935874.297 8  -3045736.24845  23582440.807    23582451.3484
  22348288.419   -13916608.873 8 -10834174.63646  22348290.323    22348299.7754
  24042567.857    -2623510.425 7  -2028614.46145  24042581.302    24042591.8274
  20703238.537   -21946160.859 9 -17092230.63348  20703241.465    20703249.0854
  22075308.284   -14570925.212 8 -11330661.90147  22075311.310    22075319.4544
 00  5  6  1 37 30.0000000  0  7 17 09 15 21 26 23 29
  21681590.178   -16807034.016 8 -13078597.52747  21681590.350    21681599.4964
  20788243.696   -19556067.578 9 -15203287.09547  20788246.080    20788254.1094
  23563730.369    -4034207.328 8  -3122359.29645  23563727.439    23563737.9634
  22333769.237   -13992892.532 8 -10893616.34247  22333774.160    22333782.8424
  24060554.216    -2529045.794 8  -1955005.71845  24060557.456    24060567.5664
  20700539.182   -21960345.906 9 -17103283.86748  20700542.122    20700549.5394
  22063832.918   -14631236.158 8 -11377657.38747  22063835.058    22063842.3684
 00  5  6  1 38  0.0000000  0  7 17 09 15 21 26 23 29
  21699709.304   -16711791.479 8 -13004382.61047  21699713.924    21699723.1894
  20791955.621   -19536563.203 9 -15188088.86847  20791958.186    20791965.8744
  23545066.674    -4132251.873 8  -3198757.50245  23545069.423    23545081.5324
  22319271.776   -14069092.567 8 -10952993.06347  22319274.319    22319282.8034
  24078522.478    -2434602.212 7  -1881413.40645  24078530.186    24078539.5704
  20697888.119   -21974270.529 9 -17114134.21648  20697892.211    20697899.6724
  22052394.924   -14691310.352 8 -11424468.39747  22052402.346    22052409.7744
 00  5  6  1 38 30.0000000  0  7 17 09 15 21 26 23 29
  21717910.787   -16616151.328 8 -12929857.87347  21717914.369    21717923.2054
  20795787.216   -19516430.139 9 -15172400.75647  20795789.227    20795797.3174
  23526461.556    -4230005.120 8  -3274928.76345  23526468.437    23526479.1774
  22304785.046   -14145207.423 8 -11012303.11147  22304789.876    22304798.9494
  24096492.791    -2340180.859 8  -1807838.42445  24096498.239    24096508.1094
  20695289.747   -21987933.422 9 -17124780.58748  20695292.521    20695299.5024
  22041011.649   -14751148.007 8 -11471095.07246  22041015.317    22041023.6104
 00  5  6  1 39  0.0000000  0  7 17 09 15 21 26 23 29
  21736184.956   -16520116.182 8 -12855025.34947  21736189.269    21736198.0864
  20799734.007   -19495669.486 9 -15156223.61447  20799739.452    20799747.7074
  23507920.114    -4327463.928 8  -3350870.70045  23507922.930    23507933.6374
  22290322.102   -14221236.054 9 -11071546.25047  22290322.530    22290331.9674
  24114454.119    -2245782.752 8  -1734281.54945  24114461.866    24114470.3694
  20692738.704   -22001333.420 9 -17135222.11248  20692742.137    20692749.5434
  22029671.613   -14810748.886 8 -11517537.23747  22029673.780    22029682.7174
 00  5  6  1 39 30.0000000  0  7 17 09 15 21 26 23 29
  21754535.401   -16423688.732 8 -12779887.12747  21754538.431    21754547.7054
  20803807.199   -19474282.414 9 -15139558.36547  20803809.734    20803817.3194
  23489434.000    -4424625.480 8  -3426580.88545  23489433.286    23489445.3684
  22275863.740   -14297176.543 8 -11130720.74047  22275871.086    22275880.4414
  24132418.579    -2151409.000 8  -1660743.62545  24132420.272    24132430.1814
  20690241.802   -22014469.396 9 -17145457.91348  20690242.794    20690250.1444
  22018370.844   -14870113.014 8 -11563794.92946  22018376.630    22018384.9354
 00  5  6  1 40  0.0000000  0  7 17 09 15 21 26 23 29
  21772956.716   -16326871.605 8 -12704445.27046  21772961.331    21772971.4954
  20807994.535   -19452269.670 9 -15122405.57747  20807999.061    20808005.9404
  23470997.079    -4521487.053 8  -3502057.33445  23471000.897    23471012.0334
  22261435.880   -14373027.804 8 -11189825.56247  22261437.269    22261446.1454
  24150366.689    -2057060.377 7  -1587225.29045  24150372.772    24150383.3124
  20687792.002   -22027340.071 9 -17155486.96948  20687793.668    20687800.8234
  22007123.158   -14929240.372 8 -11609868.12747  22007126.127    22007133.3634
 00  5  6  1 40 30.0000000  0  7 17 09 15 21 26 23 29
  21791454.028   -16229667.532 8 -12628701.87347  21791459.662    21791469.0424
  20812301.094   -19429632.457 9 -15104766.18747  20812306.691    20812313.6654
  23452621.170    -4618045.634 8  -3577297.70045  23452625.505    23452635.8084
  22247017.717   -14448788.429 8 -11248859.84047  22247020.768    22247029.8414
  24168320.854    -1962738.149 8  -1513727.51545  24168321.465    24168331.6644
  20685392.817   -22039944.168 9 -17165308.32348  20685395.163    20685402.2304
  21995915.399   -14988131.084 8 -11655756.94047  21995919.525    21995926.2754
 00  5  6  1 41  0.0000000  0  7 17 09 15 21 26 23 29
  21810024.245   -16132079.322 8 -12552659.16647  21810030.100    21810040.0174
  20816729.108   -19406371.717 9 -15086640.92647  20816732.419    20816740.1864
  23434307.990    -4714298.364 8  -3652299.68845  23434308.754    23434319.5384
  22232616.337   -14524457.313 8 -11307822.82547  22232621.546    22232630.0624
  24186272.579    -1868443.133 7  -1440250.97745  24186265.936    24186276.0904
  20683042.703   -22052280.563 9 -17174921.10848  20683047.345    20683054.6684
  21984758.033   -15046785.194 8 -11701461.39447  21984758.658    21984766.0844
 00  5  6  1 41 30.0000000  0  7 17 09 15 21 26 23 29
  21828669.771   -16034109.580 8 -12476319.16947  21828673.079    21828682.6294
  20821273.285   -19382488.547 9 -15068030.66347  20821277.161    20821285.0884
  23416049.024    -4810242.118 8  -3727060.91445  23416051.693    23416062.1954
  22218236.911   -14600032.034 8 -11366712.21947  22218239.954    22218248.8314
  24204213.147    -1774176.373 8  -1366796.44445  24204205.324    24204213.8794
  20680748.084   -22064347.922 9 -17184324.21248  20680750.928    20680758.3224
  21973637.038   -15105202.444 8 -11746981.25247  21973640.583    21973649.6174
 00  5  6  1 42  0.0000000  0  7 17 09 15 21 26 23 29
  21847387.008   -15935761.254 8 -12399684.15947  21847388.900    21847397.9154
  20825937.165   -19357984.106 9 -15048936.29347  20825940.468    20825948.1104
  23397849.849    -4905874.142 8  -3801579.22345  23397854.253    23397862.5254
  22203871.947   -14675511.493 8 -11425527.27447  22203876.260    22203885.9124
  24222131.703    -1679938.857 7  -1293364.67745  24222137.676    24222147.5534
  20678503.806   -22076145.240 9 -17193516.92448  20678505.879    20678513.4314
  21962565.427   -15163382.989 8 -11792316.67447  21962569.338    21962577.9644
 00  5  6  1 42 30.0000000  0  7 17 09 15 21 26 23 29
  21866172.490   -15837037.066 8 -12322756.27247  21866175.709    21866183.8694
  20830717.244   -19332859.804 9 -15029358.91047  20830721.789    20830729.2014
  23379715.243    -5001191.555 8  -3875852.41345  23379715.380    23379726.1924
  22189529.539   -14750893.472 8 -11484266.32047  22189532.080    22189540.3174
  24240065.143    -1585731.599 8  -1219956.50545  24240065.908    24240075.1794
  20676309.726   -22087671.231 9 -17202498.18348  20676312.462    20676320.1574
  21951540.764   -15221327.022 8 -11837467.80247  21951543.556    21951551.2354
 00  5  6  1 43  0.0000000  0  7 17 09 15 21 26 23 29
  21885029.433   -15737939.815 8 -12245537.68847  21885033.329    21885042.1024
  20835617.539   -19307116.447 9 -15009299.14848  20835620.711    20835628.0624
  23361631.906    -5096191.456 8  -3949878.14645  23361635.871    23361646.4194
  22175201.589   -14826177.420 8 -11542928.98747  22175205.608    22175214.1804
  24257990.916    -1491555.478 8  -1146572.61545  24257987.383    24257995.3614
  20674168.127   -22098924.878 9 -17211267.23648  20674171.116    20674178.6934
  21940559.345   -15279034.249 8 -11882434.40747  21940562.188    21940570.6484
 00  5  6  1 43 30.0000000  0  7 17 09 15 21 26 23 29
  21903954.533   -15638472.264 8 -12168030.55646  21903960.273    21903969.3024
  20840631.083   -19280755.405 9 -14988758.07748  20840636.966    20840644.5304
  23343621.172    -5190871.116 8  -4023654.37145  23343619.529    23343630.2244
  22160893.925   -14901361.579 8 -11601513.77547  22160898.326    22160906.7844
  24275896.564    -1397411.599 8  -1073213.79545  24275901.668    24275911.4874
  20672077.101   -22109904.872 9 -17219823.07848  20672081.734    20672089.1184
  21929623.002   -15336505.050 8 -11927216.78447  21929625.359    21929634.0234
 00  5  6  1 44  0.0000000  0  7 17 09 15 21 26 23 29
  21922955.588   -15538637.187 8 -12090237.04346  21922958.836    21922968.1214
  20845768.365   -19253778.075 9 -14967736.77948  20845770.757    20845778.4914
  23325659.556    -5285227.361 8  -4097178.57845  23325664.881    23325673.5994
  22146605.612   -14976445.086 8 -11660020.41047  22146610.145    22146619.6804
  24293814.394    -1303300.755 8   -999880.75745  24293810.882    24293821.0094
  20670040.860   -22120609.938 9 -17228164.67848  20670044.744    20670052.1514
  21918728.191   -15393739.072 8 -11971814.67247  21918734.120    21918742.0664
 00  5  6  1 44 30.0000000  0  7 17 09 15 21 26 23 29
  21942023.472   -15438437.472 8 -12012159.41947  21942026.763    21942035.6284
  20851016.917   -19226185.864 9 -14946236.35548  20851021.494    20851028.9124
  23307766.311    -5379257.343 8  -4170448.57145  23307770.066    23307780.7394
  22132339.044   -15051425.618 8 -11718446.75547  22132342.462    22132350.6134
  24311708.258    -1209223.853 8   -926574.18545  24311714.188    24311723.3204
  20668056.894   -22131038.872 9 -17236291.07648  20668059.928    20668067.4424
  21907884.329   -15450736.717 8 -12016228.36447  21907887.864    21907895.2374
 00  5  6  1 45  0.0000000  0  7 17 09 15 21 26 23 29
  21961160.381   -15337875.993 8 -11933799.88447  21961163.102    21961172.0664
  20856385.231   -19197979.677 9 -14924257.50148  20856388.981    20856396.2094
  23289935.214    -5472958.545 8  -4243462.37945  23289938.242    23289949.6034
  22118091.149   -15126302.075 8 -11776792.06247  22118093.500    22118102.3854
  24329600.515    -1115181.853 8   -853294.80245  24329608.477    24329619.2684
  20666124.146   -22141190.519 9 -17244201.45348  20666128.031    20666135.7664
  21897085.278   -15507497.734 8 -12060457.67747  21897087.171    21897094.2944
 00  5  6  1 45 30.0000000  0  7 17 09 15 21 26 23 29
  21980363.166   -15236955.478 8 -11855160.56647  21980367.315    21980376.4404
  20861868.531   -19169160.734 9 -14901801.17848  20861872.559    20861880.3594
  23272163.498    -5566327.895 7  -4316217.69745  23272170.844    23272181.5794
  22103861.186   -15201072.398 8 -11835054.40947  22103864.836    22103873.5684
  24347488.778    -1021175.699 7   -780043.32745  24347496.973    24347507.8694
  20664243.829   -22151063.595 9 -17251894.71248  20664249.210    20664257.1744
  21886327.509   -15564022.386 8 -12104502.79347  21886329.728    21886337.2934
 00  5  6  1 46  0.0000000  0  8 17 09 15 21 26 23 29 05
  21999635.537   -15135679.021 8 -11776243.90646  21999639.255    21999648.6004
  20867468.470   -19139730.626 9 -14878868.62748  20867473.013    20867480.8394
  23254466.805    -5659362.323 8  -4388712.04745  23254468.774    23254477.2364
  22089654.097   -15275735.564 8 -11893233.28847  22089656.625    22089664.7164
  24365367.060     -927206.288 7   -706820.49045  24365378.447    24365389.8684
  20662418.636   -22160657.049 9 -17259370.15648  20662423.840    20662431.5054
  21875613.448   -15620310.587 8 -12148363.66847  21875618.459    21875626.4544
  24575352.762
 00  5  6  1 46 30.0000000  0  8 17 09 15 21 26 23 29 05
  22018976.787   -15034049.423 8 -11697052.08246  22018979.214    22018987.9634
  20873184.931   -19109690.484 9 -14855460.73247  20873189.522    20873197.0144
  23236816.711    -5752058.686 8  -4460942.83945  23236828.190    23236837.7624
  22075465.526   -15350290.397 8 -11951328.02147  22075469.010    22075477.5454
  24383250.384     -833274.510 7   -633627.00345  24383253.792    24383263.2204
  20660648.451   -22169969.633 9 -17266626.75548  20660651.767    20660659.1134
  21864949.279   -15676362.545 8 -12192040.47747  21864952.802    21864960.1014
  24559990.972      -90072.32217
 00  5  6  1 47  0.0000000  0  8 17 09 15 21 26 23 29 05
  22038382.522   -14932069.235 8 -11617587.04446  22038385.349    22038394.0914
  20879018.182   -19079041.726 9 -14831578.58847  20879021.948    20879029.1644
  23219247.215    -5844414.341 8  -4532908.08445  23219251.241    23219264.4304
  22061297.909   -15424734.966 8 -12009336.89647  22061302.708    22061311.8464
  24401111.401     -739381.230 7   -560463.50345  24401119.961    24401129.9354
  20658930.611   -22179000.208 9 -17273663.56048  20658933.260    20658940.7314
  21854327.506   -15732178.328 8 -12235533.23647  21854331.297    21854338.3724
  24544652.845     -170675.684 7
 00  5  6  1 47 30.0000000  0  8 17 09 15 21 26 23 29 05
  22057854.837   -14829741.405 8 -11537851.13246  22057857.650    22057866.8544
  20884965.080   -19047785.987 9 -14807223.47047  20884969.393    20884976.9654
  23201740.999    -5936426.808 8  -4604605.96345  23201745.008    23201753.8744
  22047154.795   -15499067.571 8 -12067258.48947  22047158.019    22047167.3694
  24418976.637     -645527.385 7   -487330.72845  24418979.928    24418991.0054
  20657264.839   -22187747.410 9 -17280479.54448  20657268.877    20657276.1404
  21843749.818   -15787757.654 8 -12278841.72247  21843754.710    21843762.0194
  24529317.581     -251232.216 7   -180606.32354  24529324.221    24529338.4024
 00  5  6  1 48  0.0000000  0  8 17 09 15 21 26 23 29 05
  22077392.393   -14727068.770 8 -11457846.53846  22077395.473    22077404.8904
  20891029.843   -19015924.613 9 -14782396.43347  20891032.542    20891040.1634
  23184299.436    -6028092.992 8  -4676034.08845  23184300.192    23184309.8514
  22033032.154   -15573286.416 8 -12125091.48747  22033035.484    22033043.3394
  24436827.141     -551713.790 7   -414229.29645  24436833.325    24436843.3314
  20655653.779   -22196210.074 9 -17287073.82448  20655658.344    20655665.9514
  21833215.567   -15843100.977 8 -12321966.33047  21833223.185    21833230.2854
  24513992.992     -331738.883 7   -243338.56045  24514005.452    24514017.2914
 00  5  6  1 48 30.0000000  0  8 17 09 15 21 26 23 29 05
  22096990.332   -14624054.205 8 -11377575.50046  22096998.371    22097008.0894
  20897209.931   -18983459.095 9 -14757098.63647  20897210.638    20897218.0244
  23166924.956    -6119409.755 8  -4747189.87946  23166924.552    23166935.1884
  22018928.839   -15647389.310 8 -12182833.68147  22018932.921    22018942.1674
  24454672.271     -457941.307 7   -341159.91145  24454678.258    24454687.4184
  20654098.881   -22204386.939 9 -17293445.40548  20654102.296    20654110.1514
  21822734.784   -15898208.114 8 -12364906.89747  21822737.080    21822743.7424
  24498691.540     -412192.903 7   -306029.72745  24498695.190    24498706.6724
 00  5  6  1 49  0.0000000  0  8 17 09 15 21 26 23 29 05
  22116662.294   -14520700.698 8 -11297040.38546  22116665.962    22116675.8054
  20903498.415   -18950390.974 9 -14731331.27447  20903503.070    20903510.5584
  23149608.831    -6210374.103 8  -4818070.88445  23149612.962    23149623.3344
  22004847.494   -15721375.958 8 -12240485.48847  22004853.416    22004862.6464
  24472504.131     -364210.785 7   -268123.22445  24472513.458    24472524.0114
  20652598.246   -22212276.809 9 -17299593.34148  20652601.037    20652608.5924
  21812293.417   -15953079.343 9 -12407663.63747  21812295.687    21812302.1084
  24483397.561     -492591.254 7   -368677.52544  24483396.834    24483407.9914
 00  5  6  1 49 30.0000000  0  8 17 09 15 21 26 23 29 05
  22136393.874   -14417011.179 8 -11216243.41446  22136397.265    22136406.0904
  20909907.365   -18916721.609 9 -14705095.41747  20909910.207    20909917.9374
  23132368.092    -6300983.540 8  -4888675.53345  23132371.387    23132378.9344
  21990791.086   -15795244.242 8 -12298045.03647  21990797.058    21990805.7014
  24490340.548     -270523.065 7   -195119.91145  24490342.134    24490353.2084
  20651151.466   -22219878.514 9 -17305516.73848  20651154.299    20651161.5754
  21801893.749   -16007714.526 8 -12450236.46447  21801898.385    21801905.5164
  24468104.868     -572931.018 7   -431279.68544  24468106.152    24468119.3734
 00  5  6  1 50  0.0000000  0  8 17 09 15 21 26 23 29 05
  22156189.425   -14312988.440 8 -11135186.78446  22156192.741    22156201.6894
  20916426.146   -18882452.396 9 -14678392.14647  20916431.180    20916438.9644
  23115194.693    -6391235.605 8  -4959001.80446  23115197.038    23115207.0664
  21976759.607   -15868992.274 8 -12355510.74047  21976763.483    21976771.8734
  24508165.073     -176878.919 7   -122150.51245  24508162.373    24508173.0174
  20649759.339   -22227190.964 9 -17311214.74848  20649762.721    20649770.0814
  21791543.445   -16062114.044 8 -12492625.64647  21791546.795    21791553.2034
  24452819.195     -653209.234 7   -493833.82945  24452829.964    24452843.0404
 00  5  6  1 50 30.0000000  0  8 17 09 15 21 26 23 29 05
  22176046.700   -14208635.377 8 -11053872.78046  22176050.100    22176060.4204
  20923062.925   -18847585.052 9 -14651222.78547  20923066.081    20923073.9304
  23098092.268    -6481127.085 8  -5029047.18346  23098091.501    23098102.5454
  21962750.634   -15942618.621 8 -12412881.68947  21962752.406    21962761.7464
  24525960.248      -83279.366 7    -49215.86545  24525974.126    24525985.3624
  20648422.127   -22234213.014 9 -17316686.45848  20648426.550    20648433.9894
  21781236.710   -16116277.788 8 -12534831.11347  21781239.547    21781246.4364
  24437561.184     -733422.679 7   -556337.53045  24437566.195    24437580.9224
 00  5  6  1 51  0.0000000  0  8 17 09 15 21 26 23 29 05
  22195968.382   -14103954.835 8 -10972303.59346  22195970.423    22195979.8384
  20929812.668   -18812121.041 9 -14623588.50147  20929814.586    20929822.3654
  23081049.078    -6570654.745 8  -5098809.16346  23081054.964    23081063.7164
  21948764.707   -16016122.435 8 -12470157.46247  21948764.975    21948774.7744
  24543785.116       10274.860 7     23683.45745  24543775.523    24543786.2774
  20647143.418   -22240943.389 9 -17321930.89248  20647146.045    20647153.1364
  21770972.284   -16170205.974 8 -12576853.02447  21770976.754    21770984.9414
  24422315.142     -813568.326 7   -618788.45345  24422314.257    24422326.9754
 00  5  6  1 51 30.0000000  0  8 17 09 15 21 26 23 29 05
  22215951.506   -13998949.661 8 -10890481.44046  22215952.520    22215961.2614
  20936672.350   -18776061.977 9 -14595490.54047  20936676.647    20936684.3994
  23064089.378    -6659815.609 8  -5168285.11146  23064088.174    23064098.2444
  21934796.320   -16089501.335 8 -12527335.91147  21934801.948    21934810.5494
  24561562.469      103783.024 7     96546.90545  24561569.633    24561580.1394
  20645918.112   -22247380.836 9 -17326947.06848  20645920.733    20645928.3364
  21760757.561   -16223898.487 8 -12618691.27447  21760759.830    21760766.9904
  24407069.225     -893643.557 7   -681184.53245  24407076.590    24407090.6034
 00  5  6  1 52  0.0000000  0  8 17 09 15 21 26 23 29 05
  22235991.999   -13893622.775 8 -10808408.60646  22235995.410    22236004.4214
  20943648.078   -18739409.472 9 -14566930.16347  20943651.364    20943659.3464
  23047184.959    -6748607.213 8  -5237473.24046  23047192.082    23047201.8904
  21920861.094   -16162753.203 9 -12584415.02547  21920862.832    21920870.6914
  24579357.692      197244.328 7    169373.84045  24579353.376    24579365.1514
  20644748.324   -22253524.220 9 -17331734.12248  20644751.399    20644759.2444
  21750582.072   -16277355.578 8 -12660346.08847  21750587.351    21750594.3254
  24391845.342     -973645.271 7   -743523.21645  24391852.355    24391866.5694
 00  5  6  1 52 30.0000000  0  8 17 09 15 21 26 23 29 05
  22256094.099   -13787977.385 8 -10726087.59246  22256099.288    22256108.4944
  20950734.203   -18702165.256 9 -14537908.71647  20950738.603    20950746.6704
  23030360.450    -6837027.039 8  -5306371.75946  23030366.513    23030375.8654
  21906943.751   -16235877.622 8 -12641395.10247  21906947.421    21906955.4644
  24597124.727      290657.972 7    242163.60745  24597130.820    24597140.5714
  20643636.460   -22259372.301 9 -17336291.05348  20643638.810    20643646.5984
  21740456.892   -16330577.197 8 -12701817.43647  21740460.036    21740466.3794
  24376632.660    -1053570.603 7   -805802.45045  24376642.475    24376656.9284
 00  5  6  1 53  0.0000000  0  8 17 09 15 21 26 23 29 05
  22276255.410   -13682016.473 8 -10643520.69746  22276262.621    22276272.6384
  20957934.596   -18664330.813 9 -14508427.33947  20957938.374    20957945.8634
  23013611.768    -6925071.956 8  -5374978.09346  23013611.149    23013621.7774
  21893055.957   -16308872.195 9 -12698274.09347  21893057.193    21893065.0454
  24614880.343      384023.175 7    314915.66545  24614898.027    24614908.9724
  20642579.028   -22264923.947 9 -17340616.99848  20642582.466    20642590.0514
  21730373.634   -16383563.739 8 -12743105.58947  21730376.458    21730383.2354
  24361445.715    -1133416.505 7   -868019.77045  24361447.581    24361460.0364
 00  5  6  1 53 30.0000000  0  8 17 09 15 21 26 23 29 05
  22296481.764   -13575742.895 8 -10560710.19346  22296485.551    22296495.8834
  20965246.105   -18625907.823 9 -14478487.36547  20965250.017    20965257.8394
  22996927.240    -7012739.084 8  -5443290.04346  22996929.406    22996938.9184
  21879191.237   -16381735.280 8 -12755050.59347  21879191.625    21879200.4054
  24632658.926      477339.101 7    387629.32945  24632656.575    24632665.8914
  20641579.502   -22270177.956 9 -17344711.02548  20641582.768    20641589.9434
  21720335.071   -16436315.133 8 -12784210.51647  21720337.513    21720345.2014
  24346269.458    -1213179.921 7   -930172.88245  24346269.819    24346281.0774
 00  5  6  1 54  0.0000000  0  8 17 09 15 21 26 23 29 05
  22316764.908   -13469159.466 8 -10477658.26046  22316768.301    22316777.3454
  20972668.640   -18586897.845 9 -14448089.99247  20972673.396    20972680.8794
  22980318.780    -7100025.586 8  -5511305.53146  22980319.487    22980328.1004
  21865347.232   -16454464.755 8 -12811722.75547  21865351.790    21865359.7594
  24650398.082      570605.115 7    460304.06245  24650403.570    24650413.8894
  20640638.289   -22275133.213 9 -17348572.24248  20640639.839    20640647.1104
  21710341.190   -16488831.552 8 -12825132.34147  21710343.897    21710351.8944
  24331099.853    -1292857.886 7   -992259.37945  24331107.429    24331120.9304
 00  5  6  1 54 30.0000000  0  8 17 09 15 21 26 23 29 05
  22337105.430   -13362269.106 8 -10394367.12146  22337108.141    22337117.5954
  20980205.899   -18547302.952 9 -14417236.84847  20980208.331    20980215.6264
  22963778.595    -7186928.565 8  -5579022.07746  22963781.290    22963791.8284
  21851532.583   -16527059.617 9 -12868290.09447  21851537.095    21851545.8824
  24668141.500      663820.301 7    532939.20645  24668143.001    24668152.7834
  20639750.999   -22279788.405 9 -17352199.63448  20639754.058    20639761.2894
  21700392.773   -16541113.019 8 -12865871.09647  21700394.918    21700402.2684
  24315957.709    -1372447.228 7  -1054276.81545  24315962.795    24315975.4824
 00  5  6  1 55  0.0000000  0  8 17 09 15 21 26 23 29 05
  22357502.638   -13255074.731 8 -10310839.11846  22357507.759    22357516.3834
  20987850.067   -18507124.813 9 -14385929.21447  20987853.923    20987861.5884
  22947314.323    -7273445.146 8  -5646437.49946  22947318.087    22947327.9354
  21837746.595   -16599517.677 9 -12924750.85347  21837749.453    21837757.3834
  24685873.131      756983.967 7    605534.23645  24685870.763    24685882.1274
  20638923.340   -22284142.383 9 -17355592.33648  20638925.453    20638932.6404
  21690488.447   -16593159.742 8 -12906426.94247  21690491.741    21690498.3664
  24300819.355    -1451944.945 7  -1116222.84645  24300833.337    24300847.6214
 00  5  6  1 55 30.0000000  0  8 17 09 15 21 26 23 29 05
  22377959.058   -13147579.373 8 -10227076.58846  22377963.474    22377972.6734
  20995606.144   -18466365.243 9 -14354168.51247  20995609.875    20995617.6414
  22930924.831    -7359572.620 8  -5713549.76246  22930929.259    22930938.4294
  21823983.818   -16671837.490 9 -12981103.94347  21823987.762    21823995.5174
  24703586.887      850095.418 7    678088.58045  24703588.357    24703599.6254
  20638150.640   -22288194.113 9 -17358749.53248  20638154.507    20638161.4874
  21680628.964   -16644971.653 8 -12946799.82547  21680631.420    21680639.4104
  24285728.495    -1531348.224 7  -1178095.26545  24285723.730    24285738.2544
 00  5  6  1 56  0.0000000  0  8 17 09 15 21 26 23 29 05
  22398469.275   -13039786.103 8 -10143081.89746  22398475.274    22398485.3954
  21003473.931   -18425025.958 9 -14321956.09047  21003476.931    21003484.3914
  22914606.238    -7445308.064 8  -5780356.48346  22914612.212    22914624.8574
  21810250.105   -16744017.453 9 -13037348.06947  21810252.197    21810259.2944
  24721305.360      943153.875 7    750601.59045  24721298.528    24721307.4194
  20637439.358   -22291942.344 9 -17361670.22348  20637440.965    20637448.4164
  21670813.103   -16696549.308 8 -12986990.14447  21670816.516    21670824.0054
  24270627.193    -1610653.938 7  -1239891.69145  24270632.126    24270644.6544
 00  5  6  1 56 30.0000000  0  8 17 09 15 21 26 23 29 05
  22419042.207   -12931697.749 8 -10058857.29946  22419043.637    22419053.1384
  21011449.041   -18383108.602 9 -14289293.22947  21011453.363    21011461.0144
  22898369.469    -7530648.853 8  -5846855.65045  22898371.194    22898383.4784
  21796540.255   -16816055.853 9 -13093481.84047  21796543.881    21796551.7214
  24738990.309     1036158.681 7    823072.81645  24738995.280    24739006.0354
  20636782.449   -22295386.036 9 -17364353.64648  20636785.563    20636793.1174
  21661042.751   -16747892.546 8 -13026997.81547  21661046.127    21661054.0134
  24255561.499    -1689859.059 7  -1301609.75545  24255557.855    24255572.9304
 00  5  6  1 57  0.0000000  0  8 17 09 15 21 26 23 29 05
  22439661.348   -12823317.462 8  -9974405.18046  22439667.446    22439677.5844
  21019536.466   -18340615.047 9 -14256181.37247  21019539.652    21019547.3634
  22882205.568    -7615592.047 8  -5913045.05446  22882209.687    22882219.8034
  21782861.269   -16887950.687 9 -13149503.78047  21782862.107    21782870.5044
  24756682.387     1129109.134 7    895501.72145  24756684.198    24756692.9884
  20636185.069   -22298523.743 9 -17366798.60248  20636188.553    20636195.6284
  21651318.346   -16799001.420 8 -13066822.85347  21651320.375    21651328.1534
  24240508.219    -1768960.698 7  -1363247.10645  24240505.490    24240521.6654
 00  5  6  1 57 30.0000000  0  8 17 09 15 21 26 23 29 05
  22460344.984   -12714648.000 8  -9889727.79546  22460347.762    22460357.7104
  21027731.632   -18297547.391 9 -14222622.16747  21027735.409    21027743.0324
  22866116.113    -7700134.846 8  -5978922.42846  22866121.094    22866132.0324
  21769205.072   -16959700.300 9 -13205412.55747  21769208.576    21769217.0184
  24774358.881     1222004.403 7    967887.60845  24774361.395    24774371.3844
  20635648.136   -22301354.372 9 -17369004.28048  20635649.946    20635656.9974
  21641633.207   -16849876.246 8 -13106465.53647  21641639.260    21641646.8544
  24225467.167    -1847955.629 7  -1424801.34645  24225474.629    24225486.9084
 00  5  6  1 58  0.0000000  0  8 17 09 15 21 26 23 29 05
  22481076.238   -12605692.432 8  -9804827.42546  22481080.832    22481090.1304
  21036037.027   -18253907.254 9 -14188616.88347  21036039.910    21036047.1304
  22850106.830    -7784274.881 8  -6044486.07845  22850108.417    22850118.5154
  21755579.469   -17031302.837 9 -13261206.75447  21755582.643    21755591.3094
  24792024.698     1314843.919 7   1040230.02745  24792028.528    24792038.0694
  20635166.467   -22303876.837 9 -17370969.82148  20635169.600    20635177.2934
  21631999.378   -16900517.098 8 -13145925.86747  21632002.791    21632010.7644
  24210461.109    -1926840.908 7  -1486270.13945  24210463.198    24210476.1694
 00  5  6  1 58 30.0000000  0  7 17 09 15 21 23 29 05
  22501865.228   -12496453.809 8  -9719706.49946  22501869.385    22501878.2474
  21044450.565   -18209696.528 9 -14154166.97947  21044453.251    21044460.2684
  22834167.557    -7868008.964 8  -6109733.54945  22834174.906    22834184.6994
  21741981.068   -17102756.328 9 -13316884.84047  21741985.652    21741994.1014
  20634744.401   -22306089.789 9 -17372694.19848  20634748.736    20634756.1544
  21622405.305   -16950924.163 8 -13185204.03647  21622410.595    21622419.0344
  24195474.284    -2005613.489 7  -1547651.19045  24195473.236    24195483.3354
 00  5  6  1 59  0.0000000  0  7 17 09 15 21 23 29 05
  22522705.064   -12386935.033 8  -9634367.25346  22522709.944    22522718.9034
  21052971.119   -18164917.262 9 -14119274.04747  21052974.350    21052981.5024
  22818316.050    -7951333.996 8  -6174661.96946  22818319.007    22818329.1754
  21728413.016   -17174059.319 8 -13372445.59347  21728416.753    21728425.5534
  20634384.727   -22307992.098 9 -17374176.50548  20634386.714    20634394.0614
  21612859.095   -17001097.419 8 -13224300.05447  21612862.342    21612870.4504
  24180509.790    -2084270.308 7  -1608942.01845  24180504.944    24180516.1514
 00  5  6  1 59 30.0000000  0  7 17 09 15 21 23 29 05
  22543599.704   -12277139.107 8  -9548812.05746  22543603.479    22543612.4924
  21061601.357   -18119571.016 9 -14083939.32347  21061603.586    21061611.0894
  22802537.192    -8034247.396 8  -6239269.70846  22802541.259    22802548.8394
  21714874.799   -17245209.689 9 -13427887.38647  21714877.697    21714886.3474
  20634080.074   -22309582.771 9 -17375415.98948  20634084.005    20634090.9234
  21603357.528   -17051037.341 8 -13263214.24047  21603359.840    21603367.4504
  24165548.761    -2162808.371 7  -1670140.27745  24165558.460    24165572.7684
 00  5  6  2  0  0.0000000  0  7 17 09 15 21 23 29 05
  22564547.214   -12167069.060 8  -9463043.27146  22564549.316    22564558.5374
  21070336.377   -18073659.764 9 -14048164.32747  21070339.750    21070347.0924
  22786838.232    -8116746.556 8  -6303554.62346  22786840.661    22786849.9694
  21701362.955   -17316206.588 8 -13483209.60647  21701367.112    21701375.7324
  20633836.776   -22310860.564 9 -17376411.67648  20633841.068    20633848.3344
  21593896.378   -17100743.870 8 -13301946.52347  21593900.898    21593909.0784
  24150623.967    -2241224.836 7  -1731243.78345  24150635.621    24150649.1514
 00  5  6  2  0 30.0000000  0  7 17 09 15 21 23 29 05
  22585538.299   -12056727.932 8  -9377063.23446  22585545.653    22585555.2994
  21079181.248   -18027185.808 9 -14011950.86147  21079183.391    21079190.7174
  22771216.740    -8198828.745 8  -6367514.66146  22771223.908    22771229.4924
  21687883.148   -17387047.712 9 -13538410.37147  21687886.249    21687895.1054
  20633652.952   -22311824.348 9 -17377162.65748  20633657.423    20633665.0714
  21584482.366   -17150217.201 9 -13340497.13647  21584486.238    21584494.0314
  24135734.137    -2319516.533 7  -1792250.09645  24135737.719    24135747.2054
 00  5  6  2  1  0.0000000  0  7 17 09 15 21 23 29 05
  22606595.929   -11946118.663 8  -9290874.26746  22606594.514    22606603.7004
  21088130.215   -17980151.049 9 -13975300.42047  21088133.953    21088141.7944
  22755677.715    -8280491.314 8  -6431147.77646  22755681.647    22755689.4444
  21674428.631   -17457731.090 9 -13593488.36247  21674435.352    21674444.5794
  20633530.169   -22312472.909 9 -17377668.02548  20633533.762    20633541.7704
  21575109.837   -17199457.376 8 -13378866.05347  21575115.400    21575123.8324
  24120863.395    -2397680.441 7  -1853156.86045  24120863.530    24120875.2104
 00  5  6  2  1 30.0000000  0  7 17 09 15 21 23 29 05
  22627687.140   -11835244.244 8  -9204478.68446  22627692.838    22627702.8624
  21097186.012   -17932557.292 9 -13938214.39147  21097190.562    21097198.0794
  22740220.573    -8361731.517 8  -6494451.64446  22740222.094    22740232.5984
  21661010.668   -17528254.657 9 -13648441.72447  21661015.412    21661023.9894
  20633467.027   -22312805.269 9 -17377927.01648  20633470.704    20633478.5094
  21565786.299   -17248464.762 9 -13417053.59347  21565790.302    21565798.2264
  24106003.464    -2475713.445 7  -1913961.60945  24106014.100    24106026.8254
 00  5  6  2  2  0.0000000  0  7 17 09 15 21 23 29 05
  22648838.391   -11724107.676 8  -9117878.85346  22648841.259    22648851.1394
  21106351.325   -17884406.543 9 -13900694.34647  21106353.904    21106360.4424
  22724841.144    -8442546.359 8  -6557424.08346  22724843.215    22724853.2704
  21647622.780   -17598617.040 9 -13703269.54547  21647625.741    21647634.1664
  20633464.990   -22312820.227 9 -17377938.67048  20633468.009    20633475.7064
  21556505.419   -17297239.521 9 -13455059.88847  21556509.607    21556515.5634
  24091180.571    -2553612.673 7  -1974662.06745  24091190.310    24091202.6474
 00  5  6  2  2 30.0000000  0  7 17 09 15 21 23 29 05
  22670036.172   -11612712.047 8  -9031077.14046  22670039.806    22670049.7154
  21115619.236   -17835701.172 9 -13862742.12047  21115621.548    21115628.9024
  22709541.880    -8522933.382 8  -6620063.21446  22709545.909    22709553.4924
  21634265.252   -17668816.208 9 -13757970.21947  21634267.313    21634276.0314
  20633521.972   -22312516.609 9 -17377702.07348  20633525.510    20633533.3364
  21547266.679   -17345781.797 9 -13492885.00047  21547271.867    21547278.6814
  24076393.942    -2631374.900 7  -2035255.78745  24076393.074    24076405.7004
 00  5  6  2  3  0.0000000  0  7 17 09 15 21 23 29 05
  22691284.475   -11501060.276 8  -8944075.87746  22691285.527    22691296.1444
  21124990.330   -17786442.948 9 -13824359.10747  21124994.747    21125002.6344
  22694329.048    -8602889.791 8  -6682366.81146  22694331.899    22694339.4844
  21620937.202   -17738850.363 8 -13812542.25347  21620939.936    21620948.9124
  20633641.813   -22311893.341 9 -17377216.41648  20633644.390    20633651.8724
  21538074.228   -17394091.585 9 -13530528.94247  21538078.523    21538085.8514
  24061625.668    -2708997.305 8  -2095740.56445  24061622.104    24061633.9954
 00  5  6  2  3 30.0000000  0  7 17 09 15 21 23 29 05
  22712581.255   -11389155.496 8  -8856877.42746  22712581.701    22712590.2464
  21134470.840   -17736634.104 9 -13785547.02947  21134473.353    21134481.4104
  22679197.198    -8682412.888 8  -6744332.79046  22679198.780    22679207.7544
  21607642.169   -17808717.984 9 -13866984.50447  21607645.203    21607653.8554
  20633819.880   -22310949.219 9 -17376480.73648  20633823.714    20633831.4534
  21528924.741   -17442169.117 8 -13567991.89847  21528929.297    21528937.2124
  24046872.426    -2786476.888 7  -2156114.07845  24046876.773    24046889.4934
 00  5  6  2  4  0.0000000  0  7 17 09 15 21 23 29 05
  22733917.364   -11277000.499 8  -8769484.00846  22733923.136    22733933.0234
  21144052.758   -17686276.455 9 -13746307.33347  21144056.303    21144063.8814
  22664142.518    -8761499.998 8  -6805959.01846  22664148.446    22664158.1684
  21594378.790   -17878417.026 9 -13921295.39747  21594382.421    21594390.8924
  20634063.909   -22309683.229 9 -17375494.24048  20634064.567    20634072.3624
  21519822.105   -17490014.630 9 -13605274.04847  21519824.965    21519832.1254
  24032159.919    -2863810.388 8  -2216373.72845  24032161.921    24032173.8294
 00  5  6  2  4 30.0000000  0  7 17 09 15 21 23 29 05
  22755301.665   -11164598.625 8  -8681898.19446  22755312.713    22755322.7994
  21153737.785   -17635372.227 9 -13706641.71647  21153742.899    21153750.7064
  22649176.695    -8840148.382 8  -6867243.36946  22649182.221    22649192.4654
  21581147.262   -17947945.350 9 -13975473.29147  21581151.450    21581159.2614
  20634363.627   -22308094.117 9 -17374255.96648  20634367.206    20634374.5254
  21510759.074   -17537628.258 9 -13642375.49547  21510764.530    21510771.6404
  24017475.622    -2940994.684 8  -2276517.13545  24017475.032    24017485.5054
 00  5  6  2  5  0.0000000  0  7 17 09 15 21 23 29 05
  22776745.135   -11051952.850 8  -8594122.35546  22776749.004    22776759.0294
  21163530.494   -17583923.639 9 -13666551.92047  21163533.372    21163541.0304
  22634293.568    -8918355.270 8  -6928183.69746  22634300.496    22634309.8114
  21567950.105   -18017301.385 9 -14029516.85547  21567953.368    21567961.7704
  20634727.968   -22306180.765 9 -17372765.04948  20634731.117    20634738.8544
  21501743.955   -17585010.289 9 -13679296.51347  21501747.915    21501754.5724
  24002807.835    -3018026.749 7  -2336541.94045  24002815.054    24002826.9534
 00  5  6  2  5 30.0000000  0  7 17 09 15 21 23 29 05
  22798227.773   -10939066.266 8  -8506158.88546  22798229.747    22798240.6544
  21173421.641   -17531932.692 9 -13626039.52147  21173426.822    21173435.0584
  22619503.656    -8996118.354 8  -6988778.20146  22619503.260    22619512.9834
  21554783.985   -18086483.499 9 -14083424.88947  21554787.680    21554796.4214
  20635153.390   -22303942.265 9 -17371020.76248  20635156.928    20635164.9794
  21492770.397   -17632161.006 9 -13716037.31847  21492775.468    21492781.5954
  23988191.801    -3094903.691 8  -2396445.88445  23988186.516    23988197.4934
 00  5  6  2  6  0.0000000  0  7 17 09 15 21 23 29 05
  22819756.221   -10825941.713 8  -8418009.97846  22819757.638    22819767.0464
  21183420.199   -17479401.595 9 -13585106.22847  21183423.488    21183430.7064
  22604785.121    -9073434.709 8  -7049024.62046  22604789.556    22604798.3404
  21541653.845   -18155488.823 9 -14137195.19247  21541656.270    21541664.2804
  20635643.213   -22301377.199 9 -17369021.99948  20635645.404    20635653.0374
  21483842.401   -17679080.387 9 -13752597.82947  21483846.358    21483853.4474
  23973584.597    -3171622.349 8  -2456226.44745  23973586.667    23973597.7504
 00  5  6  2  6 30.0000000  0  7 17 09 15 21 23 29 05
  22841331.275   -10712582.332 8  -8329678.07046  22841329.275    22841339.7564
  21193517.997   -17426332.578 9 -13543753.76447  21193521.771    21193529.4114
  22590161.030    -9150301.284 8  -7108920.52546  22590162.726    22590170.8284
  21528557.153   -18224315.718 9 -14190826.47347  21528559.491    21528568.1824
  20636192.820   -22298484.656 9 -17366768.07748  20636195.609    20636203.7244
  21474958.221   -17725768.693 9 -13788978.30947  21474961.967    21474969.7174
  23959014.017    -3248179.713 8  -2515881.33345  23959017.577    23959029.8124
 00  5  6  2  7  0.0000000  0  7 17 09 15 21 23 29 05
  22862940.039   -10598991.149 8  -8241165.56746  22862945.055    22862955.0644
  21203719.810   -17372727.747 9 -13501983.77747  21203722.680    21203730.2984
  22575620.790    -9226715.683 8  -7168464.07446  22575621.562    22575631.0894
  21515493.011   -18292963.609 9 -14244318.35747  21515496.055    21515504.5774
  20636804.444   -22295263.437 9 -17364258.04748  20636808.753    20636816.6384
  21466117.870   -17772226.118 9 -13825178.87647  21466121.346    21466129.4624
  23944475.704    -3324572.784 8  -2575408.24045  23944481.088    23944493.0204
 00  5  6  2  7 30.0000000  0  7 17 09 15 21 23 29 05
  22884596.807   -10485171.323 8  -8152474.87346  22884604.163    22884614.1114
  21214022.581   -17318589.306 9 -13459797.99247  21214025.208    21214032.7694
  22561163.709    -9302675.140 8  -7227653.10646  22561167.910    22561175.5654
  21502463.063   -18361429.895 9 -14297668.75047  21502467.593    21502475.8714
  20637481.425   -22291712.420 9 -17361491.02548  20637484.728    20637492.2644
  21457321.820   -17818452.777 9 -13861199.63947  21457324.713    21457332.2784
  23929974.056    -3400798.638 7  -2634804.79645  23929974.210    23929986.5094
 00  5  6  2  8  0.0000000  0  7 17 09 15 21 23 29 05
  22906303.101   -10371125.691 8  -8063608.23446  22906305.829    22906316.1294
  21224423.569   -17263919.516 9 -13417198.15947  21224428.200    21224435.8234
  22546793.619    -9378177.436 8  -7286485.95946  22546799.908    22546809.5464
  21489470.433   -18429712.424 9 -14350875.92647  21489473.361    21489481.5114
  20638220.144   -22287830.737 9 -17358466.32648  20638223.466    20638230.6284
  21448566.862   -17864448.947 8 -13897040.78047  21448571.566    21448579.3144
  23915501.295    -3476854.172 7  -2694068.65545  23915501.359    23915513.8604
 00  5  6  2  8 30.0000000  0  7 17 09 15 21 23 29 05
  22928048.339   -10256857.368 8  -7974568.08746  22928050.886    22928061.0134
  21234930.042   -17208720.528 9 -13374185.97647  21234932.661    21234940.1414
  22532517.813    -9453219.910 8  -7344960.45146  22532519.001    22532529.0304
  21476509.880   -18497808.902 9 -14403938.00247  21476514.831    21476523.5124
  20639022.704   -22283617.135 9 -17355182.99848  20639025.272    20639032.5824
  21439860.127   -17910214.676 9 -13932702.35447  21439863.293    21439870.1054
  23901058.053    -3552736.305 8  -2753197.36445  23901062.221    23901072.5654
 00  5  6  2  9  0.0000000  0  7 17 09 15 21 23 29 05
  22949833.583   -10142369.458 8  -7885356.80646  22949837.599    22949846.8194
  21245534.043   -17152994.692 9 -13330763.25947  21245536.487    21245544.6294
  22518323.908    -9527799.888 8  -7403074.63546  22518326.568    22518335.9454
  21463588.287   -18565718.289 9 -14456854.26647  21463592.452    21463600.3104
  20639887.152   -22279070.576 9 -17351640.22348  20639890.166    20639897.8874
  21431193.208   -17955750.418 8 -13968184.73247  21431197.464    21431204.8824
  23886655.478    -3628441.925 8  -2812188.54545  23886657.000    23886667.4224
 00  5  6  2  9 30.0000000  0  7 17 09 15 21 23 29 05
  22971662.028   -10027664.984 8  -7795976.76646  22971665.426    22971674.4324
  21256232.758   -17096744.019 9 -13286931.57647  21256240.141    21256248.8814
  22504220.391    -9601914.728 8  -7460826.33846  22504223.706    22504233.6214
  21450701.360   -18633438.403 9 -14509623.10947  21450705.284    21450714.0244
  20640816.468   -22274189.989 9 -17347837.16148  20640819.079    20640826.6044
  21422573.086   -18001056.275 8 -14003487.94547  21422576.093    21422583.6294
  23872279.582    -3703968.175 7  -2871040.01345  23872282.330    23872295.6714
 00  5  6  2 10  0.0000000  0  7 17 09 15 21 23 29 05
  22993527.798    -9912746.852 8  -7706430.27446  22993533.177    22993543.4954
  21267039.831   -17039971.071 9 -13242692.92547  21267044.192    21267052.0434
  22490206.321    -9675561.627 8  -7518213.41446  22490209.011    22490217.9564
  21437852.214   -18700967.144 9 -14562242.82247  21437855.284    21437863.7864
  20641808.338   -22268974.306 9 -17343772.99748  20641811.583    20641819.0934
  21413990.940   -18046132.285 8 -14038612.07247  21413998.071    21414006.0674
  23857940.208    -3779311.872 8  -2929749.18945  23857944.448    23857957.5804
 00  5  6  2 10 30.0000000  0  7 17 09 15 21 23 29 05
  23015438.587    -9797618.191 8  -7616719.73946  23015441.099    23015452.1464
  21277944.848   -16982678.052 9 -13198049.03247  21277946.896    21277954.6324
  22476276.213    -9748738.365 8  -7575234.13046  22476282.539    22476293.1494
  21425039.009   -18768302.541 9 -14614711.90947  21425041.602    21425050.0924
  20642864.333   -22263422.438 9 -17339446.86348  20642868.196    20642875.4584
  21405462.790   -18090978.813 8 -14073557.36347  21405464.408    21405471.7214
  23843638.863    -3854469.908 8  -2988313.69145  23843644.239    23843654.1594
 00  5  6  2 11  0.0000000  0  7 17 09 15 21 23 29 05
  23037385.054    -9682282.081 8  -7526847.54346  23037389.033    23037398.8454
  21288943.097   -16924867.126 9 -13153001.56647  21288947.271    21288955.5074
  22462446.048    -9821442.197 8  -7631886.32746  22462448.574    22462458.4854
  21412260.797   -18835442.685 9 -14667028.75447  21412264.703    21412273.0274
  20643987.564   -22257533.304 9 -17334857.92448  20643988.946    20643996.1964
  21396970.375   -18135596.178 8 -14108324.09147  21396974.056    21396981.4054
  23829376.388    -3929439.255 8  -3046731.22645  23829378.309    23829387.6494
 00  5  6  2 11 30.0000000  0  7 17 09 15 21 23 29 05
  23059368.270    -9566741.466 8  -7436816.00146  23059375.114    23059386.5694
  21300041.748   -16866540.708 9 -13107552.41747  21300046.684    21300054.7274
  22448702.100    -9893670.526 8  -7688168.01546  22448702.530    22448712.4424
  21399521.902   -18902385.613 9 -14719191.98647  21399526.225    21399534.4364
  20645170.698   -22251305.905 9 -17330005.39948  20645174.007    20645181.2034
  21388524.655   -18179984.418 9 -14142912.29547  21388527.205    21388534.3184
  23815144.836    -4004216.649 8  -3104999.16045  23815147.047    23815158.8824
 00  5  6  2 12  0.0000000  0  7 17 09 15 21 23 29 05
  23081392.832    -9450999.389 8  -7346627.50246  23081401.317    23081411.2094
  21311240.204   -16807701.194 9 -13061703.44347  21311243.754    21311251.7044
  22435047.188    -9965421.007 8  -7744077.35646  22435050.409    22435058.3174
  21386823.261   -18969129.179 9 -14771200.01547  21386825.355    21386833.3844
  20646422.311   -22244739.312 9 -17324888.57148  20646423.727    20646430.8994
  21380122.578   -18224143.766 9 -14177322.14847  21380124.299    21380131.0894
  23800950.470    -4078799.222 8  -3163115.26645  23800954.285    23800965.6644
 00  5  6  2 12 30.0000000  0  7 17 09 15 21 23 29 05
  23103452.922    -9335058.905 8  -7256284.38446  23103464.018    23103474.4364
  21322531.509   -16748350.876 9 -13015456.45547  21322537.516    21322546.0604
  22421484.687   -10036690.980 8  -7799612.27346  22421487.192    22421495.8954
  21374159.709   -19035671.442 9 -14823051.13647  21374162.937    21374170.7844
  20647734.829   -22237832.317 9 -17319506.49948  20647737.794    20647745.2664
  21371760.524   -18268074.433 9 -14211553.80647  21371764.478    21371771.9184
  23786788.557    -4153184.024 7  -3221077.28245  23786797.973    23786810.5554
 00  5  6  2 13  0.0000000  0  7 17 09 15 21 23 29 05
  23125556.635    -9218922.957 8  -7165788.96346  23125564.363    23125574.2904
  21333923.725   -16688492.101 9 -12968813.28747  21333928.378    21333936.5144
  22408009.366   -10107478.114 8  -7854771.00246  22408016.814    22408023.7684
  21361533.588   -19102010.487 9 -14874743.82647  21361538.738    21361547.1734
  20649112.764   -22230583.837 9 -17313858.33948  20649117.099    20649124.8744
  21363445.375   -18311776.696 9 -14245607.47747  21363448.016    21363455.4124
  23772681.378    -4227368.120 8  -3278882.90645  23772682.468    23772694.1524
 00  5  6  2 13 30.0000000  0  7 17 09 15 21 23 29 05
  23147703.529    -9102594.821 8  -7075143.76946  23147700.719    23147710.4754
  21345409.914   -16628127.336 9 -12921775.81547  21345415.467    21345423.1644
  22394636.160   -10177779.830 8  -7909551.48446  22394638.153    22394647.8524
  21348950.519   -19168144.294 9 -14926276.56347  21348954.138    21348961.8644
  20650558.237   -22222992.821 9 -17307943.26248  20650561.578    20650569.4274
  21355171.279   -18355250.653 9 -14279483.24547  21355175.197    21355182.2604
  23758597.595    -4301348.391 8  -3336529.73445  23758604.054    23758615.5494
 00  5  6  2 14  0.0000000  0  7 17 09 15 21 23 29 05
  23169868.878    -8986077.733 8  -6984351.36245  23169872.817    23169883.3234
  21356994.438   -16567259.112 9 -12874346.05747  21356998.501    21357005.7774
  22381352.343   -10247593.295 8  -7963951.43846  22381354.083    22381361.5884
  21336404.361   -19234071.037 9 -14977647.98947  21336409.190    21336416.6614
  20652068.226   -22215058.244 9 -17301760.47248  20652071.573    20652079.2014
  21346942.598   -18398496.633 8 -14313181.36547  21346945.422    21346952.9584
  23744560.546    -4375121.821 8  -3394015.37645  23744565.408    23744576.1574
 00  5  6  2 14 30.0000000  0  7 17 09 15 21 23 29 05
  23192071.953    -8869374.514 8  -6893413.91645  23192080.185    23192090.5884
  21368673.549   -16505889.656 9 -12826525.71047  21368676.181    21368683.5224
  22368155.955   -10316916.403 8  -8017969.35146  22368161.397    22368171.0864
  21323901.124   -19299788.525 9 -15028856.40447  21323903.368    21323910.6664
  20653642.473   -22206779.165 9 -17295309.23648  20653647.086    20653654.4544
  21338754.467   -18441514.915 9 -14346702.10447  21338758.889    21338766.7094
  23730565.364    -4448685.310 8  -3451337.41745  23730567.048    23730577.4944
 00  5  6  2 15  0.0000000  0  7 17 09 15 21 23 29 05
  23214319.482    -8752488.250 8  -6802333.81745  23214323.670    23214333.4904
  21380446.039   -16444021.240 9 -12778316.56847  21380449.395    21380457.1714
  22355059.709   -10385746.618 8  -8071603.18146  22355063.071    22355073.4264
  21311436.019   -19365294.564 9 -15079899.98547  21311437.729    21311445.3344
  20655285.094   -22198154.570 9 -17288588.77348  20655287.989    20655295.4904
  21330612.013   -18484305.657 9 -14380045.50947  21330616.530    21330623.6444
  23716609.382    -4522035.839 8  -3508493.51045  23716609.419    23716619.3604
 00  5  6  2 15 30.0000000  0  7 17 09 15 21 23 29 05
  23236600.106    -8635422.101 8  -6711113.57446  23236600.584    23236612.2314
  21392316.430   -16381656.365 9 -12729720.58147  21392317.180    21392324.9494
  22342058.621   -10454081.413 8  -8124851.04046  22342059.996    22342067.2824
  21299009.718   -19430587.788 9 -15130777.73147  21299013.121    21299020.9564
  20656993.003   -22189183.552 9 -17281598.36548  20656995.076    20657002.8284
  21322512.942   -18526868.886 9 -14413211.62547  21322517.497    21322524.3814
  23702690.979    -4595170.436 8  -3565481.38545  23702691.446    23702703.1804
 00  5  6  2 16  0.0000000  0  7 17 09 15 21 23 29 05
  23258905.870    -8518179.042 8  -6619755.50145  23258911.361    23258922.0254
  21404272.895   -16318797.560 9 -12680739.70647  21404278.826    21404286.6244
  22329143.385   -10521918.409 8  -8177711.00846  22329149.494    22329159.3824
  21286624.764   -19495666.157 9 -15181488.04447  21286628.601    21286636.3104
  20658765.940   -22179864.912 9 -17274337.09148  20658768.547    20658776.1314
  21314459.088   -18569205.179 9 -14446200.91647  21314461.487    21314467.9144
  23688814.130    -4668086.099 8  -3622298.62345  23688816.241    23688827.7214
 00  5  6  2 16 30.0000000  0  7 17 09 15 21 23 29 05
  23281253.921    -8400762.133 8  -6528261.90445  23281255.545    23281265.5774
  21416332.549   -16255447.315 9 -12631375.89447  21416334.530    21416342.3314
  22316331.916   -10589255.179 8  -8230181.10646  22316335.510    22316346.2474
  21274282.721   -19560527.565 9 -15232029.43247  21274286.361    21274293.8024
  20660603.497   -22170197.757 9 -17266804.24048  20660608.243    20660615.4954
  21306444.126   -18611314.341 9 -14479013.23947  21306448.456    21306454.7204
  23674983.034    -4740779.793 8  -3678942.93645  23674983.652    23674994.0724
 00  5  6  2 17  0.0000000  0  7 17 09 15 21 23 29 05
  23303623.448    -8283174.313 8  -6436635.14346  23303632.110    23303643.2694
  21428477.989   -16191608.031 9 -12581631.01347  21428482.138    21428489.9934
  22303611.968   -10656089.628 8  -8282259.81546  22303617.573    22303627.1974
  21261982.781   -19625169.504 9 -15282399.75547  21261985.448    21261992.5734
  20662511.510   -22160181.065 9 -17258999.02148  20662514.357    20662521.5984
  21298474.513   -18653197.010 9 -14511649.04647  21298477.621    21298485.1984
  23661190.930    -4813248.457 8  -3735411.88245  23661193.087    23661202.8304
 00  5  6  2 17 30.0000000  0  7 17 09 15 21 23 29 05
  23326037.873    -8165418.647 8  -6344877.58545  23326040.089    23326051.2014
  21440714.782   -16127282.081 8 -12531506.91147  21440723.599    21440731.1844
  22290996.180   -10722419.147 8  -8333945.14646  22290996.787    22291005.5374
  21249723.919   -19689589.984 9 -15332597.50347  21249726.387    21249733.9204
  20664483.286   -22149813.906 9 -17250920.71248  20664486.783    20664494.5874
  21290547.425   -18694853.238 9 -14544108.40547  21290551.017    21290558.0484
  23647445.229    -4885489.009 8  -3791703.07245  23647446.310    23647456.3194
 00  5  6  2 18  0.0000000  0  7 17 09 15 21 23 29 05
  23348480.073    -8047498.127 8  -6252991.60646  23348480.415    23348490.5494
  21453055.774   -16062471.953 9 -12481005.54147  21453056.369    21453063.8844
  22278464.666   -10788241.229 8  -8385235.00046  22278469.325    22278478.9934
  21237506.898   -19753787.328 9 -15382621.38247  21237510.101    21237517.2494
  20666521.927   -22139095.335 9 -17242568.57448  20666526.679    20666534.0364
  21282662.790   -18736283.302 9 -14576391.53147  21282666.577    21282674.1034
  23633742.807    -4957498.442 8  -3847814.21045  23633742.083    23633753.2324
 00  5  6  2 18 30.0000000  0  7 17 09 15 21 23 29 05
  23370945.900    -7929415.877 8  -6160979.58445  23370950.550    23370961.3534
  21465479.103   -15997180.116 9 -12430128.80547  21465480.799    21465488.9394
  22266038.929   -10853553.809 8  -8436127.86246  22266041.202    22266050.4114
  21225335.730   -19817759.014 9 -15432469.38347  21225336.904    21225344.3574
  20668632.356   -22128024.291 9 -17233941.78848  20668633.473    20668640.7804
  21274823.327   -18777487.263 9 -14608498.48847  21274826.015    21274833.0934
  23620079.526    -5029273.703 8  -3903742.85446  23620083.573    23620095.3254
 00  5  6  2 19  0.0000000  0  7 17 09 15 21 23 29 05
  23393447.284    -7811174.844 8  -6068843.87145  23393450.748    23393460.9234
  21477996.022   -15931409.059 9 -12378878.67247  21477997.140    21478004.3784
  22253700.448   -10918354.293 8  -8486621.70246  22253709.188    22253719.9504
  21213202.711   -19881503.316 9 -15482140.12547  21213206.312    21213213.9654
  20670804.693   -22116599.870 9 -17225039.64448  20670807.329    20670814.8244
  21267026.187   -18818465.445 9 -14640429.48947  21267028.665    21267035.1624
  23606471.099    -5100811.799 8  -3959486.67446  23606470.457    23606481.7184
 00  5  6  2 19 30.0000000  0  7 17 09 15 21 23 29 05
  23415971.182    -7692778.155 8  -5976586.80945  23415980.734    23415990.6514
  21490602.744   -15865161.318 9 -12327257.07747  21490603.170    21490611.3754
  22241476.139   -10982640.281 8  -8536714.62946  22241477.925    22241486.6714
  21201117.791   -19945018.084 9 -15531631.98447  21201119.966    21201127.3734
  20673045.669   -22104821.087 9 -17215861.37248  20673048.960    20673056.3724
  21259271.849   -18859218.282 9 -14672184.93047  21259273.519    21259280.4954
  23592904.151    -5172109.722 8  -4015043.36545  23592903.991    23592912.9804
 00  5  6  2 20  0.0000000  0  7 17 09 15 21 23 29 05
  23438536.214    -7574228.896 8  -5884210.87845  23438540.043    23438550.0814
  21503297.121   -15798439.624 9 -12275266.16947  21503300.586    21503307.6524
  22229336.690   -11046409.880 8  -8586405.20646  22229342.861    22229351.0314
  21189074.089   -20008301.742 9 -15580943.83647  21189077.147    21189084.3814
  20675356.546   -22092686.887 9 -17206406.15748  20675357.982    20675365.3114
  21251556.773   -18899745.756 9 -14703764.75347  21251561.246    21251568.1864
  23579375.797    -5243164.379 8  -4070410.51345  23579381.118    23579392.2114
 00  5  6  2 20 30.0000000  0  7 17 09 15 21 23 29 05
  23461123.335    -7455530.196 8  -5791718.52145  23461128.014    23461136.4594
  21516083.845   -15731246.350 9 -12222907.79347  21516086.810    21516094.4004
  22217303.841   -11109660.560 8  -8635691.40246  22217306.172    22217316.1304
  21177074.510   -20071352.038 9 -15630073.92547  21177078.482    21177086.5174
  20677730.232   -22080196.344 9 -17196673.26947  20677734.526    20677742.1754
  21243886.535   -18940048.151 9 -14735169.19447  21243891.607    21243898.4674
  23565902.370    -5313972.971 8  -4125585.90845  23565905.891    23565917.6524
 00  5  6  2 21  0.0000000  0  7 17 09 15 21 23 29 05
  23483737.862    -7336684.926 8  -5699111.91945  23483743.445    23483753.0334
  21528959.567   -15663583.852 9 -12170183.81547  21528962.097    21528969.8804
  22205367.882   -11172389.908 8  -8684571.40346  22205369.283    22205378.3614
  21165122.308   -20134166.635 9 -15679020.32647  21165125.284    21165133.3724
  20680176.592   -22067348.688 9 -17186662.11148  20680179.531    20680187.2634
  21236261.538   -18980125.677 9 -14766398.42847  21236265.292    21236272.4674
  23552473.794    -5384532.412 8  -4180567.14145  23552479.924    23552490.1984
 00  5  6  2 21 30.0000000  0  7 17 09 15 21 23 29 05
  23506386.812    -7217696.110 8  -5606393.51545  23506386.929    23506396.8944
  21541924.761   -15595455.162 9 -12117096.55647  21541927.006    21541934.7564
  22193531.781   -11234595.419 8  -8733043.20946  22193532.254    22193541.4124
  21153214.444   -20196744.032 9 -15727781.99247  21153217.714    21153225.4674
  20682689.482   -22054142.803 9 -17176371.81647  20682692.599    20682700.0554
  21228677.911   -19019978.622 9 -14797452.65647  21228681.532    21228688.5484
  23539099.241    -5454839.802 8  -4235352.00345  23539101.768    23539110.5764
 00  5  6  2 22  0.0000000  0  7 17 09 15 21 23 29 05
  23529045.281    -7098566.822 7  -5513565.63445  23529054.336    23529067.9084
  21554977.248   -15526862.484 9 -12063647.74147  21554979.279    21554987.6274
  22181792.335   -11296274.880 8  -8781105.08346  22181794.200    22181804.0774
  21141350.154   -20259081.215 9 -15776356.48247  21141354.898    21141362.7864
  20685270.025   -22040577.828 9 -17165801.71947  20685273.844    20685281.1444
  21221136.673   -19059607.272 9 -14828332.10147  21221140.298    21221147.4874
  23525770.963    -5524892.175 8  -4289938.15145  23525770.317    23525780.7664
 00  5  6  2 22 30.0000000  0  7 17 09 15 21 23 29 05
  23551752.817    -6979300.089 7  -5420630.68445  23551750.384    23551763.0124
  21568120.217   -15457808.435 9 -12009839.41447  21568120.436    21568128.0934
  22170151.551   -11357426.340 8  -8828755.47046  22170157.306    22170168.0754
  21129536.260   -20321176.484 9 -15824742.32947  21129538.874    21129546.2464
  20687919.811   -22026652.933 9 -17154951.15848  20687923.719    20687931.3924
  21213637.888   -19099011.762 9 -14859036.88647  21213641.467    21213649.1134
  23512482.507    -5594686.407 8  -4344323.13445  23512488.121    23512499.7934
 00  5  6  2 23  0.0000000  0  7 17 09 15 21 23 29 05
  23574463.085    -6859899.030 7  -5327591.04845  23574471.812    23574483.9444
  21581341.532   -15388295.794 8 -11955673.74947  21581347.788    21581356.1834
  22158616.408   -11418047.532 8  -8875992.75746  22158621.335    22158630.8394
  21117765.616   -20383028.120 9 -15872938.43547  21117768.480    21117776.3054
  20690639.842   -22012367.229 9 -17143819.45548  20690642.396    20690650.2674
  21206183.313   -19138192.290 9 -14889567.16547  21206185.744    21206193.0514
  23499260.090    -5664219.435 8  -4398504.58345  23499256.306    23499267.7704
 00  5  6  2 23 30.0000000  0  7 17 09 15 21 23 29 05
  23597209.671    -6740366.669 7  -5234449.08645  23597218.947    23597230.7634
  21594660.321   -15318326.849 9 -11901152.54147  21594663.253    21594670.7794
  22147180.741   -11478136.260 8  -8922815.06146  22147186.557    22147196.4254
  21106040.786   -20444634.158 9 -15920943.09147  21106045.828    21106052.9764
  20693426.738   -21997719.659 9 -17132405.77248  20693429.714    20693437.5204
  21198768.392   -19177149.213 9 -14919923.17747  21198772.915    21198779.9674
  23486064.916    -5733488.166 8  -4452480.08245  23486074.373    23486085.5604
 00  5  6  2 24  0.0000000  0  7 17 09 15 21 23 29 05
  23619988.702    -6620705.877 8  -5141207.03245  23619990.567    23620001.0554
  21608059.879   -15247904.401 9 -11846277.91947  21608063.808    21608071.4274
  22135851.768   -11537690.397 8  -8969220.83546  22135854.265    22135863.7804
  21094364.883   -20505991.538 9 -15968753.93047  21094369.815    21094377.0504
  20696282.589   -21982709.342 9 -17120709.43748  20696286.010    20696293.4724
  21191399.524   -19215882.767 9 -14950105.14047  21191402.323    21191408.9534
  23472942.090    -5802489.935 8  -4506247.57145  23472944.970    23472954.8054
 00  5  6  2 24 30.0000000  0  7 17 09 15 21 23 29 05
  23642777.997    -6500919.796 8  -5047867.34945  23642784.929    23642796.5764
  21621546.043   -15177031.095 8 -11791051.99747  21621550.480    21621558.7904
  22124622.913   -11596707.773 8  -9015208.31646  22124624.098    22124632.5764
  21082737.790   -20567098.517 9 -16016369.73047  21082741.427    21082749.1664
  20699207.732   -21967335.494 9 -17108729.82347  20699211.676    20699219.0104
  21184071.384   -19254393.230 9 -14980113.24047  21184073.580    21184080.1474
  23459862.316    -5871221.698 8  -4559804.70145  23459866.909    23459875.2084
 00  5  6  2 25  0.0000000  0  7 17 09 15 21 23 29 05
  23665603.492    -6381011.464 8  -4954432.40645  23665602.776    23665615.0114
  21635119.238   -15105709.456 8 -11735476.72147  21635122.829    21635130.7534
  22113487.879   -11655186.303 8  -9060775.95046  22113496.095    22113504.5174
  21071158.018   -20627953.286 9 -16063789.03847  21071160.622    21071168.7424
  20702204.356   -21951597.120 9 -17096466.16648  20702206.757    20702214.1284
  21176783.162   -19292680.592 9 -15009947.50047  21176787.855    21176794.4294
  23446835.127    -5939680.338 8  -4613148.96945  23446837.852    23446848.5484
 00  5  6  2 25 30.0000000  0  7 17 09 15 21 23 29 05
  23688439.270    -6260983.768 8  -4860904.50445  23688443.991    23688455.1574
  21648776.840   -15033942.100 8 -11679554.13347  21648779.674    21648787.8854
  22102472.401   -11713123.682 8  -9105921.88646  22102470.751    22102478.7114
  21059625.062   -20688553.731 9 -16111010.19547  21059628.982    21059637.1444
  20705267.625   -21935493.580 9 -17083917.96447  20705270.971    20705278.4304
  21169538.640   -19330745.362 9 -15039608.30047  21169544.328    21169551.1654
  23433861.734    -6007863.049 8  -4666278.22645  23433861.334    23433873.5604
 00  5  6  2 26  0.0000000  0  7 17 09 15 21 23 29 05
  23711305.507    -6140839.912 8  -4767286.04245  23711306.467    23711316.3474
  21662514.383   -14961731.704 8 -11623286.34547  21662520.777    21662528.6884
  22091548.450   -11770517.717 8  -9150644.45346  22091549.584    22091557.1474
  21048143.268   -20748897.584 9 -16158031.37447  21048145.656    21048154.1184
  20708402.772   -21919023.893 9 -17071084.45847  20708404.902    20708412.5444
  21162339.316   -19368587.635 9 -15069095.76347  21162343.598    21162350.3164
  23420939.852    -6075766.879 8  -4719190.19446  23420941.541    23420951.8264
 00  5  6  2 26 30.0000000  0  7 17 09 15 21 23 29 05
  23734182.668    -6020582.764 8  -4673579.29345  23734190.079    23734199.4144
  21676341.771   -14889080.894 8 -11566675.35747  21676346.220    21676353.1754
  22080727.674   -11827366.351 8  -9194942.03346  22080730.640    22080740.5394
  21036708.477   -20808982.315 9 -16204850.51547  21036711.854    21036719.8894
  20711605.833   -21902187.247 9 -17057965.00047  20711608.811    20711616.3714
  21155181.355   -19406207.753 9 -15098410.12647  21155184.204    21155191.2394
  23408070.809    -6143388.802 8  -4771882.49445  23408073.473    23408083.1164
 00  5  6  2 27  0.0000000  0  7 17 09 15 21 23 29 05
  23757087.550    -5900215.350 8  -4579786.62445  23757095.488    23757106.4204
  21690252.909   -14815992.308 9 -11509723.23047  21690254.272    21690261.6214
  22070013.843   -11883667.720 8  -9238813.17746  22070017.014    22070026.4874
  21025322.780   -20868806.352 9 -16251466.65247  21025327.538    21025335.9584
  20714879.417   -21884982.793 9 -17044558.94647  20714883.010    20714890.4794
  21148064.000   -19443605.779 9 -15127551.42247  21148067.052    21148074.6224
  23395255.779    -6210725.859 8  -4824352.86045  23395259.869    23395269.4854
 00  5  6  2 27 30.0000000  0  7 17 09 15 21 23 29 05
  23780018.735    -5779740.780 8  -4485910.49745  23780021.355    23780033.1104
  21704242.462   -14742468.576 8 -11452432.04447  21704245.032    21704252.9104
  22059406.051   -11939419.392 8  -9282255.99646  22059409.012    22059417.8214
  21013990.318   -20928367.749 9 -16297878.11947  21013993.499    21014001.9944
  20718223.271   -21867409.773 9 -17030865.69847  20718226.730    20718234.2734
  21140989.658   -19480782.167 9 -15156519.99547  21140992.870    21141000.0264
  23382489.529    -6277775.577 8  -4876599.28645  23382498.932    23382509.6584
 00  5  6  2 28  0.0000000  0  7 17 09 15 21 23 29 05
  23802960.471    -5659162.042 8  -4391953.18346  23802966.612    23802978.1334
  21718314.949   -14668512.283 8 -11394803.78847  21718318.474    21718325.7214
  22048896.845   -11994619.532 8  -9325269.02446  22048903.018    22048911.8384
  21002706.322   -20987664.179 9 -16344083.10247  21002709.993    21002718.1924
  20721637.898   -21849467.428 9 -17016884.66847  20721640.961    20721648.7914
  21133956.185   -19517737.187 9 -15185316.08847  21133960.326    21133968.3484
  23369791.039    -6344534.734 8  -4928619.29946  23369796.584    23369808.3094
 00  5  6  2 28 30.0000000  0  7 17 09 15 21 23 29 05
  23825929.509    -5538482.043 8  -4297916.94346  23825931.890    23825942.6674
  21732469.748   -14594126.328 8 -11336840.73047  21732473.577    21732481.3374
  22038501.528   -12049266.064 8  -9367850.69046  22038505.026    22038513.0474
  20991472.925   -21046693.277 9 -16390079.83047  20991477.097    20991485.0204
  20725121.930   -21831154.696 9 -17002615.01847  20725126.068    20725133.6604
  21126967.639   -19554470.809 9 -15213939.65847  21126970.443    21126977.9084
  23357142.471    -6411000.352 8  -4980410.57445  23357147.759    23357159.5754
 00  5  6  2 29  0.0000000  0  7 17 09 15 21 23 29 05
  23848915.299    -5417703.746 8  -4203804.12145  23848915.391    23848926.6494
  21746706.466   -14519313.343 8 -11278544.94547  21746710.134    21746718.4904
  22028209.169   -12103357.012 8  -9409999.42846  22028211.503    22028220.2764
  20980293.695   -21105452.692 9 -16435866.39447  20980295.663    20980303.6784
  20728678.480   -21812470.960 9 -16988056.28247  20728681.745    20728689.0364
  21120018.417   -19590983.418 9 -15242391.01947  21120022.253    21120029.5004
  23344554.671    -6477169.553 8  -5031970.90445  23344556.683    23344567.6474
 00  5  6  2 29 30.0000000  0  7 17 09 15 21 23 29 05
  23871916.042    -5296830.231 8  -4109617.10645  23871917.274    23871927.7834
  21761021.308   -14444075.919 8 -11219918.42947  21761027.132    21761035.1794
  22018020.039   -12156890.414 8  -9451713.72246  22018024.325    22018033.1224
  20969164.400   -21163940.740 9 -16481441.45847  20969165.927    20969173.9054
  20732303.249   -21793415.420 9 -16973207.82447  20732307.312    20732314.9204
  21113111.708   -19627275.424 9 -15270670.51047  21113116.001    21113123.6114
  23332020.008    -6543039.268 8  -5083297.87845  23332021.755    23332032.4624
 00  5  6  2 30  0.0000000  0  7 17 09 15 21 23 29 05
  23894935.371    -5175864.594 8  -4015358.30545  23894935.655    23894947.4944
  21775424.491   -14368416.707 8 -11160963.23847  21775424.498    21775433.0234
  22007941.538   -12209864.211 8  -9492991.92446  22007943.776    22007952.3224
  20958086.272   -21222155.064 9 -16526803.25447  20958088.451    20958095.5584
  20736001.567   -21773987.144 9 -16958068.91547  20736004.538    20736011.8174
  21106250.679   -19663346.746 9 -15298778.03847  21106252.198    21106259.2444
  23319542.681    -6608606.512 8  -5134389.14045  23319545.758    23319554.4744
 00  5  6  2 30 30.0000000  0  7 17 09 15 21 23 29 05
  23917965.456    -5054809.871 8  -3921030.08645  23917971.822    23917983.0204
  21789895.869   -14292338.273 8 -11101681.36847  21789901.975    21789910.8584
  21997970.789   -12262276.717 8  -9533832.78746  21997971.408    21997978.2444
  20947058.804   -21280093.777 9 -16571950.31747  20947063.044    20947069.8294
  20739770.411   -21754185.310 9 -16942638.93147  20739773.135    20739780.2574
  21099424.766   -19699197.815 9 -15326713.92747  21099429.842    21099436.5134
  23307121.064    -6673868.431 8  -5185242.50345  23307125.871    23307136.0024
 00  5  6  2 31  0.0000000  0  7 17 09 15 21 23 29 05
  23941022.311    -4933668.938 8  -3826634.67145  23941024.454    23941036.0854
  21804455.632   -14215843.393 8 -11042075.01247  21804459.139    21804467.3034
  21988098.870   -12314125.979 8  -9574234.76546  21988103.565    21988111.1524
  20936085.534   -21337754.295 9 -16616880.60347  20936090.198    20936097.4564
  20743609.647   -21734009.267 9 -16926917.35647  20743612.329    20743619.7454
  21092645.411   -19734828.812 9 -15354478.33947  21092649.925    21092655.9744
  23294763.441    -6738822.103 8  -5235855.67746  23294765.359    23294776.0924
 00  5  6  2 31 30.0000000  0  7 17 09 15 21 23 29 05
  23964089.091    -4812444.802 8  -3732174.41945  23964092.164    23964104.4144
  21819090.002   -14138934.807 8 -10982146.27147  21819094.005    21819102.4874
  21978339.315   -12365410.098 8  -9614196.36346  21978344.189    21978352.3734
  20925167.891   -21395134.688 9 -16661592.52447  20925171.131    20925178.4904
  20747517.952   -21713458.383 9 -16910903.69447  20747522.544    20747530.7054
  21085906.481   -19770240.008 9 -15382071.44747  21085911.175    21085917.5954
  23282458.020    -6803464.821 8  -5286226.51346  23282463.620    23282474.4394
 00  5  6  2 32  0.0000000  0  7 17 09 15 21 23 29 05
  23987167.332    -4691140.220 8  -3637651.49745  23987176.063    23987188.0344
  21833802.903   -14061615.546 8 -10921897.52847  21833807.114    21833815.3444
  21968687.986   -12416127.261 8  -9653716.18146  21968692.317    21968701.3764
  20914303.673   -21452233.190 9 -16706084.85447  20914305.687    20914313.2574
  20751501.929   -21692531.856 9 -16894597.32347  20751505.016    20751513.0164
  21079208.649   -19805431.612 9 -15409493.47147  21079214.568    21079221.4094
  23270220.014    -6867793.690 8  -5336352.81146  23270223.099    23270232.2834
 00  5  6  2 32 30.0000000  0  7 17 09 15 21 23 29 05
  24010269.023    -4569758.280 8  -3543068.30345  24010273.493    24010287.2354
  21848591.348   -13983888.007 8 -10861330.65547  21848598.507    21848606.0344
  21959145.709   -12466275.377 8  -9692792.58446  21959150.371    21959158.9024
  20903491.296   -21509047.645 9 -16750355.88947  20903494.261    20903501.9904
  20755556.222   -21671228.843 9 -16877997.59547  20755558.738    20755566.5634
  21072554.294   -19840403.738 9 -15436744.46247  21072559.442    21072566.6014
  23258041.604    -6931805.639 8  -5386232.16646  23258041.772    23258051.9044
 00  5  6  2 33  0.0000000  0  7 17 09 15 21 23 29 05
  24033379.649    -4448302.032 8  -3448427.19745  24033385.506    24033397.5134
  21863466.090   -13905754.850 8 -10800447.70847  21863466.669    21863474.2014
  21949716.569   -12515852.401 8  -9731423.98046  21949716.227    21949725.0074
  20892735.284   -21565575.312 9 -16794403.39147  20892736.997    20892744.8194
  20759682.699   -21649548.759 9 -16861104.04147  20759684.473    20759691.9344
  21065945.814   -19875157.023 9 -15463824.93447  21065946.614    21065953.1194
  23245920.051    -6995497.886 8  -5435862.43846  23245920.818    23245931.5704
 00  5  6  2 33 30.0000000  0  7 17 09 15 21 23 29 05
  24056510.029    -4326774.380 8  -3353730.41545  24056512.880    24056523.8434
  21878408.825   -13827218.970 8 -10739250.97347  21878412.576    21878419.7694
  21940389.107   -12564856.615 8  -9769609.05046  21940391.068    21940399.0894
  20882030.233   -21621814.048 9 -16838225.72547  20882035.093    20882042.9404
  20763879.552   -21627490.576 9 -16843915.86347  20763882.158    20763889.7644
  21059371.273   -19909691.194 9 -15490734.66047  21059374.631    21059381.7654
  23233853.447    -7058867.729 8  -5485241.44646  23233863.050    23233873.2444
 00  5  6  2 34  0.0000000  0  7 17 09 15 21 23 29 05
  24079653.812    -4205178.371 8  -3258980.41345  24079651.382    24079664.0064
  21893429.116   -13748282.974 8 -10677742.44447  21893432.872    21893440.8784
  21931172.042   -12613286.255 8  -9807346.38546  21931174.671    21931183.2654
  20871386.968   -21677762.179 9 -16881821.66747  20871388.841    20871396.6574
  20768147.459   -21605053.757 9 -16826432.64447  20768151.850    20768159.5514
  21052839.317   -19944006.907 9 -15517474.15747  21052843.863    21052851.4514
  23221859.566    -7121912.310 8  -5534366.99646  23221864.835    23221875.7594
 00  5  6  2 34 30.0000000  0  7 17 09 15 21 23 29 05
  24102796.018    -4083516.937 7  -3164179.40445  24102802.996    24102814.9164
  21908529.037   -13668949.834 8 -10615924.45147  21908530.304    21908537.2844
  21922063.824   -12661139.663 8  -9844634.70446  21922067.323    21922077.0174
  20860796.172   -21733416.775 9 -16925188.85647  20860798.149    20860805.8824
  20772491.863   -21582237.626 9 -16808653.86147  20772493.632    20772501.1954
  21046353.384   -19978104.151 9 -15544043.41247  21046355.930    21046362.7364
  23209933.122    -7184628.707 8  -5583236.83046  23209931.276    23209941.4124
 00  5  6  2 35  0.0000000  0  7 17 09 15 21 23 29 05
  24125958.716    -3961793.072 7  -3069329.72845  24125966.660    24125976.6854
  21923695.651   -13589222.099 8 -10553798.97747  21923701.347    21923709.0654
  21913065.071   -12708415.136 8  -9881472.68246  21913071.660    21913081.5674
  20850258.957   -21788776.590 9 -16968326.32647  20850263.564    20850271.1214
  20776905.209   -21559041.422 9 -16790578.91847  20776907.542    20776915.3094
  21039904.917   -20011983.137 9 -15570442.60147  21039908.784    21039915.6354
  23198058.857    -7247014.261 8  -5631848.85946  23198059.392    23198068.8644
 00  5  6  2 35 30.0000000  0  7 17 09 15 21 23 29 05
  24149131.991    -3840009.788 7  -2974433.78745  24149140.712    24149155.6784
  21938947.598   -13509102.592 8 -10491368.23947  21938948.019    21938955.5744
  21904183.114   -12755111.009 8  -9917859.04346  21904186.115    21904194.0834
  20839783.186   -21843839.089 9 -17011232.14447  20839785.597    20839792.7994
  20781389.352   -21535464.599 9 -16772207.39047  20781393.991    20781401.9064
  21033501.087   -20045644.272 9 -15596672.04547  21033503.645    21033509.9644
  23186242.556    -7309065.949 8  -5680200.74646  23186250.697    23186261.6374
 00  5  6  2 36  0.0000000  0  8 17 09 15 21 23 29 05 30
  24172315.214    -3718170.115 7  -2879493.91844  24172327.092    24172338.9654
  21954264.621   -13428593.992 8 -10428634.33347  21954267.146    21954274.4544
  21895409.760   -12801225.081 8  -9953792.02546  21895411.120    21895419.6674
  20829362.250   -21898601.690 9 -17053904.24947  20829364.775    20829371.6194
  20785950.501   -21511506.540 9 -16753538.79047  20785953.274    20785960.7764
  21027135.530   -20079087.766 9 -15622731.88947  21027139.567    21027145.7414
  23174503.452    -7370780.905 8  -5728290.26246  23174507.393    23174516.9934
  24424323.629      -69887.27917
 00  5  6  2 36 30.0000000  0  8 17 09 15 21 23 29 05 30
  24195531.986    -3596276.902 7  -2784512.29244  24195521.610    24195535.3954
  21969653.964   -13347699.042 8 -10365599.33047  21969661.360    21969668.7974
  21886743.817   -12846755.980 8  -9989270.58646  21886746.895    21886754.9294
  20818997.524   -21953062.117 9 -17096340.92447  20819001.058    20819008.3774
  20790581.400   -21487166.427 9 -16734572.48447  20790584.952    20790592.3764
  21020813.568   -20112313.679 9 -15648622.21347  21020817.138    21020823.0484
  23162821.705    -7432156.273 8  -5776115.15046  23162827.948    23162836.9744
  24406364.941     -164331.517 7   -108597.85255  24406374.302    24406384.8994
 00  5  6  2 37  0.0000000  0  8 17 09 15 21 23 29 05 30
  24218728.459    -3474333.070 7  -2689491.28644  24218727.928    24218741.5504
  21985125.189   -13266420.263 8 -10302265.28047  21985128.410    21985135.8884
  21878188.183   -12891702.214 8 -10024293.57546  21878193.761    21878201.6284
  20808692.025   -22007219.120 9 -17138541.17447  20808695.236    20808702.6204
  20795286.558   -21462443.732 9 -16715308.06047  20795289.460    20795296.9764
  21014533.556   -20145322.394 9 -15674343.26147  21014535.838    21014541.7004
  23151208.634    -7493189.408 8  -5823673.35746  23151213.373    23151224.2454
  24388386.713     -258774.401 7   -182189.58545  24388402.001    24388415.6024
 00  5  6  2 37 30.0000000  0  8 17 09 15 21 23 29 05 30
  24241918.961    -3352341.478 7  -2594433.00745  24241941.118    24241955.6414
  22000660.005   -13184760.772 8 -10238634.54647  22000667.912    22000674.6674
  21869747.105   -12936061.815 8 -10058859.47146  21869751.796    21869760.4954
  20798443.130   -22061070.384 9 -17180503.21947  20798447.657    20798455.1564
  20800064.147   -21437337.805 9 -16695745.01947  20800066.509    20800074.5684
  21008291.653   -20178114.206 9 -15699895.28847  21008295.279    21008301.9284
  23139663.421    -7553877.501 8  -5870962.69746  23139664.017    23139674.3094
  24370418.150     -353213.171 7   -255778.10045  24370432.476    24370443.7594
 00  5  6  2 38  0.0000000  0  8 17 09 15 21 23 29 05 30
  24265154.799    -3230304.999 7  -2499339.77744  24265162.367    24265174.3144
  22016275.820   -13102723.216 8 -10174709.19547  22016278.913    22016286.6344
  21861421.947   -12979833.229 8 -10092967.03847  21861423.695    21861431.8834
  20788256.362   -22114613.133 9 -17222224.80747  20788258.658    20788266.3294
  20804913.614   -21411847.856 9 -16675882.74647  20804917.281    20804925.3794
  21002092.269   -20210689.165 9 -15725278.35547  21002096.221    21002103.0924
  23128174.990    -7614217.738 8  -5917980.99646  23128181.721    23128193.1464
  24352453.759     -447644.733 7   -329361.01245  24352463.116    24352472.8754
 00  5  6  2 38 30.0000000  0  8 17 09 15 21 23 29 05 30
  24288394.430    -3108226.603 7  -2404213.88844  24288395.648    24288407.9294
  22031960.567   -13020310.235 8 -10110491.33447  22031962.147    22031969.3114
  21853198.394   -13023014.954 8 -10126615.09646  21853204.979    21853214.9044
  20778126.594   -22167845.223 9 -17263704.31347  20778128.869    20778136.6814
  20809839.478   -21385973.312 9 -16655720.78247  20809841.038    20809848.9844
  20995934.781   -20243047.672 9 -15750492.76147  20995938.419    20995945.4244
  23116753.144    -7674207.294 8  -5964726.00446  23116765.626    23116776.8254
  24334485.521     -542066.255 7   -402936.09145  24334495.400    24334505.2244
 00  5  6  2 39  0.0000000  0  8 17 09 15 21 23 29 05 30
  24311622.460    -2986109.317 7  -2309057.67444  24311636.583    24311646.7364
  22047712.430   -12937524.906 8 -10045983.33247  22047714.932    22047723.6714
  21845096.393   -13065605.252 8 -10159802.31146  21845100.269    21845109.9154
  20768054.439   -22220764.767 9 -17304940.29247  20768058.625    20768065.9904
  20814833.684   -21359713.574 9 -16635258.67047  20814838.397    20814845.8834
  20989818.400   -20275189.715 9 -15775538.48147  20989822.050    20989828.7684
  23105419.802    -7733843.561 8  -6011195.75846  23105418.634    23105428.2334
  24316528.908     -636474.982 7   -476501.20345  24316527.378    24316540.1854
 00  5  6  2 39 30.0000000  0  8 17 09 15 21 23 29 05 30
  24334883.182    -2863956.086 7  -2213873.46545  24334880.271    24334891.2204
  22063536.446   -12854370.077 8  -9981187.42947  22063539.116    22063547.1724
  21837105.868   -13107602.616 8 -10192527.50047  21837109.294    21837118.4014
  20758044.667   -22273369.602 9 -17345931.05247  20758048.312    20758055.4004
  20819907.037   -21333068.014 9 -16614495.91447  20819908.939    20819916.5284
  20983743.104   -20307115.707 9 -15800415.83247  20983747.020    20983753.5334
  23094131.318    -7793123.838 8  -6057388.10346  23094137.845    23094146.6584
  24298558.004     -730867.465 7   -550053.68545  24298567.055    24298577.6864
 00  5  6  2 40  0.0000000  0  8 17 09 15 21 23 29 05 30
  24358136.673    -2741769.714 7  -2118663.47244  24358132.143    24358142.2784
  22079430.235   -12770848.228 8  -9916105.50947  22079432.786    22079440.8674
  21829227.761   -13149005.576 8 -10224789.51446  21829230.325    21829238.7384
  20748094.897   -22325657.321 9 -17386674.67047  20748097.981    20748105.5164
  20825048.283   -21306036.201 9 -16593432.18447  20825052.605    20825060.8374
  20977707.630   -20338825.725 9 -15825124.92247  20977712.765    20977719.5204
  23082919.965    -7852044.991 8  -6103300.63346  23082925.513    23082934.1274
  24280593.051     -825241.135 7   -623591.45745  24280608.424    24280619.5534
 00  5  6  2 40 30.0000000  0  8 17 09 15 21 23 29 05 30
  24381380.764    -2619552.975 7  -2023429.78844  24381389.961    24381398.5384
  22095395.208   -12686962.100 8  -9850739.72447  22095396.211    22095403.9434
  21821460.583   -13189812.504 8 -10256587.09146  21821464.901    21821472.7024
  20738205.808   -22377625.438 9 -17427169.25447  20738208.728    20738215.8934
  20830267.012   -21278617.652 9 -16572067.10447  20830270.474    20830278.2434
  20971714.950   -20370320.163 9 -15849666.01547  20971719.345    20971726.1914
  23071779.049    -7910604.514 8  -6148931.36146  23071782.303    23071791.1804
  24262661.448     -919592.774 7   -697112.08245  24262653.702    24262663.4614
 00  5  6  2 41  0.0000000  0  8 17 09 15 21 23 29 05 30
  24404659.272    -2497308.865 7  -1928174.77844  24404649.981    24404663.2504
  22111421.162   -12602714.386 8  -9785092.19247  22111427.625    22111436.3524
  21813807.941   -13230021.880 8 -10287919.02446  21813813.581    21813821.0534
  20728376.729   -22429272.464 9 -17467413.69947  20728380.797    20728388.1184
  20835559.199   -21250811.593 9 -16550400.06347  20835562.034    20835569.4604
  20965765.886   -20401599.304 9 -15874039.36547  20965767.278    20965773.7934
  23060705.740    -7968799.671 8  -6194278.16446  23060707.613    23060716.9894
  24244691.610    -1013919.628 7   -770613.35245  24244702.329    24244714.2604
 00  5  6  2 41 30.0000000  0  9 17 09 15 21 23 29 05 30 25
  24427928.034    -2375040.243 7  -1832900.68644  24427917.101    24427929.6264
  22127527.134   -12518108.234 8  -9719165.36747  22127528.362    22127535.9114
  21806271.118   -13269632.370 8 -10318784.30746  21806274.856    21806283.5174
  20718610.631   -22480596.018 9 -17507406.07647  20718614.423    20718621.4664
  20840925.092   -21222617.320 9 -16528430.52547  20840927.192    20840934.7294
  20959854.966   -20432663.185 9 -15898244.99247  20959856.106    20959863.1284
  23049695.165    -8026627.827 8  -6239338.99246  23049703.179    23049712.6664
  24226756.778    -1108218.605 7   -844092.95845  24226758.556    24226769.3274
  24713935.873    -3169260.23117  -2450355.32655  24713944.791    24713957.2804
 00  5  6  2 42  0.0000000  0  9 17 09 15 21 23 29 05 30 25
  24451180.566    -2252750.081 7  -1737609.80844  24451188.163    24451202.0894
  22143690.977   -12433146.240 8  -9652961.24847  22143695.128    22143703.4854
  21798846.702   -13308642.550 8 -10349181.81047  21798852.405    21798860.9254
  20708904.874   -22531593.236 9 -17547144.14147  20708909.504    20708916.8154
  20846361.298   -21194034.466 9 -16506158.19047  20846366.429    20846374.2884
  20953982.817   -20463512.141 9 -15922283.10447  20953985.886    20953992.8264
  23038770.326    -8084086.214 8  -6284111.68846  23038769.008    23038778.6744
  24208827.276    -1202486.876 8   -917548.62245  24208820.466    24208830.2304
  24694138.166    -3273298.487 7  -2531423.93345  24694147.247    24694158.1544
 00  5  6  2 42 30.0000000  0  9 17 09 15 21 23 29 05 30 25
  24474454.660    -2130441.343 7  -1642304.46144  24474461.247    24474477.1924
  22159926.447   -12347831.003 8  -9586481.89747  22159930.472    22159938.6984
  21791542.490   -13347050.920 8 -10379110.37347  21791544.143    21791552.6744
  20699265.193   -22582262.476 9 -17586626.66347  20699267.669    20699274.9504
  20851877.606   -21165062.396 9 -16483582.57147  20851879.345    20851887.3474
  20948152.200   -20494146.278 9 -15946153.84147  20948155.822    20948162.8684
  23027898.142    -8141172.195 8  -6328594.19246  23027906.438    23027915.4594
  24190875.399    -1296721.095 7   -990977.81245  24190888.732    24190896.6244
  24674371.848    -3377238.573 7  -2612416.07645  24674367.360    24674377.9174
 00  5  6  2 43  0.0000000  0  9 17 09 15 21 23 29 05 30 25
  24497739.921    -2008116.712 7  -1546986.68144  24497742.407    24497754.5574
  22176226.484   -12262165.350 8  -9519729.49347  22176232.453    22176240.3764
  21784343.459   -13384856.160 8 -10408568.97847  21784349.532    21784358.0394
  20689684.807   -22632601.498 9 -17625851.83247  20689688.489    20689696.2324
  20857465.481   -21135700.704 9 -16460703.36447  20857466.743    20857474.7494
  20942364.580   -20524565.887 9 -15969857.43147  20942367.403    20942374.4864
  23017113.904    -8197883.298 8  -6372784.60746  23017113.914    23017122.6844
  24172963.529    -1390918.495 7  -1064378.32045  24172961.816    24172973.0324
  24654606.005    -3481078.984 7  -2693330.49645  24654607.969    24654617.8224
 00  5  6  2 43 30.0000000  0  9 17 09 15 21 23 29 05 30 25
  24521016.811    -1885779.236 7  -1451658.91444  24521020.585    24521036.3134
  22192597.485   -12176152.263 8  -9452706.36246  22192600.154    22192607.8484
  21777268.688   -13422056.850 8 -10437556.49547  21777270.654    21777278.8754
  20680168.593   -22682608.260 9 -17664818.15047  20680172.574    20680180.3134
  20863126.049   -21105948.802 9 -16437520.08147  20863128.289    20863136.2744
  20936616.243   -20554771.179 9 -15993394.00047  20936619.373    20936626.4844
  23006383.981    -8254216.724 8  -6416680.72446  23006393.893    23006403.1294
  24155042.584    -1485076.025 8  -1137747.73845  24155044.416    24155055.6014
  24634848.117    -3584817.669 7  -2774165.69145  24634864.925    24634876.8284
 00  5  6  2 44  0.0000000  0  9 17 09 15 21 23 29 05 30 25
  24544306.402    -1763431.615 7  -1356323.27744  24544302.501    24544317.6544
  22209031.490   -12089794.356 8  -9385414.52946  22209033.364    22209041.4434
  21770301.255   -13458651.546 8 -10466071.79247  21770305.040    21770315.0164
  20670719.628   -22732280.640 9 -17703523.91947  20670720.568    20670727.7884
  20868860.672   -21075806.203 9 -16414032.36847  20868864.232    20868872.3144
  20930909.107   -20584762.392 9 -16016763.78047  20930912.558    20930919.0304
  22995745.932    -8310169.758 8  -6460280.40646  22995746.624    22995755.8354
  24137133.858    -1579190.565 8  -1211083.66745  24137135.936    24137146.1014
  24615150.640    -3688452.782 7  -2854920.17145  24615143.737    24615155.7654
 00  5  6  2 44 30.0000000  0  8 09 15 21 23 29 05 30 25
  22225523.939   -12003094.455 8  -9317856.23146  22225531.666    22225539.7954
  21763450.314   -13494638.974 8 -10494113.91746  21763457.635    21763465.7374
  20661329.477   -22781616.270 9 -17741967.32947  20661332.093    20661339.5114
  20874672.473   -21045272.488 9 -16390239.88947  20874674.971    20874682.6744
  20925241.595   -20614539.595 9 -16039966.75847  20925245.792    20925252.5484
  22985173.147    -8365739.772 8  -6503581.63746  22985171.326    22985182.2214
  24119227.521    -1673259.291 8  -1284383.85645  24119234.348    24119245.3314
  24595444.840    -3791982.399 7  -2935592.44545  24595444.758    24595455.8154
 00  5  6  2 45  0.0000000  0  8 09 15 21 23 29 05 30 25
  22242088.444   -11916055.262 8  -9250033.50746  22242095.360    22242102.2204
  21756727.277   -13530017.882 8 -10521681.86947  21756726.438    21756734.2584
  20652004.996   -22830613.234 9 -17780146.77148  20652008.248    20652015.6294
  20880556.756   -21014347.159 9 -16366142.25147  20880559.797    20880567.4494
  20919617.327   -20644103.179 9 -16063003.28347  20919620.104    20919626.8154
  22974662.876    -8420924.127 8  -6546582.35146  22974670.051    22974680.7504
  24101344.582    -1767279.016 8  -1357645.87245  24101343.398    24101354.0104
  24575756.666    -3895405.157 8  -3016181.42145  24575764.143    24575774.0814
 00  5  6  2 45 30.0000000  0  8 09 15 21 23 29 05 30 25
  22258721.258   -11828679.495 8  -9181948.53846  22258722.029    22258729.5934
  21750107.279   -13564787.068 8 -10548774.69947  21750109.984    21750118.0694
  20642745.410   -22879269.306 9 -17818060.57448  20642749.146    20642756.9244
  20886514.183   -20983029.796 9 -16341739.12947  20886519.155    20886527.2124
  20914032.096   -20673453.193 9 -16085873.40347  20914035.102    20914041.2994
  22964241.324    -8475720.098 8  -6589280.44846  22964242.966    22964252.7004
  24083460.064    -1861246.966 8  -1430867.54145  24083461.632    24083472.1274
  24556109.493    -3998719.130 8  -3096685.61545  24556104.421    24556113.7154
 00  5  6  2 46  0.0000000  0  8 09 15 21 23 29 05 30 25
  22275408.616   -11740970.285 8  -9113603.75446  22275412.111    22275420.1144
  21743604.887   -13598945.144 8 -10575391.34047  21743609.587    21743617.2794
  20633552.537   -22927581.681 9 -17855706.59547  20633555.350    20633562.9624
  20892550.637   -20951319.849 9 -16317030.11147  20892553.665    20892561.4664
  20908486.987   -20702590.016 9 -16108577.44247  20908490.411    20908496.7164
  22953887.391    -8530125.086 8  -6631673.87346  22953890.134    22953899.5014
  24065592.420    -1955159.924 8  -1504046.37145  24065590.763    24065600.4764
  24536457.873    -4101922.427 8  -3177103.58345  24536465.654    24536474.3684
 00  5  6  2 46 30.0000000  0  8 09 15 21 23 29 05 30 25
  22292162.498   -11652930.250 8  -9045001.18646  22292166.167    22292173.8674
  21737224.173   -13632491.008 8 -10601530.93547  21737226.208    21737233.5594
  20624423.055   -22975548.222 9 -17893083.10047  20624427.983    20624435.3074
  20898659.837   -20919216.970 9 -16292014.90547  20898662.844    20898670.4144
  20902982.894   -20731513.746 9 -16131115.43647  20902987.057    20902993.1004
  22943605.112    -8584136.378 8  -6673760.52546  22943611.821    22943621.7504
  24047731.016    -2049015.004 8  -1577180.08645  24047730.594    24047742.3344
  24516842.951    -4205013.291 8  -3257434.00945  24516847.029    24516855.8904
 00  5  6  2 47  0.0000000  0  8 09 15 21 23 29 05 30 25
  22308977.219   -11564562.464 8  -8976143.22146  22308981.575    22308989.9324
  21730952.819   -13665423.355 8 -10627192.44147  21730959.093    21730967.5224
  20615362.551   -23023167.403 9 -17930188.97147  20615366.145    20615374.0874
  20904843.361   -20886720.702 9 -16266693.15947  20904846.400    20904854.2424
  20897519.612   -20760224.617 9 -16153487.51447  20897523.355    20897529.7564
  22933408.813    -8637751.550 8  -6715538.51346  22933408.885    22933419.2414
  24029883.092    -2142809.020 8  -1650266.24145  24029882.383    24029893.4114
  24497249.694    -4307990.255 7  -3337675.65845  24497251.371    24497260.7924
 00  5  6  2 47 30.0000000  0  8 09 15 21 23 29 05 30 25
  22325856.192   -11475869.289 8  -8907031.70846  22325859.533    22325867.6814
  21724805.335   -13697741.199 8 -10652375.14047  21724808.663    21724817.7204
  20606368.604   -23070436.560 9 -17967022.06548  20606371.409    20606379.2394
  20911101.207   -20853830.715 9 -16241064.62047  20911105.367    20911113.1744
  20892097.519   -20788722.874 9 -16175693.93347  20892100.057    20892107.0704
  22923277.818    -8690968.112 8  -6757005.90546  22923282.322    22923292.1994
  24012048.273    -2236538.837 8  -1723302.37345  24012046.789    24012056.4254
  24477675.627    -4410851.482 8  -3417827.09345  24477676.934    24477687.3484
 00  5  6  2 48  0.0000000  0  8 09 15 21 23 29 05 30 25
  22342791.095   -11386853.643 8  -8837668.92346  22342797.864    22342807.1174
  21718772.492   -13729442.962 8 -10677077.76447  21718776.442    21718784.1434
  20597440.931   -23117353.994 9 -18003581.07848  20597443.364    20597450.9994
  20917436.909   -20820546.511 9 -16215128.90847  20917439.440    20917446.9224
  20886711.215   -20817008.529 9 -16197734.69547  20886716.862    20886724.6534
  22913225.924    -8743783.379 8  -6798160.59246  22913232.410    22913241.3644
  23994218.288    -2330201.326 8  -1796286.04545  23994222.156    23994232.2004
  24458118.707    -4513594.749 7  -3497886.60445  24458125.302    24458135.3804
 00  5  6  2 48 30.0000000  0  8 09 15 21 23 29 05 30 25
  22359791.059   -11297518.194 8  -8768056.95646  22359798.661    22359806.5844
  21712856.719   -13760527.641 8 -10701299.55347  21712861.451    21712869.2574
  20588580.563   -23163917.379 9 -18039864.23048  20588582.817    20588590.2094
  20923845.120   -20786867.571 9 -16188885.60647  20923847.782    20923855.5834
  20881370.085   -20845082.030 9 -16219610.15647  20881374.847    20881382.3094
  22903255.579    -8796194.773 8  -6839000.55646  22903258.313    22903267.7604
  23976413.609    -2423793.516 8  -1869214.92345  23976412.218    23976423.5604
  24438582.335    -4616218.694 7  -3577853.17645  24438595.754    24438607.0944
 00  5  6  2 49  0.0000000  0  8 09 15 21 23 29 05 30 25
  22376855.903   -11207865.836 8  -8698198.00446  22376859.113    22376866.9304
  21707062.929   -13790994.389 8 -10725039.84047  21707064.216    21707071.6754
  20579786.934   -23210124.382 9 -18075869.66748  20579789.659    20579797.1994
  20930328.027   -20752793.646 9 -16162334.53147  20930332.019    20930339.9874
  20876069.636   -20872943.467 9 -16241320.34247  20876073.347    20876080.2554
  22893358.042    -8848199.597 8  -6879523.73646  22893362.011    22893371.6784
  23958614.024    -2517312.615 8  -1942086.85146  23958616.141    23958626.6944
  24419093.774    -4718721.546 8  -3657725.36645  24419091.244    24419100.6174
 00  5  6  2 49 30.0000000  0  8 09 15 21 23 29 05 30 25
  22393977.128   -11117899.315 8  -8628094.27846  22393979.395    22393987.0404
  21701380.776   -13820842.135 8 -10748297.75847  21701384.002    21701391.1424
  20571062.069   -23255972.670 9 -18111595.61048  20571065.148    20571072.5714
  20936889.158   -20718324.348 9 -16135475.36147  20936891.549    20936899.1924
  20870808.944   -20900593.103 9 -16262865.49947  20870811.972    20870817.9584
  22883540.380    -8899795.555 8  -6919728.31646  22883543.515    22883552.9344
  23940833.176    -2610755.308 8  -2014899.24246  23940834.662    23940845.0034
  24399605.957    -4821101.225 7  -3737501.60445  24399608.531    24399619.3474
 00  5  6  2 50  0.0000000  0  8 09 15 21 23 29 05 30 25
  22411151.632   -11027621.436 8  -8557747.93946  22411158.689    22411167.2844
  21695818.974   -13850070.000 8 -10771072.67947  21695821.846    21695829.1674
  20562406.316   -23301460.702 9 -18147040.82148  20562409.000    20562416.3954
  20943522.812   -20683459.420 9 -16108307.91247  20943525.839    20943533.8594
  20865586.350   -20928030.930 9 -16284245.63847  20865590.378    20865597.0844
  22873795.281    -8950980.207 8  -6959612.40746  22873803.166    22873813.5114
  23923055.136    -2704118.484 8  -2087649.68645  23923067.881    23923078.5404
  24380137.904    -4923356.162 7  -3817180.63745  24380150.160    24380160.2874
 00  5  6  2 50 30.0000000  0  8 09 15 21 23 29 05 30 25
  22428394.122   -10937035.138 8  -8487161.27146  22428397.032    22428405.1464
  21690374.347   -13878676.731 8 -10793363.60347  21690378.057    21690386.1754
  20553818.800   -23346585.788 9 -18182203.22148  20553821.864    20553829.3574
  20950234.290   -20648198.355 9 -16080831.77747  20950235.889    20950243.7194
  20860405.954   -20955257.381 9 -16305461.06647  20860409.263    20860415.7674
  22864137.256    -9001750.652 8  -6999173.72946  22864142.024    22864151.4224
  23905316.905    -2797399.250 8  -2160335.90945  23905317.704    23905327.9974
  24360721.181    -5025485.026 7  -3896761.41945  24360715.380    24360724.4694
 00  5  6  2 51  0.0000000  0  8 09 15 21 23 29 05 30 25
  22445687.955   -10846142.775 8  -8416336.10846  22445692.544    22445700.9274
  21685044.801   -13906661.386 8 -10815169.78747  21685052.003    21685061.2784
  20545299.623   -23391345.207 9 -18217080.67648  20545304.242    20545311.7794
  20957017.950   -20612540.887 9 -16053046.76747  20957021.352    20957028.8874
  20855265.487   -20982272.475 9 -16326511.76547  20855268.629    20855275.0964
  22854557.510    -9052104.808 8  -7038410.68246  22854560.812    22854568.5314
  23887573.784    -2890594.460 8  -2232955.44145  23887582.052    23887593.2104
  24341290.909    -5127485.842 7  -3976242.42745  24341305.157    24341315.1654
 00  5  6  2 51 30.0000000  0  8 09 15 21 23 29 05 30 25
  22463047.052   -10754947.344 8  -8345274.80246  22463046.075    22463055.2904
  21679843.041   -13934023.092 8 -10836490.56447  21679845.909    21679855.0984
  20536853.363   -23435737.689 9 -18251672.22348  20536856.618    20536864.0134
  20963880.310   -20576486.663 9 -16024952.60347  20963882.474    20963889.8014
  20850163.048   -21009076.481 9 -16347398.01547  20850167.786    20850174.6414
  22845053.459    -9102040.350 8  -7077321.43546  22845057.844    22845067.0944
  23869861.993    -2983700.751 8  -2305505.74145  23869864.500    23869875.8324
  24321911.680    -5229356.861 7  -4055622.29645  24321918.747    24321929.7204
 00  5  6  2 52  0.0000000  0  8 09 15 21 23 29 05 30 25
  22480456.944   -10663451.662 8  -8273979.54446  22480457.424    22480465.6844
  21674754.517   -13960760.788 8 -10857325.10647  21674758.381    21674765.8974
  20528478.415   -23479760.847 9 -18285975.96948  20528479.724    20528486.7914
  20970816.382   -20540035.331 9 -15996548.99447  20970818.663    20970826.0784
  20845103.935   -21035669.479 9 -16368119.82347  20845107.575    20845113.8704
  22835634.113    -9151554.659 8  -7115903.94846  22835635.253    22835644.5564
  23852164.494    -3076715.351 8  -2377984.56346  23852165.266    23852175.9594
  24302550.461    -5331096.184 8  -4134899.54145  24302558.958    24302569.3834
 00  5  6  2 52 30.0000000  0  8 09 15 21 23 29 05 30 25
  22497924.568   -10571658.871 8  -8202452.73446  22497925.553    22497933.7484
  21669784.911   -13986873.405 8 -10877672.56447  21669789.017    21669797.1894
  20520169.051   -23523412.573 9 -18319990.29548  20520172.959    20520180.0084
  20977827.470   -20503186.624 9 -15967835.74047  20977830.490    20977837.9634
  20840082.745   -21062051.831 9 -16388677.51347  20840087.102    20840093.5204
  22826291.236    -9200645.257 8  -7154156.31346  22826294.111    22826302.7374
  23834483.826    -3169635.172 8  -2450389.53346  23834483.060    23834493.1424
  24283219.137    -5432702.021 8  -4214072.81745  24283224.520    24283233.9854
 00  5  6  2 53  0.0000000  0  8 09 15 21 23 29 05 30 25
  22515440.884   -10479571.260 8  -8130696.23046  22515448.797    22515457.9594
  21664936.836   -14012360.340 8 -10897532.49047  21664939.399    21664947.4024
  20511935.100   -23566690.504 9 -18353713.34848  20511937.394    20511944.3754
  20984915.824   -20465940.417 9 -15938812.75147  20984918.223    20984925.9074
  20835103.620   -21088223.650 9 -16409071.12247  20835106.915    20835113.4394
  22817026.492    -9249309.649 8  -7192076.55546  22817033.261    22817042.8024
  23816812.109    -3262457.036 8  -2522718.14645  23816818.623    23816830.1674
  24263911.155    -5534172.908 8  -4293140.94045  24263915.820    24263923.6914
 00  5  6  2 53 30.0000000  0  8 09 15 21 23 29 05 30 25
  22533025.610   -10387191.693 8  -8058712.17246  22533027.535    22533036.8734
  21660202.820   -14037220.586 8 -10916904.09447  21660207.617    21660215.9324
  20503770.853   -23609592.459 9 -18387143.43248  20503773.601    20503780.8414
  20992081.164   -20428296.429 9 -15909479.80347  20992081.883    20992089.3244
  20830164.128   -21114185.045 9 -16429300.77147  20830166.444    20830173.3604
  22807851.930    -9297545.501 8  -7229662.87046  22807853.911    22807863.7674
  23799170.668    -3355177.804 8  -2594968.01045  23799175.380    23799186.8424
  24244624.764    -5635507.175 8  -4372102.62245  24244631.359    24244639.6644
 00  5  6  2 54  0.0000000  0  8 09 15 21 23 29 05 30 25
  22550658.390   -10294522.928 8  -7986502.80546  22550662.537    22550672.3344
  21655594.666   -14061453.317 8 -10935786.70747  21655596.859    21655604.3674
  20495677.666   -23652116.409 9 -18420278.97348  20495681.530    20495688.9184
  20999317.911   -20390254.343 9 -15879836.65047  20999321.015    20999328.7664
  20825262.334   -21139936.111 9 -16449366.50647  20825266.377    20825272.6924
  22798749.810    -9345350.359 8  -7266913.35646  22798756.231    22798765.8884
  23781545.627    -3447794.180 8  -2667136.52445  23781550.919    23781562.1054
  24225373.822    -5736703.070 7  -4450956.46145  24225374.608    24225383.9264
 00  5  6  2 54 30.0000000  0  8 09 15 21 23 29 05 30 25
  22568348.851   -10201567.743 8  -7914070.25446  22568350.892    22568360.3894
  21651102.835   -14085057.761 9 -10954179.77047  21651105.890    21651113.0304
  20487657.202   -23694260.374 9 -18453118.41148  20487661.237    20487669.0704
  21006631.260   -20351813.949 9 -15849883.13347  21006636.045    21006644.0114
  20820401.812   -21165477.200 9 -16469268.62647  20820405.960    20820412.9154
  22789739.111    -9392721.920 8  -7303826.19646  22789741.846    22789752.2424
  23763942.490    -3540303.322 8  -2739221.51645  23763946.635    23763957.3544
  24206141.700    -5837758.892 7  -4529701.07945  24206143.948    24206153.4454
 00  5  6  2 55  0.0000000  0  8 09 15 21 23 29 05 30 25
  22586088.502   -10108328.934 8  -7841416.70046  22586094.393    22586103.3254
  21646729.920   -14108033.243 8 -10972082.73647  21646732.695    21646741.2204
  20479712.276   -23736022.195 9 -18485660.09548  20479714.437    20479721.9664
  21014021.017   -20312974.810 9 -15819618.89247  21014027.027    21014034.8324
  20815579.997   -21190808.302 9 -16489007.15047  20815585.220    20815592.4824
  22780808.973    -9439657.643 8  -7340399.45246  22780811.000    22780820.2924
  23746352.207    -3632702.357 8  -2811220.67545  23746363.718    23746373.7074
  24186935.703    -5938672.679 8  -4608335.06845  24186940.716    24186950.0224
 00  5  6  2 55 30.0000000  0  8 09 15 21 23 29 05 30 25
  22603889.882   -10014809.094 8  -7768544.14646  22603890.849    22603899.7954
  21642479.263   -14130378.764 8 -10989494.81047  21642480.662    21642488.8644
  20471836.589   -23777399.828 9 -18517902.40248  20471840.793    20471848.0934
  21021491.905   -20273736.625 9 -15789043.71447  21021493.794    21021501.2904
  20810802.734   -21215929.768 9 -16508582.33047  20810805.471    20810812.0194
  22771960.808    -9486155.192 8  -7376631.24946  22771962.129    22771972.0914
  23728806.998    -3724987.723 8  -2883131.30645  23728801.735    23728812.8434
  24167765.717    -6039443.088 8  -4686857.31045  24167764.836    24167774.0354
 00  5  6  2 56  0.0000000  0  8 09 15 21 23 29 05 30 25
  22621727.666    -9921011.193 8  -7695454.91946  22621739.495    22621748.0044
  21638347.400   -14152093.854 8 -11006415.63647  21638348.971    21638355.7204
  20464036.653   -23818391.159 9 -18549843.69248  20464040.017    20464047.6854
  21029034.335   -20234099.374 9 -15758157.57847  21029036.479    21029044.2274
  20806062.346   -21240841.529 9 -16527994.06647  20806064.706    20806071.6804
  22763197.912    -9532212.194 8  -7412519.77746  22763199.146    22763207.9634
  23711261.681    -3817156.527 8  -2954951.04746  23711263.592    23711274.1964
  24148605.657    -6140067.933 8  -4765266.15645  24148616.701    24148625.5934
 00  5  6  2 56 30.0000000  0  8 09 15 21 23 29 05 30 25
  22639640.154    -9826938.102 8  -7622151.24646  22639640.482    22639650.7734
  21634331.484   -14173177.657 8 -11022844.56047  21634335.583    21634343.6524
  20456312.216   -23858993.816 9 -18581482.10848  20456314.076    20456321.2834
  21036653.698   -20194062.957 9 -15726960.39547  21036655.163    21036662.8064
  20801359.870   -21265543.929 9 -16547242.62648  20801363.758    20801370.8634
  22754511.654    -9577826.649 8  -7448063.45446  22754519.173    22754528.2064
  23693743.442    -3909205.631 8  -3026677.52446  23693747.113    23693757.3324
  24129494.428    -6240546.144 8  -4843560.77245  24129495.736    24129503.7724
 00  5  6  2 57  0.0000000  0  8 09 15 21 23 29 05 30 25
  22657596.080    -9732592.257 8  -7548635.09046  22657594.493    22657603.5584
  21630441.758   -14193629.449 8 -11038781.00947  21630443.725    21630451.9874
  20448658.712   -23899205.271 9 -18612815.70548  20448662.075    20448669.5254
  21044346.199   -20153627.152 9 -15695452.00847  21044349.923    21044357.5204
  20796699.754   -21290037.215 9 -16566328.28848  20796703.273    20796709.8204
  22745922.257    -9622995.956 8  -7483260.25746  22745922.397    22745932.2334
  23676244.347    -4001131.875 8  -3098308.25246  23676252.903    23676264.1384
  24110390.533    -6340875.575 7  -4921739.42545  24110403.047    24110412.0874
 00  5  6  2 57 30.0000000  0  8 09 15 21 23 29 05 30 25
  22675597.356    -9637976.595 8  -7474908.64046  22675600.261    22675609.0564
  21626669.958   -14213448.686 8 -11054224.55347  21626673.031    21626680.5464
  20441080.617   -23939024.407 9 -18643843.58148  20441084.361    20441092.2664
  21052116.659   -20112791.842 9 -15663632.31747  21052120.829    21052128.3684
  20792078.419   -21314321.556 9 -16585251.13547  20792081.507    20792088.4874
  22737407.436    -9667717.861 8  -7518108.42746  22737412.517    22737421.3614
  23658772.997    -4092932.068 8  -3169840.75146  23658783.960    23658795.2224
  24091336.405    -6441055.130 7  -4999801.32945  24091339.341    24091349.4784
 00  5  6  2 58  0.0000000  0  8 09 15 21 23 29 05 30 25
  22693656.584    -9543093.959 8  -7400974.20446  22693655.726    22693664.6174
  21623020.135   -14232634.930 8 -11069174.85447  21623022.154    21623029.5164
  20433580.724   -23978448.343 9 -18674563.52848  20433582.610    20433589.9054
  21059964.470   -20071556.669 9 -15631501.03947  21059967.357    21059975.4234
  20787496.873   -21338396.745 9 -16604010.99547  20787499.719    20787507.3694
  22728985.334    -9711990.120 8  -7552606.23046  22728987.931    22728997.0684
  23641340.408    -4184603.107 8  -3241272.64646  23641339.450    23641350.1864
  24072303.447    -6541082.829 7  -5077744.87445  24072304.651    24072315.8504
 00  5  6  2 58 30.0000000  0  8 09 15 21 23 29 05 30 25
  22711757.503    -9447946.979 8  -7326833.74746  22711761.498    22711769.3774
  21619489.406   -14251187.482 8 -11083631.37547  21619491.697    21619499.5904
  20426153.200   -24017475.052 9 -18704973.94448  20426155.963    20426163.3654
  21067887.522   -20029921.795 9 -15599058.31147  21067890.024    21067898.2904
  20782954.435   -21362263.386 9 -16622608.39447  20782958.386    20782965.4314
  22720646.915    -9755810.496 8  -7586751.93746  22720649.671    22720658.3814
  23623914.978    -4276141.956 8  -3312601.50546  23623920.023    23623930.8114
  24053294.714    -6640956.857 8  -5155568.66246  24053300.155    24053310.9134
 00  5  6  2 59  0.0000000  0  8 09 15 21 23 29 05 30 25
  22729907.618    -9352538.580 8  -7252489.58746  22729917.147    22729926.1224
  21616078.931   -14269105.573 8 -11097593.51347  21616081.388    21616090.6034
  20418801.632   -24056102.315 9 -18735073.10948  20418805.071    20418812.7464
  21075885.407   -19987886.893 9 -15566303.88047  21075888.913    21075897.0944
  20778452.299   -21385921.464 9 -16641043.30347  20778456.372    20778463.2964
  22712395.925    -9799176.534 8  -7620543.62146  22712397.024    22712405.3124
  23606522.550    -4367545.241 8  -3383824.73046  23606527.000    23606537.2694
  24034321.112    -6740675.625 8  -5233271.49746  24034324.647    24034334.1544
 00  5  6  2 59 30.0000000  0  8 09 15 21 23 29 05 30 25
  22748121.912    -9256871.205 8  -7177943.65546  22748121.952    22748130.3834
  21612787.331   -14286388.946 8 -11111061.06447  21612792.507    21612800.7144
  20411528.752   -24094328.319 9 -18764859.60248  20411531.282    20411538.5624
  21083958.147   -19945451.876 9 -15533237.66847  21083964.275    21083972.2514
  20773988.015   -21409370.986 9 -16659315.69048  20773994.466    20774001.5044
  22704228.475    -9842086.227 8  -7653979.68946  22704230.901    22704240.6474
  23589161.598    -4458809.866 8  -3454939.91946  23589160.320    23589169.2644
  24015370.555    -6840237.526 8  -5310852.07546  24015378.527    24015387.5714
 00  5  6  3  0  0.0000000  0  8 09 15 21 23 29 05 30 25
  22766368.428    -9160947.636 8  -7103198.04746  22766375.400    22766384.0284
  21609620.887   -14303037.135 8 -11124033.66647  21609624.581    21609632.3824
  20404330.392   -24132150.520 9 -18794331.44248  20404333.808    20404341.2014
  21092114.600   -19902616.491 9 -15499859.47147  21092115.658    21092123.6364
  20769569.140   -21432612.099 9 -16677425.64847  20769572.172    20769578.5004
  22696152.971    -9884537.474 8  -7687058.52746  22696152.330    22696161.9424
  23571806.734    -4549932.912 8  -3525944.77946  23571819.281    23571829.0944
  23996462.080    -6939640.455 8  -5388308.78846  23996461.979    23996471.6644
 00  5  6  3  0 30.0000000  0  8 09 15 21 23 29 05 30 25
  22784675.391    -9064770.398 8  -7028254.82746  22784678.065    22784686.9064
  21606573.249   -14319049.533 8 -11136510.82947  21606577.351    21606585.8254
  20397208.582   -24169567.505 9 -18823487.51948  20397213.206    20397221.1064
  21100339.783   -19859380.722 9 -15466169.29347  21100342.979    21100351.0614
  20765185.180   -21455644.889 9 -16695373.25747  20765188.715    20765195.4514
  22688161.938    -9926527.932 8  -7719778.32146  22688162.102    22688171.6154
  23554508.278    -4640911.061 8  -3596836.70646  23554507.009    23554517.4134
  23977569.117    -7038882.985 8  -5465640.53545  23977576.321    23977586.1554
 00  5  6  3  1  0.0000000  0  8 09 15 21 23 29 05 30 25
  22803026.992    -8968342.461 8  -6953116.22846  22803027.695    22803035.5364
  21603646.705   -14334425.853 8 -11148492.35347  21603651.373    21603658.9904
  20390167.227   -24206576.852 9 -18852325.96748  20390170.640    20390178.4804
  21108644.057   -19815744.561 9 -15432167.12547  21108646.788    21108654.6714
  20760840.587   -21478469.792 9 -16713158.87247  20760845.204    20760852.0014
  22680256.664    -9968055.303 8  -7752137.27146  22680259.522    22680268.8144
  23537218.828    -4731741.238 8  -3667613.36246  23537222.539    23537232.5834
  23958718.288    -7137963.911 8  -5542846.33245  23958720.462    23958730.4684
 00  5  6  3  1 30.0000000  0  8 09 15 21 23 29 05 30 25
  22821424.068    -8871666.357 8  -6877784.25446  22821424.295    22821432.7524
  21600845.649   -14349165.569 8 -11159977.82147  21600846.446    21600854.4584
  20383202.656   -24243176.633 9 -18880845.27248  20383205.901    20383213.6364
  21117022.111   -19771708.026 9 -15397852.97747  21117026.783    21117034.4374
  20756537.874   -21501086.877 9 -16730782.58147  20756541.616    20756548.0634
  22672445.540   -10009117.644 8  -7784133.84646  22672445.830    22672454.6424
  23519967.314    -4822420.308 8  -3738272.25846  23519966.602    23519976.9754
  23939892.877    -7236881.194 8  -5619924.68345  23939898.314    23939906.2704
 00  5  6  3  2  0.0000000  0  8 09 15 21 23 29 05 30 25
  22839865.374    -8774745.009 8  -6802261.20646  22839867.448    22839876.5804
  21598160.633   -14363268.214 8 -11170966.86647  21598162.807    21598171.0854
  20376317.343   -24279364.996 9 -18909043.97748  20376319.836    20376327.0824
  21125478.263   -19727271.047 9 -15363226.78647  21125482.931    21125490.6974
  20752273.849   -21523496.036 9 -16748244.25947  20752277.263    20752283.7624
  22664721.456   -10049712.734 8  -7815766.33346  22664721.604    22664729.4644
  23502737.578    -4912945.030 8  -3808810.87146  23502740.743    23502750.3664
  23921103.315    -7335633.385 8  -5696874.33645  23921107.116    23921115.4314
 00  5  6  3  2 30.0000000  0  8 09 15 21 23 29 05 30 25
  22858352.252    -8677581.096 8  -6726549.11546  22858357.439    22858365.6384
  21595594.207   -14376733.498 8 -11181459.27747  21595600.415    21595608.7214
  20369508.239   -24315139.720 9 -18936920.38048  20369511.955    20369519.6804
  21134012.108   -19682433.467 9 -15328288.43747  21134014.902    21134023.1044
  20748047.732   -21545697.647 9 -16765544.18947  20748052.078    20748058.8204
  22657078.846   -10089838.342 8  -7847033.00846  22657085.221    22657093.3284
  23485535.923    -5003312.416 8  -3879226.90246  23485543.331    23485553.3704
  23902342.034    -7434218.785 8  -5773694.06245  23902346.707    23902355.4334
 00  5  6  3  3  0.0000000  0  8 09 15 21 23 29 05 30 25
  22876888.787    -8580177.443 8  -6650650.22046  22876892.399    22876901.6504
  21593159.140   -14389561.198 8 -11191454.86547  21593160.152    21593167.9894
  20362782.306   -24350498.553 9 -18964472.69548  20362783.449    20362790.9834
  21142622.100   -19637195.400 9 -15293038.03347  21142623.905    21142631.6094
  20743863.633   -21567691.745 9 -16782682.44047  20743867.087    20743873.2234
  22649535.345   -10129492.327 8  -7877932.16146  22649539.341    22649547.9334
  23468372.768    -5093519.434 8  -3949518.00145  23468377.665    23468387.2674
  23883617.714    -7532635.770 8  -5850382.55346  23883618.340    23883627.5314
 00  5  6  3  3 30.0000000  0  8 09 15 21 23 29 05 30 25
  22895471.043    -8482536.636 8  -6574566.53646  22895473.829    22895482.5164
  21590840.589   -14401751.007 8 -11200953.40147  21590840.763    21590848.4384
  20356129.615   -24385438.960 9 -18991698.97748  20356134.356    20356141.9504
  21151304.598   -19591556.739 9 -15257475.47547  21151308.540    21151316.8794
  20739715.309   -21589478.503 9 -16799659.15547  20739720.757    20739727.3644
  22642083.374   -10168672.649 8  -7908462.25346  22642083.618    22642091.8244
  23451240.550    -5183562.672 8  -4019681.43145  23451243.663    23451253.2614
  23864915.304    -7630882.648 8  -5926938.49145  23864922.149    23864931.3044
 00  5  6  3  4  0.0000000  0  8 09 15 21 23 29 05 30 25
  22914095.931    -8384661.484 8  -6498300.22546  22914098.227    22914106.9204
  21588639.898   -14413302.432 8 -11209954.49747  21588642.385    21588649.7384
  20349561.220   -24419959.527 9 -19018598.10648  20349564.961    20349572.9494
  21160064.252   -19545517.456 9 -15221600.74747  21160069.730    21160077.6364
  20735610.215   -21611057.720 9 -16816474.11347  20735614.143    20735620.8454
  22634713.688   -10207377.289 8  -7938621.67346  22634717.550    22634727.1194
  23434133.723    -5273438.997 8  -4089714.81545  23434139.341    23434150.0524
  23846255.413    -7728957.967 8  -6003360.72345  23846258.379    23846268.1124
 00  5  6  3  4 30.0000000  0  8 09 15 21 23 29 05 30 25
  22932770.124    -8286554.325 8  -6421853.13046  22932767.465    22932776.4474
  21586562.095   -14424215.355 8 -11218458.05447  21586565.541    21586573.7954
  20343073.549   -24454057.968 9 -19045168.31948  20343076.855    20343084.0204
  21168905.707   -19499077.740 9 -15185413.97847  21168907.118    21168914.0914
  20731545.064   -21632429.906 9 -16833127.74747  20731547.405    20731554.0164
  22627443.471   -10245604.255 8  -7968408.87846  22627444.324    22627452.6494
  23417061.526    -5363145.151 8  -4159615.61345  23417068.346    23417078.2614
  23827627.689    -7826860.299 8  -6079648.20745  23827628.335    23827638.2344
 00  5  6  3  5  0.0000000  0  8 09 15 21 23 29 05 30 25
  22951469.175    -8188218.049 8  -6345227.51046  22951479.545    22951489.4714
  21584606.759   -14434489.675 8 -11226464.00847  21584610.023    21584618.3994
  20336664.517   -24487732.515 9 -19071408.21448  20336668.561    20336676.0644
  21177815.404   -19452237.388 9 -15148915.03247  21177819.930    21177827.9204
  20727517.326   -21653595.111 9 -16849620.11947  20727520.044    20727526.6804
  22620258.251   -10283351.575 8  -7997822.32746  22620260.820    22620269.7034
  23400030.402    -5452678.295 8  -4229381.55446  23400032.068    23400041.6534
  23809025.458    -7924587.579 8  -6155799.24945  23809032.298    23809041.9154
 00  5  6  3  5 30.0000000  0  8 09 15 21 23 29 05 30 25
  22970233.441    -8089655.260 8  -6268425.38646  22970235.423    22970245.4494
  21582772.673   -14444125.148 8 -11233972.16447  21582775.655    21582785.1524
  20330338.020   -24520981.203 9 -19097316.27548  20330341.662    20330349.2664
  21186807.363   -19404996.513 9 -15112103.99847  21186810.036    21186817.9784
  20723527.473   -21674553.230 9 -16865951.10947  20723531.899    20723538.4714
  22613167.037   -10320617.003 8  -8026860.26446  22613169.640    22613178.1364
  23383024.190    -5542034.982 8  -4299010.02646  23383028.357    23383037.9234
  23790471.717    -8022138.618 8  -6231813.00946  23790469.779    23790477.9154
 00  5  6  3  6  0.0000000  0  8 09 15 21 23 29 05 30 25
  22989027.413    -7990868.859 8  -6191449.01846  22989034.209    22989043.7754
  21581059.221   -14453121.401 8 -11240982.22747  21581064.500    21581073.0964
  20324093.516   -24553801.920 9 -19122890.85948  20324096.182    20324103.3754
  21195872.114   -19357355.299 9 -15074981.00747  21195875.977    21195883.8054
  20719579.872   -21695304.626 9 -16882121.03847  20719582.835    20719589.6234
  22606169.851   -10357398.763 8  -8055521.33846  22606170.056    22606179.3344
  23366056.227    -5631211.952 8  -4368498.45246  23366058.128    23366067.7394
  23771933.570    -8119511.672 8  -6307688.04045  23771938.930    23771947.3614
 00  5  6  3  6 30.0000000  0  8 09 15 21 23 29 05 30 25
  23007867.988    -7891861.340 8  -6114300.34846  23007874.461    23007884.6494
  21579470.862   -14461478.582 8 -11247494.31147  21579473.963    21579483.0984
  20317929.162   -24586192.688 9 -19148130.40948  20317932.359    20317939.4084
  21205013.536   -19309313.644 9 -15037545.98047  21205017.780    21205025.9604
  20715669.864   -21715849.220 9 -16898129.79747  20715673.608    20715680.1774
  22599263.756   -10393694.881 8  -8083803.98946  22599262.397    22599272.1544
  23349118.222    -5720206.181 8  -4437844.50346  23349123.272    23349131.7924
  23753439.903    -8216704.916 8  -6383423.00245  23753443.335    23753452.7574
 00  5  6  3  7  0.0000000  0  8 09 15 21 23 29 05 30 25
  23026748.833    -7792635.242 8  -6036981.34346  23026757.189    23026766.7444
  21578005.716   -14469196.500 8 -11253508.26747  21578006.077    21578014.6054
  20311847.394   -24618151.182 9 -19173033.12648  20311851.124    20311858.1664
  21214234.177   -19260871.813 9 -14999799.13347  21214236.081    21214244.0674
  20711800.862   -21736187.034 9 -16913977.43147  20711803.364    20711809.9964
  22592444.050   -10429503.277 8  -8111706.59346  22592448.312    22592458.1974
  23332224.565    -5809014.552 8  -4507045.72146  23332222.521    23332232.8134
  23734981.525    -8313717.061 8  -6459016.84245  23734982.078    23734991.4984
 00  5  6  3  7 30.0000000  0  8 09 15 21 23 29 05 30 25
  23045680.674    -7693193.269 8  -5959494.12746  23045680.697    23045690.1544
  21576655.924   -14476275.073 8 -11259024.01647  21576658.482    21576666.5964
  20305848.722   -24649675.663 9 -19197597.65948  20305851.781    20305859.2264
  21223524.419   -19212029.795 9 -14961740.44347  21223530.148    21223538.5724
  20707969.953   -21756318.400 9 -16929664.20547  20707972.385    20707978.8424
  22585723.571   -10464821.943 8  -8139227.58846  22585727.793    22585736.7664
  23315351.155    -5897633.960 8  -4576099.67346  23315358.807    23315369.2264
  23716549.398    -8410546.268 8  -6534468.10945  23716557.103    23716565.6144
 00  5  6  3  8  0.0000000  0  8 09 15 21 23 29 05 30 25
  23064640.166    -7593538.325 8  -5881840.95446  23064643.923    23064654.0924
  21575427.095   -14482714.249 8 -11264041.55347  21575432.492    21575441.5814
  20299933.551   -24680764.247 9 -19221822.52348  20299935.806    20299942.9314
  21232897.828   -19162787.703 9 -14923370.01847  21232901.090    21232908.9684
  20704177.148   -21776243.296 9 -16945190.10847  20704180.574    20704187.2084
  22579103.581   -10499648.984 8  -8166365.49146  22579100.486    22579109.6054
  23298531.932    -5986061.306 8  -4645004.00646  23298532.309    23298541.8114
  23698157.977    -8507191.057 8  -6609775.67746  23698166.674    23698175.0054
 00  5  6  3  8 30.0000000  0  8 09 15 21 23 29 05 30 25
  23083642.376    -7493672.894 8  -5804023.76046  23083647.281    23083657.3154
  21574328.772   -14488514.063 8 -11268560.90147  21574329.459    21574338.0634
  20294098.609   -24711415.093 9 -19245706.28848  20294102.972    20294110.5574
  21242345.506   -19113145.849 9 -14884688.09147  21242347.657    21242355.3094
  20700424.357   -21795961.884 9 -16960555.23447  20700428.227    20700435.1364
  22572562.298   -10533982.691 8  -8193118.99246  22572567.022    22572575.8404
  23281748.385    -6074293.033 8  -4713755.87446  23281742.223    23281752.2174
  23679813.365    -8603649.855 8  -6684938.31746  23679811.842    23679820.1194
 00  5  6  3  9  0.0000000  0  8 09 15 21 23 29 05 30 25
  23102686.230    -7393599.725 8  -5726044.71346  23102690.977    23102701.1864
  21573343.680   -14493674.526 8 -11272582.03447  21573347.711    21573355.3684
  20288351.951   -24741625.831 9 -19269247.12248  20288354.322    20288361.8144
  21251862.334   -19063104.298 9 -14845694.70547  21251869.862    21251878.2574
  20696713.320   -21815473.994 9 -16975759.46647  20696715.471    20696722.1694
  22566121.135   -10567820.940 8  -8219486.41746  22566127.564    22566137.0094
  23264987.097    -6162326.321 8  -4782353.09646  23264988.875    23265000.1284
  23661487.938    -8699921.091 8  -6759954.82146  23661490.563    23661500.1584
 00  5  6  3  9 30.0000000  0  8 09 15 21 23 29 05 30 25
  23121771.418    -7293321.519 8  -5647905.88446  23121773.742    23121783.1854
  21572482.174   -14498195.728 8 -11276105.03847  21572487.081    21572495.8044
  20282686.321   -24771394.433 9 -19292443.43348  20282689.311    20282696.9044
  21261462.679   -19012663.073 9 -14806389.89947  21261468.621    21261476.9114
  20693037.115   -21834780.192 9 -16990803.25548  20693041.709    20693048.4814
  22559775.048   -10601161.853 8  -8245466.30346  22559783.140    22559792.6904
  23248270.819    -6250158.031 8  -4850793.25946  23248275.689    23248285.8114
  23643204.690    -8796003.318 8  -6834824.03146  23643206.811    23643215.8754
 00  5  6  3 10  0.0000000  0  8 09 15 21 23 29 05 30 25
  23140885.631    -7192840.812 8  -5569609.26746  23140894.093    23140903.1514
  21571745.933   -14502077.754 8 -11279130.01147  21571748.172    21571756.7924
  20277107.991   -24800719.396 9 -19315294.05648  20277109.101    20277116.4664
  21271141.761   -18961822.346 9 -14766773.78147  21271143.419    21271151.5014
  20689406.060   -21853880.128 9 -17005686.30248  20689407.054    20689413.6784
  22553534.414   -10634003.515 8  -8271057.16846  22553533.965    22553542.7714
  23231602.425    -6337784.884 8  -4919073.80346  23231600.978    23231610.9794
  23624956.988    -8891894.843 8  -6909544.65745  23624958.135    23624967.7644
 00  5  6  3 10 30.0000000  0  8 09 15 21 23 29 05 30 25
  23160052.209    -7092160.160 8  -5491156.83146  23160053.007    23160062.7834
  21571128.071   -14505320.692 8 -11281656.97047  21571130.326    21571140.0884
  20271612.465   -24829598.920 9 -19337797.58248  20271613.835    20271620.8354
  21280889.775   -18910582.172 9 -14726846.41247  21280894.080    21280901.7024
  20685807.508   -21872774.125 9 -17020408.89148  20685811.712    20685818.2554
  22547372.273   -10666344.327 8  -8296257.74946  22547378.755    22547388.5234
  23214967.279    -6425203.635 8  -4987192.18446  23214966.327    23214975.0414
  23606744.390    -8987594.637 8  -6984115.87146  23606747.118    23606756.8944
 00  5  6  3 11  0.0000000  0  8 09 15 21 23 29 05 30 25
  23179242.158    -6991282.294 8  -5412550.74846  23179249.364    23179258.7014
  21570632.874   -14507924.629 8 -11283686.01747  21570634.990    21570644.5824
  20266199.748   -24858030.567 9 -19359952.10648  20266203.232    20266210.5134
  21290717.664   -18858943.032 9 -14686608.15747  21290721.045    21290728.4514
  20682253.250   -21891462.087 9 -17034970.94848  20682255.594    20682261.9144
  22541323.270   -10698182.376 8  -8321066.57246  22541321.100    22541329.9874
  23198360.707    -6512411.241 8  -5055146.06446  23198370.810    23198379.4904
  23588569.554    -9083100.751 8  -7058536.18646  23588573.980    23588582.5664
 00  5  6  3 11 30.0000000  0  8 09 15 21 23 29 05 30 25
  23198477.367    -6890209.556 8  -5333792.81146  23198482.543    23198492.9054
  21570258.088   -14509889.729 8 -11285217.27147  21570261.684    21570269.1544
  20260874.683   -24886012.319 9 -19381756.07248  20260878.266    20260885.7694
  21300621.720   -18806905.034 9 -14646059.09947  21300623.536    21300631.0104
  20678733.917   -21909944.093 9 -17049372.51648  20678738.804    20678745.0994
  22535357.413   -10729515.822 8  -8345482.22246  22535358.036    22535367.9684
  23181812.687    -6599404.474 8  -5122932.87446  23181815.786    23181825.7464
  23570433.173    -9178411.488 8  -7132804.26346  23570437.391    23570445.8364
 00  5  6  3 12  0.0000000  0  8 09 15 21 23 29 05 30 25
  23217752.434    -6788944.578 8  -5254885.05546  23217752.985    23217762.1424
  21570006.714   -14511216.227 8 -11286250.89147  21570009.448    21570016.8684
  20255636.791   -24913543.091 9 -19403208.61948  20255639.599    20255646.9454
  21310597.457   -18754468.420 9 -14605199.43947  21310601.541    21310609.5214
  20675256.599   -21928220.293 9 -17063613.70548  20675260.978    20675267.1634
  22529491.692   -10760342.945 8  -8369503.30146  22529491.641    22529500.7484
  23165307.115    -6686180.452 8  -5190550.37446  23165302.870    23165313.1064
  23552329.389    -9273525.415 8  -7206918.95646  23552337.213    23552346.0804
 00  5  6  3 12 30.0000000  0  8 09 15 21 23 29 05 30 25
  23237047.774    -6687490.447 8  -5175829.89546  23237059.010    23237068.6474
  21569877.344   -14511904.366 8 -11286787.10447  21569878.884    21569887.0024
  20250485.168   -24940620.524 9 -19424307.91348  20250487.252    20250494.3984
  21320653.175   -18701633.472 9 -14564029.39447  21320655.745    21320664.1354
  20671817.326   -21946290.699 9 -17077694.54148  20671821.652    20671828.3834
  22523720.772   -10790662.019 8  -8393128.52246  22523721.751    22523731.4654
  23148824.342    -6772735.749 8  -5257995.96946  23148832.055    23148840.9164
  23534276.340    -9368440.894 8  -7280879.01846  23534274.840    23534285.2194
 00  5  6  3 13  0.0000000  0  8 09 15 21 23 29 05 30 25
  23256402.002    -6585849.418 8  -5096629.12546  23256400.574    23256410.0424
  21569864.328   -14511954.371 8 -11286826.08447  21569868.568    21569876.8584
  20245418.739   -24967242.318 9 -19445052.15748  20245420.921    20245428.4034
  21330784.103   -18648400.429 9 -14522549.13547  21330785.480    21330793.8324
  20668419.001   -21964155.409 9 -17091615.07648  20668421.943    20668428.9674
  22518047.041   -10820471.405 8  -8416356.56046  22518049.489    22518058.5114
  23132392.338    -6859067.205 8  -5325267.10346  23132403.406    23132413.1574
  23516254.354    -9463156.808 8  -7354683.56446  23516251.609    23516260.0184
 00  5  6  3 13 30.0000000  0  8 09 15 21 23 29 05 30 25
  23275775.065    -6484023.855 8  -5017284.55446  23275778.142    23275786.6884
  21569978.208   -14511366.514 8 -11286368.00947  21569980.801    21569987.7554
  20240438.273   -24993407.269 9 -19465440.42748  20240441.766    20240449.3364
  21340989.746   -18594769.494 9 -14480758.84247  21340991.382    21340999.6534
  20665057.527   -21981814.530 9 -17105375.41648  20665061.578    20665068.6874
  22512471.562   -10849769.226 8  -8439185.99946  22512474.565    22512482.8904
  23116020.070    -6945171.558 8  -5392361.31946  23116018.581    23116028.0644
  23498265.136    -9557671.377 8  -7428331.22946  23498265.341    23498274.3534
 00  5  6  3 14  0.0000000  0  8 09 15 21 23 29 05 30 25
  23295191.437    -6382016.431 8  -4937798.27645  23295189.315    23295197.7734
  21570210.822   -14510141.305 8 -11285413.29847  21570213.653    21570222.0444
  20235546.431   -25019112.848 9 -19485470.74548  20235550.127    20235557.8514
  21351268.821   -18540740.972 9 -14438658.73647  21351272.450    21351280.8774
  20661737.933   -21999268.015 9 -17118975.52747  20661740.475    20661747.0684
  22506991.039   -10878553.933 8  -8461615.60646  22506997.100    22507005.8664
  23099669.438    -7031045.620 8  -5459276.06746  23099677.576    23099685.4714
  23480309.845    -9651983.283 8  -7501820.97846  23480319.045    23480327.4304
 00  5  6  3 14 30.0000000  0  8 09 15 21 23 29 05 30 25
  23314628.611    -6279829.844 8  -4858172.39546  23314635.184    23314643.4544
  21570566.102   -14508278.883 8 -11283962.07747  21570568.468    21570575.9154
  20230742.643   -25044357.486 9 -19505141.89148  20230745.881    20230754.0604
  21361624.434   -18486315.126 9 -14396249.02547  21361629.458    21361638.0444
  20658456.507   -22016515.771 9 -17132415.30847  20658458.520    20658464.6394
  22501609.421   -10906823.976 8  -8483644.18246  22501616.826    22501626.3404
  23083376.735    -7116686.595 8  -5526009.18246  23083379.883    23083388.7294
  23462407.991    -9746091.071 8  -7575151.70246  23462410.216    23462419.4734
 00  5  6  3 15  0.0000000  0  8 09 15 21 23 29 05 30 25
  23334120.074    -6177466.661 8  -4778408.91346  23334114.365    23334123.1984
  21571041.807   -14505779.884 8 -11282014.79447  21571043.632    21571051.9304
  20226026.548   -25069139.525 9 -19524452.56248  20226030.103    20226037.8824
  21372057.344   -18431492.246 9 -14353529.93047  21372061.966    21372070.6914
  20655211.880   -22033558.049 9 -17145694.99547  20655215.224    20655221.7044
  22496331.694   -10934577.398 8  -8505270.19146  22496335.531    22496344.2794
  23067124.548    -7202091.133 8  -5592558.05046  23067127.596    23067136.3274
  23444535.745    -9839993.092 8  -7648322.09846  23444541.432    23444550.6204
 00  5  6  3 15 30.0000000  0  8 09 15 21 23 29 05 30 25
  23353617.659    -6074929.565 8  -4698509.92346  23353626.081    23353635.3734
  21571634.493   -14502644.212 8 -11279571.43247  21571639.645    21571647.9914
  20221399.781   -25093456.614 9 -19543400.93848  20221402.900    20221410.3984
  21382568.497   -18376272.771 9 -14310501.80847  21382570.145    21382578.5324
  20652006.528   -22050395.028 9 -17158814.72847  20652011.065    20652017.7564
  22491150.051   -10961812.703 8  -8526492.47146  22491153.099    22491161.8994
  23050913.213    -7287255.980 8  -5658920.17146  23050921.398    23050930.4554
  23426711.634    -9933688.039 8  -7721331.14746  23426711.982    23426721.8124
 00  5  6  3 16  0.0000000  0  8 09 15 21 23 29 05 30 25
  23373165.102    -5972220.854 8  -4618477.18846  23373171.365    23373179.5324
  21572353.041   -14498872.485 8 -11276632.42947  21572358.097    21572366.0294
  20216861.442   -25117307.447 9 -19561986.00148  20216864.588    20216871.6894
  21393150.229   -18320656.867 9 -14267164.79047  21393153.533    21393162.2264
  20648842.869   -22067026.330 9 -17171774.18147  20648846.383    20648852.7884
  22486068.323   -10988528.423 8  -8547309.89846  22486069.570    22486078.1044
  23034759.747    -7372177.925 8  -5725092.97446  23034761.233    23034770.9814
  23408916.791   -10027174.031 8  -7794177.32346  23408922.303    23408931.9394
 00  5  6  3 16 30.0000000  0  8 09 15 21 23 29 05 30 25
  23392738.837    -5869343.211 8  -4538312.81046  23392747.507    23392756.7444
  21573196.271   -14494465.208 8 -11273198.19547  21573197.032    21573205.2594
  20212412.228   -25140689.928 9 -19580206.10948  20212414.639    20212422.0944
  21403810.219   -18264644.910 9 -14223519.16247  21403812.521    21403820.7204
  20645716.870   -22083452.396 9 -17184573.69947  20645720.428    20645727.1814
  22481085.996   -11014723.024 8  -8567721.22846  22481084.706    22481092.9754
  23018644.077    -7456853.947 8  -5791074.15446  23018648.245    23018657.5214
  23391168.591   -10120449.953 8  -7866859.83546  23391172.604    23391181.7194
 00  5  6  3 17  0.0000000  0  8 09 15 21 23 29 05 30 25
  23412360.344    -5766299.121 8  -4458018.75346  23412356.448    23412365.8744
  21574150.695   -14489423.076 8 -11269269.25947  21574156.176    21574164.5434
  20208052.623   -25163602.374 9 -19598059.95148  20208054.923    20208062.0194
  21414540.168   -18208237.506 9 -14179565.38547  21414545.921    21414554.2404
  20642631.521   -22099673.091 9 -17197213.20347  20642634.130    20642640.6314
  22476202.210   -11040394.902 8  -8587725.24246  22476200.186    22476208.4884
  23002578.181    -7541280.925 8  -5856861.27846  23002581.636    23002591.7994
  23373460.294   -10213514.173 8  -7939377.33646  23373462.911    23373472.4524
 00  5  6  3 17 30.0000000  0  8 09 15 21 23 29 05 30 25
  23431985.916    -5663091.149 8  -4377596.98746  23431996.506    23432005.5214
  21575231.607   -14483746.218 8 -11264845.73047  21575236.136    21575244.8334
  20203782.471   -25186042.729 9 -19615545.93848  20203784.947    20203791.7434
  21425354.851   -18151434.828 9 -14135303.59847  21425355.488    21425363.4684
  20639583.468   -22115688.400 9 -17209692.66548  20639586.938    20639592.8134
  22471410.180   -11065542.424 8  -8607320.67746  22471414.039    22471423.3514
  22986564.393    -7625455.579 8  -5922451.79346  22986564.219    22986573.2994
  23355789.179   -10306365.402 8  -8011728.85546  23355793.796    23355803.0664
 00  5  6  3 18  0.0000000  0  8 09 15 21 23 29 05 30 25
  23451668.676    -5559721.702 8  -4297049.39645  23451666.972    23451675.9424
  21576435.219   -14477435.386 8 -11259928.20447  21576437.904    21576445.3624
  20199602.311   -25208009.703 9 -19632663.05948  20199604.654    20199611.7474
  21436237.645   -18094237.345 9 -14090734.16847  21436239.924    21436247.9724
  20636573.909   -22131498.345 9 -17222012.08248  20636577.933    20636584.6094
  22466726.929   -11090164.130 8  -8626506.39046  22466728.325    22466738.1924
  22970589.236    -7709374.856 8  -5987843.34246  22970595.594    22970604.3554
  23338161.932   -10399001.960 8  -8083913.12946  23338165.886    23338175.5124
 00  5  6  3 18 30.0000000  0  8 09 15 21 23 29 05 30 25
  23471365.717    -5456193.457 8  -4216378.01945  23471367.437    23471376.4444
  21577754.133   -14470491.259 8 -11254517.18547  21577758.704    21577767.3834
  20195511.878   -25229501.332 9 -19649409.77848  20195514.688    20195522.0504
  21447195.838   -18036645.444 9 -14045857.40547  21447198.939    21447206.9964
  20633602.456   -22147103.057 9 -17234171.59748  20633608.169    20633614.9134
  22462141.677   -11114258.418 8  -8645281.13646  22462144.064    22462152.8604
  22954669.665    -7793035.675 8  -6053033.48646  22954674.114    22954683.5104
  23320575.363   -10491422.744 8  -8155929.27446  23320578.931    23320587.2014
 00  5  6  3 19  0.0000000  0  8 09 15 21 23 29 05 30 25
  23491096.965    -5352508.850 8  -4135584.83645  23491098.023    23491107.2954
  21579197.989   -14462914.223 8 -11248613.00947  21579201.064    21579209.0694
  20191513.479   -25250516.150 9 -19665784.95148  20191515.913    20191522.7124
  21458229.645   -17978659.512 9 -14000673.61247  21458233.942    21458241.8844
  20630673.962   -22162502.358 9 -17246171.05548  20630677.651    20630684.9324
  22457655.150   -11137823.643 8  -8663643.61846  22457659.288    22457667.8794
  22938800.613    -7876434.758 8  -6118019.67946  22938804.513    22938812.5044
  23303031.976   -10583626.100 8  -8227776.01046  23303033.147    23303042.2314
 00  5  6  3 19 30.0000000  0  8 09 15 21 23 29 05 30 25
  23510849.401    -5248670.224 8  -4054671.64945  23510858.298    23510867.4554
  21580761.326   -14454705.133 8 -11242216.32847  21580763.437    21580771.5134
  20187604.368   -25271051.929 9 -19681786.85448  20187608.135    20187614.9254
  21469339.921   -17920279.935 9 -13955183.08047  21469343.374    21469351.3124
  20627783.248   -22177696.381 9 -17258010.54548  20627786.917    20627793.3534
  22453272.030   -11160858.623 8  -8681592.92746  22453276.287    22453284.3464
  22922981.333    -7959568.997 8  -6182799.49846  22922985.006    22922992.8664
  23285517.129   -10675611.004 8  -8299452.49946  23285529.630    23285537.1374
 00  5  6  3 20  0.0000000  0  8 09 15 21 23 29 05 30 25
  23530654.292    -5144680.268 8  -3973640.58646  23530647.398    23530656.1364
  21582441.429   -14445864.528 8 -11235327.53747  21582444.986    21582453.6864
  20183789.130   -25291107.264 9 -19697414.38048  20183791.326    20183798.6854
  21480524.753   -17861507.245 9 -13909386.23447  21480527.057    21480535.4854
  20624932.493   -22192685.012 9 -17269689.98648  20624934.665    20624941.2524
  22448991.345   -11183361.845 8  -8699127.88646  22448993.702    22449001.9344
  22907211.504    -8042435.395 8  -6247370.62346  22907215.538    22907224.4084
  23268065.493   -10767375.596 8  -8370957.31946  23268066.739    23268074.6904
 00  5  6  3 20 30.0000000  0  8 09 15 21 23 29 05 30 25
  23550458.377    -5040541.450 8  -3892493.48245  23550463.277    23550472.9724
  21584244.774   -14436393.119 8 -11227947.23047  21584248.330    21584255.8704
  20180062.796   -25310680.012 9 -19712665.86748  20180066.629    20180074.2634
  21491782.969   -17802341.856 9 -13863283.38147  21491785.885    21491794.3924
  20622116.829   -22207468.417 9 -17281209.50848  20622121.377    20622127.9154
  22444809.697   -11205331.914 8  -8716247.39746  22444812.549    22444821.3254
  22891495.586    -8125030.880 8  -6311730.62046  22891497.317    22891506.1504
  23250647.052   -10858918.690 8  -8442289.55646  23250647.160    23250653.6074
 00  5  6  3 21  0.0000000  0  8 09 15 21 23 29 05 30 25
  23570303.563    -4936256.249 8  -3811232.31945  23570308.362    23570317.6394
  21586166.587   -14426291.541 8 -11220075.86947  21586169.865    21586177.9874
  20176432.881   -25329769.056 9 -19727540.44648  20176434.058    20176441.9244
  21503117.865   -17742784.405 9 -13816875.01947  21503119.495    21503127.4094
  20619343.925   -22222046.515 9 -17292569.06048  20619347.100    20619354.0934
  22440731.113   -11226767.614 8  -8732950.52746  22440733.798    22440741.6804
  22875832.109    -8207352.208 8  -6375877.00146  22875832.163    22875840.7904
  23233262.797   -10950238.673 8  -8513447.96146  23233269.159    23233277.2024
 00  5  6  3 21 30.0000000  0  8 09 15 21 23 29 05 30 25
  23590172.105    -4831827.243 8  -3729859.08745  23590181.333    23590189.6194
  21588207.577   -14415560.682 8 -11211714.15847  21588212.126    21588219.9764
  20172891.723   -25348372.657 9 -19742036.76048  20172894.352    20172901.5824
  21514525.471   -17682835.341 9 -13770161.51147  21514527.710    21514536.1584
  20616609.090   -22236419.386 9 -17303768.69448  20616611.817    20616618.9774
  22436748.565   -11247667.432 8  -8749236.07746  22436756.418    22436765.3644
  22860214.380    -8289396.182 8  -6439807.29046  22860220.200    22860227.5304
  23215933.569   -11041334.382 8  -8584431.58246  23215933.957    23215942.7624
 00  5  6  3 22  0.0000000  0  8 09 15 21 23 29 05 30 25
  23610070.913    -4727256.880 8  -3648375.69245  23610079.186    23610089.4624
  21590371.229   -14404201.162 8 -11202862.59147  21590373.725    21590382.2904
  20169443.457   -25366488.676 9 -19756153.13548  20169446.882    20169454.2094
  21526004.429   -17622495.008 9 -13723143.12247  21526009.958    21526017.9974
  20613911.706   -22250586.888 9 -17314808.30448  20613915.719    20613922.8854
  22432880.891   -11268030.148 8  -8765103.09546  22432882.045    22432890.5214
  22844656.734    -8371159.764 8  -6503519.07846  22844660.005    22844669.0474
  23198637.926   -11132203.938 8  -8655238.92046  23198641.865    23198650.5724
 00  5  6  3 22 30.0000000  0  9 09 15 21 11 23 29 05 30 25
  23630008.238    -4622547.278 8  -3566783.83445  23630004.745    23630015.4194
  21592654.161   -14392213.794 8 -11193521.77347  21592655.350    21592662.5474
  20166089.461   -25384115.604 9 -19769888.40748  20166092.282    20166099.7804
  24587179.236    -1489876.91017  -1153481.07355  24587176.299    24587186.8244
  21537559.862   -17561763.909 8 -13675820.24047  21537566.151    21537574.8824
  20611255.351   -22264549.203 9 -17325688.02348  20611258.948    20611266.1384
  22429109.183   -11287854.193 8  -8780550.39446  22429109.399    22429118.3954
  22829145.175    -8452639.748 8  -6567009.85546  22829155.215    22829163.6544
  23181389.137   -11222846.425 8  -8725869.34846  23181393.004    23181401.5304
 00  5  6  3 23  0.0000000  0  9 09 15 21 11 23 29 05 30 25
  23649936.749    -4517700.999 7  -3485085.43945  23649956.256    23649966.8564
  21595052.862   -14379599.470 8 -11183692.43147  21595055.742    21595063.7494
  20162828.452   -25401252.192 9 -19783241.59148  20162831.275    20162838.7584
  24575321.048    -1552157.788 7  -1202011.69745  24575327.384    24575333.4074
  21549193.379   -17500642.845 8 -13628193.47947  21549197.374    21549205.4354
  20608639.502   -22278306.093 9 -17336407.66348  20608641.453    20608648.2534
  22425432.056   -11307138.409 8  -8795577.02246  22425438.909    22425448.5044
  22813709.055    -8533833.060 8  -6630277.30346  22813705.193    22813712.9434
  23164189.404   -11313260.397 8  -8796321.73546  23164187.268    23164196.2184
 00  5  6  3 23 30.0000000  0  9 09 15 21 11 23 29 05 30 25
  23669935.063    -4412720.633 7  -3403282.55345  23669933.043    23669943.3754
  21597571.317   -14366359.064 8 -11173375.24247  21597574.720    21597583.2174
  20159660.269   -25417896.135 9 -19796210.89148  20159663.805    20159671.7714
  24563551.181    -1614009.796 7  -1250208.18545  24563555.507    24563564.0424
  21560900.340   -17439132.102 8 -13580263.10047  21560902.584    21560910.3934
  20606059.772   -22291857.660 9 -17346967.31648  20606062.749    20606069.5624
  22421869.373   -11325881.336 8  -8810181.86746  22421872.668    22421881.5704
  22798301.740    -8614736.613 8  -6693318.92946  22798308.473    22798318.0574
  23147019.312   -11403444.441 8  -8866594.95546  23147026.194    23147034.8704
 00  5  6  3 24  0.0000000  0  9 09 15 21 11 23 29 05 30 25
  23689937.480    -4307608.378 8  -3321376.91345  23689935.740    23689946.2514
  21600211.833   -14352493.555 8 -11162570.94447  21600213.594    21600222.1904
  20156587.630   -25434046.214 9 -19808795.36748  20156591.053    20156598.4814
  24551866.603    -1675430.955 7  -1298068.86245  24551868.931    24551875.0464
  21572680.030   -17377232.273 9 -13532029.51747  21572681.773    21572689.8914
  20603520.812   -22305203.797 9 -17357366.90048  20603522.939    20603529.5404
  22418404.466   -11344082.018 8  -8824364.19046  22418409.295    22418418.5154
  22782966.843    -8695347.364 8  -6756132.43546  22782969.390    22782977.3764
  23129909.179   -11493397.216 8  -8936687.98546  23129908.736    23129917.5044
 00  5  6  3 24 30.0000000  0  9 09 15 21 11 23 29 05 30 25
  23709962.779    -4202366.811 8  -3239370.51245  23709962.417    23709973.1794
  21602969.957   -14338003.752 8 -11151280.19347  21602970.889    21602978.8434
  20153607.898   -25449700.803 9 -19820993.74948  20153612.200    20153619.3544
  24540249.858    -1736419.523 7  -1345592.54545  24540261.602    24540270.2584
  21584530.896   -17314944.113 8 -13483493.35347  21584535.207    21584543.1014
  20601018.212   -22318344.533 9 -17367606.43448  20601022.474    20601029.0534
  22415045.371   -11361739.113 8  -8838122.93646  22415049.676    22415057.7964
  22767685.285    -8775662.121 8  -6818715.28646  22767686.119    22767694.8524
  23112828.261   -11583117.170 8  -9006599.52746  23112834.856    23112843.8164
 00  5  6  3 25  0.0000000  0  9 09 15 21 11 23 29 05 30 25
  23730004.655    -4096998.464 8  -3157265.29645  23730012.921    23730024.3624
  21605843.115   -14322890.573 8 -11139503.68247  21605846.241    21605854.4384
  20150724.571   -25464858.413 9 -19832804.87848  20150727.621    20150735.1864
  24528744.993    -1796973.400 7  -1392777.37945  24528740.128    24528747.6444
  21596457.690   -17252268.025 8 -13434654.89247  21596461.812    21596470.4974
  20598558.291   -22331279.843 9 -17377685.89548  20598560.823    20598567.4554
  22411790.251   -11378851.521 8  -8851457.26146  22411792.926    22411801.4884
  22752451.613    -8855677.839 8  -6881065.10746  22752459.196    22752467.8194
  23095799.607   -11672603.287 8  -9076328.87846  23095806.386    23095815.6544
 00  5  6  3 25 30.0000000  0  9 09 15 21 11 23 29 05 30 25
  23750084.627    -3991505.501 7  -3075062.98145  23750087.931    23750098.3024
  21608839.262   -14307154.794 8 -11127242.03547  21608841.261    21608850.2144
  20147935.599   -25479517.731 9 -19844227.72648  20147938.226    20147945.7124
  24517295.251    -1857091.333 7  -1439622.61045  24517300.010    24517305.3054
  21608455.738   -17189204.629 8 -13385514.64547  21608462.203    21608470.7384
  20596133.041   -22344009.663 9 -17387605.24248  20596138.232    20596144.7384
  22408636.462   -11395417.886 8  -8864366.10546  22408640.546    22408649.9144
  22737286.778    -8935391.590 8  -6943179.68146  22737290.054    22737298.7104
  23078819.887   -11761854.185 8  -9145874.99146  23078822.842    23078830.7464
 00  5  6  3 26  0.0000000  0  9 09 15 21 11 23 29 05 30 25
  23770181.459    -3885890.438 7  -2992765.53045  23770185.735    23770195.3774
  21611947.033   -14290797.611 8 -11114496.19147  21611953.424    21611963.1164
  20145242.053   -25493677.017 9 -19855260.94348  20145243.738    20145251.2204
  24505942.565    -1916771.092 8  -1486126.37945  24505943.050    24505951.6134
  21620538.339   -17125754.618 8 -13336073.13647  21620536.526    21620544.8844
  20593752.680   -22356534.030 9 -17397364.48148  20593754.946    20593761.4914
  22405592.113   -11411437.078 8  -8876848.57046  22405591.973    22405601.5834
  22722175.705    -9014800.022 8  -7005056.29046  22722179.646    22722188.1714
  23061879.948   -11850868.558 8  -9215236.74846  23061884.291    23061892.1294
 00  5  6  3 26 30.0000000  0  9 09 15 21 11 23 29 05 30 25
  23790298.132    -3780155.684 7  -2910374.80945  23790306.569    23790316.5424
  21615179.845   -14273820.149 8 -11101267.00247  21615183.663    21615192.7394
  20142639.455   -25507334.347 9 -19865903.03048  20142644.919    20142652.1864
  24494667.072    -1976011.327 7  -1532287.63745  24494671.837    24494677.2034
  21632680.328   -17061918.619 8 -13286330.84447  21632684.068    21632692.4214
  20591407.331   -22368852.515 9 -17406963.29148  20591410.566    20591417.4594
  22402645.918   -11426908.091 8  -8888903.86846  22402648.156    22402657.6774
  22707126.544    -9093900.070 8  -7066692.62646  22707127.272    22707135.5864
  23044987.559   -11939644.441 8  -9284412.65846  23044990.159    23044999.5114
 00  5  6  3 27  0.0000000  0  9 09 15 21 11 23 29 05 30 25
  23810445.548    -3674303.436 8  -2827892.52145  23810450.272    23810459.4664
  21618531.051   -14256223.644 8 -11087555.44247  21618533.004    21618541.5304
  20140138.643   -25520488.147 9 -19876152.74848  20140141.429    20140149.2354
  24483480.866    -2034810.214 7  -1578105.05745  24483480.980    24483487.6204
  21644906.529   -16997697.236 9 -13236288.27947  21644905.451    21644913.8224
  20589102.835   -22380965.649 9 -17416402.09348  20589105.403    20589112.3524
  22399803.290   -11441829.844 8  -8900531.17946  22399808.203    22399817.2494
  22692138.275    -9172688.833 8  -7128086.40646  22692134.070    22692142.3674
  23028138.863   -12028181.155 8  -9353402.19946  23028142.062    23028152.1214
 00  5  6  3 27 30.0000000  0  9 09 15 21 11 23 29 05 30 25
  23830607.346    -3568336.052 8  -2745320.54245  23830615.024    23830624.2504
  21621996.540   -14238008.879 8 -11073362.12147  21621999.026    21622007.4454
  20137731.011   -25533136.907 9 -19886008.93548  20137734.399    20137742.3504
  24472369.815    -2093165.907 7  -1623577.03545  24472376.024    24472384.2464
  21657193.750   -16933091.207 8 -13185945.96947  21657199.466    21657207.7474
  20586836.592   -22392872.977 9 -17425680.52148  20586839.771    20586846.4264
  22397066.742   -11456201.237 8  -8911729.63046  22397073.022    22397083.1044
  22677191.732    -9251163.110 8  -7189235.12446  22677200.142    22677210.0584
  23011336.642   -12116477.225 8  -9422204.26146  23011340.274    23011348.3104
 00  5  6  3 28  0.0000000  0  9 09 15 21 11 23 29 05 30 25
  23850805.928    -3462256.030 8  -2662660.79645  23850801.665    23850810.5364
  21625579.020   -14219176.947 8 -11058687.89847  21625582.107    21625591.0554
  20135421.348   -25545278.931 9 -19895470.26548  20135424.237    20135431.8034
  24461354.376    -2151076.748 7  -1668702.37245  24461357.227    24461363.3574
  21669566.383   -16868101.007 8 -13135304.32247  21669566.721    21669574.5174
  20584608.207   -22404574.554 9 -17434798.63548  20584613.255    20584619.6764
  22394439.189   -11470021.077 8  -8922498.31846  22394443.868    22394452.9204
  22662327.207    -9329319.589 8  -7250136.19146  22662328.588    22662337.2604
  22994580.833   -12204531.573 8  -9490817.94346  22994583.936    22994592.7224
 00  5  6  3 28 30.0000000  0  9 09 15 21 11 23 29 05 30 25
  23871011.519    -3356065.581 8  -2579914.99645  23871009.073    23871018.1784
  21629279.448   -14199729.098 8 -11043533.72247  21629283.084    21629290.8044
  20133207.131   -25556913.455 9 -19904536.13048  20133209.794    20133217.8414
  24450419.584    -2208541.036 7  -1713479.77645  24450421.977    24450431.2504
  21682005.948   -16802727.423 8 -13084363.92447  21682006.903    21682015.2394
  20582423.346   -22416070.240 9 -17443756.29748  20582425.590    20582431.9744
  22391915.189   -11483288.455 8  -8932836.52046  22391919.124    22391927.8414
  22647512.446    -9407155.677 8  -7310787.63546  22647516.984    22647524.6124
  22977869.309   -12292342.590 8  -9559242.05846  22977873.902    22977882.2574
 00  5  6  3 29  0.0000000  0  9 09 15 21 11 23 29 05 30 25
  23891232.414    -3249767.404 8  -2497085.24345  23891236.932    23891245.5964
  21633098.088   -14179666.416 8 -11027900.47647  21633101.183    21633108.7304
  20131088.414   -25568038.703 9 -19913205.16548  20131092.724    20131100.5944
  24439565.526    -2265556.979 7  -1757907.75445  24439572.187    24439579.4204
  21694519.819   -16736971.161 8 -13033125.33247  21694519.974    21694527.6944
  20580273.754   -22427360.190 9 -17452553.65448  20580277.257    20580283.7144
  22389496.015   -11496002.405 8  -8942743.47746  22389499.375    22389508.3204
  22632763.468    -9484668.110 8  -7371186.84846  22632766.102    22632774.0554
  22961205.967   -12379909.063 8  -9627475.56046  22961210.128    22961218.5214
 00  5  6  3 29 30.0000000  0  9 09 15 21 11 23 29 05 30 25
  23911479.928    -3143363.564 8  -2414173.15245  23911484.991    23911493.3914
  21637035.408   -14158990.146 8 -11011789.09547  21637035.966    21637044.2054
  20129070.849   -25578653.117 9 -19921476.14448  20129073.186    20129080.7804
  24428805.210    -2322123.088 7  -1801985.25145  24428806.868    24428815.6104
  21707102.494   -16670833.038 8 -12981589.18947  21707105.315    21707114.2434
  20578164.503   -22438444.172 9 -17461190.51048  20578167.985    20578174.4364
  22387178.052   -11508161.807 8  -8952218.33546  22387185.804    22387195.2604
  22618070.198    -9561853.946 8  -7431331.58146  22618077.519    22618086.8164
  22944589.112   -12467229.761 8  -9695517.59546  22944594.004    22944601.3364
 00  5  6  3 30  0.0000000  0  9 09 15 21 11 23 29 05 30 25
  23931754.341    -3036856.370 8  -2331180.51345  23931753.239    23931761.5664
  21641083.844   -14137701.576 8 -10995200.61447  21641086.883    21641094.8384
  20127146.755   -25588755.418 9 -19929348.08248  20127150.519    20127158.5824
  24418130.880    -2378237.632 7  -1845710.84945  24418129.240    24418136.5214
  21719760.397   -16604313.651 8 -12929755.95547  21719763.403    21719772.8254
  20576094.316   -22449321.982 9 -17469666.72048  20576098.047    20576104.4804
  22384971.800   -11519765.769 8  -8961260.35346  22384977.382    22384986.1884
  22603451.072    -9638710.030 8  -7491219.37446  22603452.630    22603461.3724
  22928017.442   -12554303.343 8  -9763367.04946  22928023.931    22928032.7144
 00  5  6  3 30 30.0000000  0  9 09 15 21 11 23 29 05 30 25
  23952035.086    -2930248.157 8  -2248109.15845  23952039.675    23952048.0044
  21645251.720   -14115801.904 8 -10978135.93647  21645254.137    21645262.0164
  20125321.822   -25598344.343 9 -19936819.98448  20125325.644    20125333.5804
  24407534.801    -2433899.378 7  -1889083.64045  24407537.788    24407543.1754
  21732488.265   -16537413.904 8 -12877626.35247  21732494.274    21732503.3804
  20574063.637   -22459993.594 9 -17477982.26048  20574067.322    20574073.6054
  22382874.326   -11530813.404 8  -8969868.87546  22382875.513    22382884.0384
  22588887.945    -9715233.414 8  -7550847.92446  22588891.553    22588899.7304
  22911495.664   -12641128.727 8  -9831023.11646  22911502.381    22911510.5514
 00  5  6  3 31  0.0000000  0  9 09 15 21 11 23 29 05 30 25
  23972336.099    -2823541.220 8  -2164960.89245  23972345.134    23972354.8184
  21649535.546   -14093292.491 8 -10960596.15247  21649537.068    21649545.4474
  20123596.403   -25607418.310 9 -19943890.62048  20123599.310    20123606.6674
  24397020.373    -2489106.257 7  -1932101.99245  24397031.376    24397038.8934
  21745293.546   -16470134.534 8 -12825200.92247  21745297.723    21745306.1734
  20572072.529   -22470459.196 9 -17486137.28748  20572076.013    20572081.9264
  22380875.291   -11541303.623 8  -8978043.05346  22380879.158    22380887.9284
  22574390.064    -9791420.847 8  -7610214.71346  22574392.704    22574401.2614
  22895027.944   -12727704.848 8  -9898485.00246  22895028.071    22895035.6834
 00  5  6  3 31 30.0000000  0  9 09 15 21 11 23 29 05 30 25
  23992656.195    -2716737.910 8  -2081737.52245  23992669.751    23992678.5134
  21653932.779   -14070174.295 8 -10942581.99347  21653936.329    21653944.5574
  20121969.198   -25615975.595 9 -19950558.64648  20121971.124    20121978.4304
  24386608.413    -2543856.687 7  -1974764.62745  24386611.816    24386619.9674
  21758166.967   -16402476.156 8 -12772480.16747  21758172.521    21758181.4954
  20570120.959   -22480718.699 9 -17494131.71148  20570123.395    20570129.4854
  22378981.852   -11551235.583 8  -8985782.22546  22378988.677    22378998.4714
  22559958.601    -9867269.668 8  -7669317.60446  22559959.101    22559968.1744
  22878593.869   -12814030.195 8  -9965751.44346  22878599.721    22878608.0534
 00  5  6  3 32  0.0000000  0  9 09 15 21 11 23 29 05 30 25
  24013014.924    -2609840.572 8  -1998440.90145  24013011.699    24013019.8854
  21658450.659   -14046448.848 8 -10924094.63347  21658451.934    21658459.7144
  20120437.569   -25624015.117 9 -19956823.21848  20120441.223    20120448.5224
  24376275.942    -2598149.289 7  -2017070.53245  24376281.708    24376289.5274
  21771119.212   -16334439.533 8 -12719464.68747  21771119.206    21771128.1184
  20568204.476   -22490771.750 9 -17501965.25748  20568210.167    20568216.8224
  22377202.602   -11560608.371 8  -8993085.68446  22377205.144    22377214.2324
  22545589.071    -9942776.769 8  -7728154.23746  22545591.259    22545598.5124
  22862216.670   -12900103.263 8 -10032821.27346  22862220.950    22862228.5774
 00  5  6  3 32 30.0000000  0  9 09 15 21 11 23 29 05 30 25
  24033365.506    -2502851.350 8  -1915072.68145  24033371.247    24033379.2594
  21663079.024   -14022117.569 8 -10905135.20047  21663081.778    21663089.4924
  20119007.693   -25631535.152 9 -19962682.99248  20119010.351    20119017.7244
  24366031.010    -2651982.549 7  -2059018.45545  24366035.427    24366045.1984
  21784134.950   -16266025.602 8 -12666155.18647  21784138.046    21784146.8344
  20566334.170   -22500618.339 9 -17509637.91848  20566336.602    20566343.2844
  22375525.634   -11569421.163 8  -8999952.78746  22375528.892    22375536.5514
  22531288.276   -10017938.962 8  -7786722.11746  22531288.107    22531296.0684
  22845887.503   -12985923.168 8 -10099693.88346  22845889.881    22845897.9414
 00  5  6  3 33  0.0000000  0  9 09 15 21 11 23 29 05 30 25
  24053744.863    -2395772.517 8  -1831634.61545  24053747.837    24053756.5214
  21667825.635   -13997181.954 8 -10885704.87747  21667827.151    21667834.9234
  20117675.050   -25638534.812 9 -19968137.28448  20117678.209    20117685.8694
  24355880.639    -2705354.851 7  -2100607.22445  24355880.019    24355889.2094
  21797225.379   -16197235.227 8 -12612552.36347  21797229.209    21797237.3724
  20564497.184   -22510258.330 9 -17517149.60248  20564502.218    20564508.8994
  22373958.194   -11577673.309 8  -9006383.01846  22373958.275    22373966.7184
  22517046.991   -10092753.327 8  -7845018.96146  22517050.814    22517059.5254
  22829602.602   -13071488.696 8 -10166368.27846  22829607.278    22829614.9334
 00  5  6  3 33 30.0000000  0  9 09 15 21 11 23 29 05 30 25
  24074134.712    -2288606.266 8  -1748128.44145  24074140.680    24074148.2334
  21672682.121   -13971643.367 8 -10865804.70447  21672686.400    21672694.8574
  20116442.321   -25645012.828 9 -19973185.11148  20116445.560    20116453.1414
  24345810.936    -2758264.496 7  -2141835.48545  24345813.735    24345821.4524
  21810388.873   -16128069.043 8 -12558656.68847  21810390.928    21810399.1014
  20562703.498   -22519691.786 9 -17524500.33948  20562706.943    20562714.0134
  22372489.906   -11585363.800 8  -9012375.60146  22372495.169    22372503.1204
  22502880.494   -10167216.764 8  -7903042.33346  22502880.907    22502889.8694
  22813371.620   -13156798.436 8 -10232843.36446  22813373.932    22813380.9154
 00  5  6  3 34  0.0000000  0  9 09 15 21 11 23 29 05 30 25
  24094547.338    -2181354.965 7  -1664555.97445  24094549.848    24094558.0594
  21677659.342   -13945503.099 8 -10845435.68747  21677660.898    21677669.4194
  20115309.243   -25650967.723 9 -19977825.29348  20115312.188    20115319.9794
  24335826.553    -2810710.285 7  -2182702.33145  24335831.403    24335838.4244
  21823620.788   -16058527.998 8 -12504468.92747  21823623.835    21823632.3804
  20560947.763   -22528918.450 9 -17531689.95748  20560950.936    20560957.9064
  22371133.843   -11592491.931 8  -9017929.96647  22371138.748    22371147.7424
  22488773.350   -10241326.445 8  -7960790.08846  22488779.251    22488786.2554
  22797182.264   -13241851.005 8 -10299118.00846  22797187.809    22797195.9344
 00  5  6  3 34 30.0000000  0  9 09 15 21 11 23 29 05 30 25
  24114977.190    -2074020.845 8  -1580919.01745  24114975.226    24114983.1384
  21682746.260   -13918762.290 8 -10824598.72547  21682749.585    21682758.2514
  20114276.726   -25656398.312 9 -19982056.93548  20114278.928    20114286.6524
  24325930.985    -2862690.374 7  -2223206.19045  24325940.991    24325948.3214
  21836925.600   -15988612.927 8 -12449989.71347  21836928.545    21836936.8844
  20559230.693   -22537938.082 9 -17538718.25548  20559234.515    20559241.5064
  22369889.235   -11599056.985 8  -9023045.57247  22369889.158    22369897.7334
  22474741.474   -10315079.302 8  -8018259.79346  22474744.358    22474752.2484
  22781050.902   -13326645.755 8 -10365191.78346  22781051.796    22781060.2054
 00  5  6  3 35  0.0000000  0  9 09 15 21 11 23 29 05 30 25
  24135413.420    -1966605.968 7  -1497219.08945  24135415.042    24135423.1744
  21687949.736   -13891422.783 8 -10803295.23747  21687952.293    21687960.4794
  20113341.005   -25661303.113 9 -19985878.87748  20113345.712    20113353.3514
  24316134.132    -2914203.561 7  -2263346.29045  24316138.653    24316145.1204
  21850302.461   -15918324.692 8 -12395219.72147  21850303.499    21850312.3044
  20557554.208   -22546750.771 9 -17545585.28848  20557557.659    20557564.7074
  22368742.773   -11605058.499 8  -9027722.05547  22368747.288    22368755.7114
  22460772.830   -10388472.422 8  -8075449.17346  22460777.420    22460786.4784
  22764962.691   -13411180.999 8 -10431063.31646  22764966.011    22764973.8534
 00  5  6  3 35 30.0000000  0  9 09 15 21 11 23 29 05 30 25
  24155867.164    -1859112.759 7  -1413458.15645  24155869.796    24155878.7094
  21693264.428   -13863486.196 8 -10781526.49447  21693268.414    21693277.2454
  20112509.759   -25665680.628 9 -19989289.94248  20112512.705    20112520.2414
  24306418.569    -2965248.220 7  -2303121.28545  24306424.915    24306432.8244
  21863742.138   -15847664.246 8 -12340159.70747  21863749.748    21863758.5054
  20555917.065   -22555356.473 9 -17552291.03448  20555920.088    20555927.1624
  22367707.697   -11610495.570 8  -9031958.71546  22367711.976    22367721.2764
  22446875.088   -10461502.804 8  -8132355.88946  22446880.254    22446888.9454
  22748924.044   -13495455.659 8 -10496731.86246  22748928.618    22748936.3624
 00  5  6  3 36  0.0000000  0  9 09 15 21 11 23 29 05 30 25
  24176326.218    -1751543.585 7  -1329638.00945  24176339.317    24176348.7684
  21698693.769   -13834954.083 8 -10759293.71647  21698697.896    21698705.9964
  20111776.069   -25669530.232 9 -19992289.64548  20111779.949    20111787.7464
  24296799.695    -3015823.012 7  -2342530.17145  24296800.071    24296808.6674
  21877267.588   -15776632.405 8 -12284810.30347  21877267.081    21877275.6864
  20554318.835   -22563754.703 9 -17558835.11548  20554321.985    20554329.1024
  22366783.113   -11615367.605 8  -9035755.08646  22366785.064    22366793.5154
  22433046.932   -10534167.660 8  -8188977.78746  22433052.394    22433060.8114
  22732943.477   -13579468.934 8 -10562196.74846  22732941.875    22732948.4554
 00  5  6  3 36 30.0000000  0  9 09 15 21 11 23 29 05 30 25
  24196824.190    -1643900.352 7  -1245760.14445  24196823.207    24196831.5534
  21704237.684   -13805828.035 8 -10736598.11247  21704240.903    21704248.1134
  20111145.325   -25672850.532 9 -19994876.90748  20111148.371    20111155.7124
  24287257.901    -3065926.442 7  -2381571.75545  24287263.948    24287274.1384
  21890852.454   -15705230.215 8 -12229172.28547  21890854.460    21890863.1914
  20552759.049   -22571945.635 9 -17565217.65348  20552763.109    20552770.3274
  22365964.964   -11619673.933 8  -9039110.64247  22365966.003    22365974.8734
  22419289.132   -10606463.952 8  -8245312.49746  22419295.054    22419303.0014
  22717002.344   -13663219.448 8 -10627456.82646  22717003.462    22717012.1774
 00  5  6  3 37  0.0000000  0  9 09 15 21 11 23 29 05 30 25
  24217323.626    -1536185.264 7  -1161826.31745  24217320.796    24217330.3844
  21709891.599   -13776109.436 8 -10713440.79347  21709895.576    21709903.8844
  20110614.882   -25675640.306 9 -19997050.77348  20110617.550    20110624.8484
  24277820.844    -3115557.254 8  -2420245.09745  24277821.527    24277829.7504
  21904511.805   -15633458.352 8 -12173246.24647  21904512.608    21904520.8394
  20551240.527   -22579929.058 9 -17571438.50948  20551244.399    20551250.9104
  22365250.589   -11623413.849 8  -9042024.83347  22365253.940    22365262.4704
  22405607.571   -10678388.513 8  -8301357.55046  22405608.124    22405616.1844
  22701113.827   -13746705.898 8 -10692511.11846  22701116.457    22701124.7084
 00  5  6  3 37 30.0000000  0  9 09 15 21 11 23 29 05 30 25
  24237823.355    -1428400.333 7  -1077838.01045  24237831.236    24237840.4514
  21715662.614   -13745799.969 8 -10689823.06447  21715664.206    21715672.0194
  20110183.693   -25677898.222 9 -19998810.19448  20110187.561    20110195.1944
  24268462.163    -3164713.940 7  -2458549.03045  24268465.668    24268474.8754
  21918238.310   -15561317.889 8 -12117032.96547  21918240.344    21918249.3744
  20549761.441   -22587704.809 9 -17577497.53648  20549764.736    20549771.2084
  22364645.980   -11626586.700 8  -9044497.15547  22364650.057    22364658.9014
  22391988.005   -10749938.609 8  -8357110.81046  22391992.691    22392000.9464
  22685274.877   -13829927.513 8 -10757359.05646  22685279.928    22685287.3174
 00  5  6  3 38  0.0000000  0  9 09 15 21 11 23 29 05 30 25
  24258347.657    -1320548.030 8   -993797.18845  24258354.338    24258363.5754
  21721539.901   -13714901.163 8 -10665746.11647  21721544.084    21721551.4094
  20109857.077   -25679623.126 9 -20000154.28848  20109859.461    20109867.0664
  24259205.354    -3213395.052 7  -2496482.29945  24259202.727    24259210.5664
  21932030.680   -15488809.891 8 -12060533.30847  21932037.951    21932046.3224
  20548321.498   -22595272.824 9 -17583394.68848  20548324.514    20548331.0384
  22364153.603   -11629191.875 8  -9046527.14847  22364154.173    22364162.7394
  22378446.530   -10821111.408 8  -8412570.07746  22378448.885    22378456.8864
  22669491.672   -13912882.942 8 -10821999.61346  22669495.082    22669502.5864
 00  5  6  3 38 30.0000000  0  9 09 15 21 11 23 29 05 30 25
  24278884.107    -1212630.594 8   -909705.62345  24278891.464    24278899.9104
  21727530.489   -13683414.889 8 -10641211.40047  21727535.235    21727542.6234
  20109630.020   -25680814.220 9 -20001082.42948  20109632.586    20109640.4214
  24250029.266    -3261599.517 7  -2534044.14945  24250030.838    24250037.3844
  21945901.383   -15415935.318 8 -12003747.99347  21945905.636    21945914.1774
  20546919.827   -22602632.923 9 -17589129.82948  20546924.021    20546930.5734
  22363763.251   -11631228.809 8  -9048114.33947  22363766.932    22363775.2094
  22364974.566   -10891904.055 8  -8467733.10346  22364977.138    22364985.4294
  22653754.730   -13995570.899 8 -10886431.75646  22653759.236    22653767.0554
 00  5  6  3 39  0.0000000  0  9 09 15 21 11 23 29 05 30 25
  24299434.086    -1104649.992 7   -825564.86845  24299439.467    24299448.3694
  21733634.101   -13651342.595 8 -10616220.05047  21733638.184    21733646.3524
  20109503.973   -25681470.160 9 -20001593.56348  20109508.000    20109515.2114
  24240939.859    -3309325.768 7  -2571233.47945  24240947.134    24240956.9384
  21959842.687   -15342695.048 8 -11946677.72147  21959842.948    21959851.9684
  20545559.011   -22609784.884 9 -17594702.78448  20545563.022    20545569.4994
  22363485.222   -11632697.173 8  -9049258.48647  22363487.937    22363495.3954
  22351580.493   -10962313.602 8  -8522597.61346  22351578.743    22351586.6744
  22638072.183   -14077989.947 8 -10950654.35446  22638075.433    22638082.9664
 00  5  6  3 39 30.0000000  0  9 09 15 21 11 23 29 05 30 25
  24319992.048     -996608.348 7   -741376.51345  24319999.149    24320007.8714
  21739851.177   -13618686.154 8 -10590773.51847  21739852.777    21739860.4654
  20109482.680   -25681589.444 9 -20001686.52148  20109485.463    20109492.8084
  24231958.060    -3356572.402 8  -2608049.08145  24231958.893    24231966.8674
  21973850.699   -15269089.970 8 -11889323.19547  21973849.679    21973858.4374
  20544239.209   -22616728.665 9 -17600113.51448  20544242.135    20544248.0364
  22363314.077   -11633596.362 8  -9049959.13347  22363316.223    22363324.2984
  22338244.130   -11032337.163 8  -8577161.37946  22338253.319    22338261.3724
  22622435.638   -14160139.693 8 -11014667.10546  22622442.944    22622451.5494
 00  5  6  3 40  0.0000000  0  9 09 15 21 11 23 29 05 30 25
  24340561.504     -888507.924 7   -657142.33345  24340569.799    24340577.4704
  21746173.909   -13585447.259 8 -10564873.10147  21746177.263    21746186.0874
  20109560.858   -25681171.735 9 -20001361.06048  20109564.848    20109572.3624
  24223050.058    -3403338.133 7  -2644489.93645  24223057.648    24223066.9954
  21987921.544   -15195121.000 8 -11831685.10347  21987925.576    21987934.3424
  20542955.391   -22623464.063 9 -17605361.87748  20542959.671    20542966.4204
  22363253.457   -11633925.905 8  -9050215.89847  22363253.304    22363261.7314
  22325001.492   -11101971.730 8  -8631422.01946  22325002.610    22325010.2084
  22606858.408   -14242018.770 8 -11078468.94946  22606861.660    22606869.9324
 00  5  6  3 40 30.0000000  0  9 09 15 21 11 23 29 05 30 25
  24361145.991     -780350.939 7   -572864.14345  24361150.742    24361161.3264
  21752609.394   -13551627.740 8 -10538520.28147  21752613.663    21752621.1994
  20109742.189   -25680215.609 9 -20000616.03848  20109746.556    20109754.3014
  24214246.786    -3449621.703 7  -2680555.07045  24214250.841    24214258.7114
  22002069.493   -15120789.268 8 -11773764.37147  22002070.675    22002079.1754
  20541714.082   -22629990.882 9 -17610447.70748  20541717.644    20541724.2384
  22363295.552   -11633685.352 8  -9050028.43447  22363299.514    22363307.7594
  22311819.738   -11171214.393 8  -8685377.28046  22311825.838    22311834.0014
  22591333.810   -14323625.970 8 -11142058.95946  22591333.075    22591340.7454
 00  5  6  3 41  0.0000000  0  9 09 15 21 11 23 29 05 30 25
  24381746.238     -672139.150 7   -488543.25245  24381742.913    24381750.5734
  21759155.468   -13517229.358 8 -10511716.38047  21759159.496    21759167.2954
  20110029.124   -25678720.242 9 -19999450.83148  20110031.343    20110039.0304
  24205523.443    -3495421.893 7  -2716243.51545  24205535.966    24205544.6844
  22016279.964   -15046095.805 8 -11715561.74647  22016284.444    22016293.2134
  20540510.660   -22636308.930 9 -17615370.85848  20540515.435    20540521.9454
  22363453.331   -11632874.318 8  -9049396.43047  22363454.130    22363462.3794
  22298723.499   -11240062.479 8  -8739025.08946  22298724.576    22298732.7834
  22575851.772   -14404960.242 8 -11205436.27046  22575855.663    22575863.3684
 00  5  6  3 41 30.0000000  0  9 09 15 21 11 23 29 05 30 25
  24402333.961     -563874.820 7   -404181.35245  24402344.140    24402353.4974
  21765813.836   -13482254.206 8 -10484463.05947  21765815.467    21765822.9704
  20110416.285   -25676684.177 9 -19997864.30248  20110419.006    20110426.3794
  24196906.512    -3540737.603 7  -2751554.48245  24196910.795    24196920.2744
  22030560.098   -14971041.799 8 -11657078.19147  22030566.159    22030575.3514
  20539350.056   -22642418.025 9 -17620131.19848  20539352.878    20539359.6124
  22363711.785   -11631492.370 8  -9048319.54847  22363716.142    22363724.8214
  22285693.442   -11308513.100 8  -8792363.16946  22285697.884    22285707.7924
  22560427.485   -14486020.529 8 -11268600.09446  22560429.798    22560438.6094
 00  5  6  3 42  0.0000000  0  9 09 15 21 11 23 29 05 30 25
  24422938.331     -455560.151 7   -319780.22945  24422956.018    24422965.6844
  21772579.311   -13446703.898 8 -10456761.56847  21772580.428    21772588.4534
  20110906.496   -25674106.225 9 -19995855.52348  20110909.495    20110917.1004
  24188380.953    -3585567.370 7  -2786486.82545  24188381.287    24188390.9174
  22044911.823   -14895628.217 8 -11598314.43947  22044917.356    22044925.9974
  20538225.783   -22648318.209 9 -17624728.74448  20538229.855    20538236.7534
  22364084.923   -11629539.020 8  -9046797.43647  22364088.164    22364096.4674
  22272743.368   -11376563.371 8  -8845389.30546  22272748.727    22272757.4024
  22545053.646   -14566805.804 8 -11331549.60047  22545057.710    22545065.8404
 00  5  6  3 42 30.0000000  0  9 09 15 21 11 23 29 05 30 25
  24443577.551     -347197.124 7   -235341.44045  24443576.245    24443586.8724
  21779449.708   -13410580.092 8 -10428613.17447  21779454.357    21779462.0434
  20111499.028   -25670985.701 9 -19993423.96448  20111503.394    20111510.7774
  24179941.663    -3629910.010 7  -2821039.52145  24179944.209    24179953.1074
  22059334.030   -14819856.124 8 -11539271.32946  22059335.673    22059345.6984
  20537145.316   -22654009.266 9 -17629163.33648  20537146.800    20537153.8284
  22364564.952   -11627014.100 8  -9044829.94046  22364567.807    22364576.6894
  22259874.855   -11444210.341 8  -8898101.16846  22259876.411    22259884.9564
  22529734.345   -14647315.231 8 -11394284.21947  22529736.950    22529744.8904
 00  5  6  3 43  0.0000000  0  9 09 15 21 11 23 29 05 30 25
  24464191.736     -238787.731 7   -150866.51445  24464204.408    24464216.2804
  21786432.593   -13373884.749 8 -10400019.43047  21786437.290    21786445.4264
  20112198.228   -25667321.411 9 -19990568.69048  20112200.684    20112208.2354
  24171583.386    -3673764.563 7  -2855211.92245  24171596.109    24171607.4254
  22073815.613   -14743726.477 8 -11479949.60946  22073822.531    22073832.2144
  20536099.649   -22659490.837 9 -17633434.69648  20536104.035    20536110.8644
  22365152.845   -11623917.166 8  -9042416.72146  22365157.550    22365166.5244
  22247079.769   -11511451.370 8  -8950496.72346  22247080.973    22247088.8064
  22514466.291   -14727547.295 8 -11456802.68647  22514469.032    22514477.9544
 00  5  6  3 43 30.0000000  0  9 09 15 21 11 23 29 05 30 25
  24484848.778     -130333.966 7    -66357.04545  24484844.946    24484853.6554
  21793525.678   -13336619.887 8 -10370981.91947  21793528.739    21793536.6354
  20112997.966   -25663112.688 9 -19987289.18348  20113001.336    20113009.2354
  24163343.100    -3717129.596 7  -2889002.84345  24163345.842    24163354.4914
  22088377.034   -14667240.360 8 -11420350.13546  22088377.874    22088387.2614
  20535100.201   -22664762.635 9 -17637542.59948  20535101.366    20535107.8914
  22365855.860   -11620247.965 8  -9039557.57846  22365856.732    22365864.1224
  22234357.473   -11578283.823 8  -9002573.88947  22234362.633    22234372.0454
  22499252.112   -14807501.145 8 -11519104.34146  22499254.484    22499261.1594
 00  5  6  3 44  0.0000000  0  9 09 15 21 11 23 29 05 30 25
  24505493.544      -21838.196 7     18185.16645  24505491.687    24505497.6474
  21800721.889   -13298787.331 8 -10341502.04847  21800727.603    21800735.9864
  20113903.542   -25658358.806 9 -19983584.87648  20113906.265    20113913.9584
  24155184.463    -3760003.945 7  -2922411.41545  24155188.007    24155195.6674
  22102994.801   -14590398.959 8 -11360473.79446  22103000.588    22103009.3964
  20534134.326   -22669824.725 9 -17641487.08548  20534137.932    20534144.6634
  22366660.806   -11616006.167 8  -9036252.26346  22366663.093    22366671.7604
  22221719.107   -11644704.664 8  -9054330.35647  22221722.904    22221731.9074
  22484087.313   -14887175.819 8 -11581188.45246  22484092.582    22484099.6044
 00  5  6  3 44 30.0000000  0  9 09 15 21 11 23 29 05 30 25
  24526148.749       86697.729 7    102758.76545  24526143.464    24526154.2084
  21808032.961   -13260389.042 8 -10311581.33947  21808034.885    21808042.6364
  20114911.982   -25653058.738 9 -19979454.96448  20114914.887    20114922.5564
  24147119.912    -3802386.482 7  -2955436.75245  24147122.270    24147131.5434
  22117688.062   -14513203.307 8 -11300321.43446  22117690.604    22117699.5284
  20533211.092   -22674676.784 9 -17645267.91848  20533214.819    20533221.1564
  22367576.880   -11611191.652 8  -9032500.66246  22367579.317    22367588.3044
  22209162.502   -11710711.129 8  -9105763.91447  22209163.242    22209170.5084
  22468984.675   -14966570.307 8 -11643054.26647  22468984.299    22468991.9944
 00  5  6  3 45  0.0000000  0  9 09 15 21 11 23 29 05 30 25
  24546799.269      195271.761 7    187362.03545  24546805.503    24546812.6334
  21815445.760   -13221427.156 8 -10281221.45947  21815448.881    21815457.2544
  20116023.552   -25647211.499 9 -19974898.69148  20116027.544    20116035.0774
  24139146.003    -3844276.198 7  -2988078.11745  24139150.820    24139158.9224
  22132445.227   -14435654.669 8 -11239894.01646  22132447.703    22132456.5084
  20532327.747   -22679318.725 9 -17648885.00348  20532331.137    20532337.8524
  22368602.387   -11605804.175 8  -9028302.60246  22368604.470    22368613.9364
  22196680.947   -11776300.369 8  -9156872.37347  22196681.854    22196689.4034
  22453928.490   -15045683.227 8 -11704700.63947  22453929.556    22453937.6354
 00  5  6  3 45 30.0000000  0  9 09 15 21 11 23 29 05 30 25
  24567464.547      303881.911 7    271993.44245  24567473.675    24567482.4724
  21822966.204   -13181903.580 8 -10250423.91147  21822970.415    21822977.7814
  20117242.198   -25640816.167 9 -19969915.33248  20117244.346    20117251.8194
  24131268.863    -3885671.973 7  -3020334.54545  24131273.963    24131281.6774
  22147269.702   -14357754.027 8 -11179192.30946  22147271.275    22147280.8314
  20531483.954   -22683750.121 9 -17652338.03848  20531487.818    20531494.5264
  22369734.745   -11599843.503 8  -9023657.90646  22369739.075    22369747.6264
  22184272.233   -11841469.642 8  -9207653.55747  22184280.076    22184287.9664
  22438925.991   -15124514.054 8 -11766127.19847  22438928.510    22438935.8424
 00  5  6  3 46  0.0000000  0  9 09 15 21 11 23 29 05 30 25
  24588142.771      412525.862 7    356651.16245  24588147.276    24588155.3654
  21830594.131   -13141820.371 8 -10219190.25647  21830597.707    21830605.3484
  20118562.886   -25633872.051 9 -19964504.35848  20118565.935    20118573.4444
  24123493.845    -3926572.803 7  -3052205.33945  24123489.910    24123497.0974
  22162158.466   -14279502.766 8 -11118217.39546  22162162.575    22162171.9684
  20530682.038   -22687970.968 9 -17655627.01248  20530684.749    20530691.1384
  22370973.128   -11593309.442 8  -9018566.41146  22370981.129    22370991.2394
  22171957.987   -11906216.438 8  -9258105.54647  22171959.586    22171967.3314
  22423975.230   -15203061.615 8 -11827333.07947  22423980.978    22423989.2104
 00  5  6  3 46 30.0000000  0  9 09 15 21 11 23 29 05 30 25
  24608826.559      521201.944 7    441333.90245  24608827.776    24608835.5754
  21838328.414   -13101179.539 8 -10187522.09647  21838331.921    21838340.3164
  20119988.125   -25626378.302 9 -19958665.08848  20119991.505    20119999.5004
  24115786.836    -3966977.268 7  -3083689.31845  24115801.077    24115809.9354
  22177116.590   -14200901.872 8 -11056970.03746  22177120.204    22177129.3114
  20529916.067   -22691981.032 9 -17658751.73848  20529921.082    20529928.1614
  22372334.610   -11586201.980 8  -9013028.10346  22372334.594    22372343.5484
  22159715.302   -11970537.951 8  -9308226.16847  22159719.445    22159727.5164
  22409084.177   -15281324.573 8 -11888317.16647  22409088.006    22409096.5684
 00  5  6  3 47  0.0000000  0  9 09 15 21 11 23 29 05 30 25
  24629510.796      629908.146 7    526040.17045  24629513.516    24629523.2214
  21846167.691   -13059983.138 8 -10155421.04247  21846170.753    21846179.0554
  20121518.785   -25618333.829 9 -19952396.68848  20121522.524    20121530.4794
  24108207.326    -4006884.426 7  -3114785.77645  24108208.343    24108215.8934
  22192142.866   -14121952.658 8 -10995451.24346  22192143.646    22192152.5484
  20529195.329   -22695779.953 9 -17661711.93748  20529198.231    20529205.3264
  22373793.894   -11578520.851 8  -9007042.79646  22373796.784    22373805.1374
  22147555.803   -12034431.541 8  -9358013.30847  22147560.303    22147569.1074
  22394248.981   -15359302.295 8 -11949078.98447  22394250.074    22394257.8764
 00  5  6  3 47 30.0000000  0  9 09 15 21 11 23 29 05 30 25
  24650207.837      738642.358 7    610768.18645  24650206.190    24650213.3364
  21854114.804   -13018233.384 8 -10122888.79847  21854116.064    21854124.6324
  20123155.366   -25609737.802 9 -19945698.50448  20123158.717    20123166.2504
  24100707.420    -4046293.442 8  -3145494.09645  24100709.899    24100715.6814
  22207229.989   -14042656.267 8 -10933661.94646  22207233.063    22207242.3424
  20528511.735   -22699367.626 9 -17664507.52548  20528515.699    20528522.7274
  22375363.775   -11570266.197 8  -9000610.57546  22375366.957    22375375.8814
  22135483.716   -12097894.099 8  -9407464.59447  22135483.684    22135492.1364
  22379460.606   -15436993.799 8 -12009617.79547  22379466.001    22379472.9844
 00  5  6  3 48  0.0000000  0  9 09 15 21 11 23 29 05 30 25
  24670893.500      847402.595 7    695516.55444  24670901.268    24670909.7814
  21862163.053   -12975932.226 8 -10089926.87947  21862165.724    21862174.4434
  20124896.043   -25600589.773 9 -19938570.19248  20124899.298    20124906.8004
  24093297.346    -4085203.354 7  -3175813.43045  24093303.171    24093310.2774
  22222386.745   -13963013.885 8 -10871603.03546  22222388.237    22222398.1014
  20527869.244   -22702743.838 9 -17667138.34948  20527872.725    20527880.2474
  22377045.501   -11561437.840 8  -8993731.29646  22377046.760    22377054.9294
  22123478.281   -12160923.270 8  -9456578.19447  22123489.772    22123498.0864
  22364731.078   -15514398.283 8 -12069932.96747  22364735.547    22364743.3704
 00  5  6  3 48 30.0000000  0  8 15 21 11 23 29 05 30 25
  21870316.969   -12933081.705 8 -10056536.89947  21870319.475    21870328.1474
  20126741.172   -25590889.121 9 -19931011.26048  20126744.978    20126753.0104
  24085994.041    -4123613.105 8  -3205743.03845  24085995.341    24086004.3614
  22237607.456   -13883026.706 8 -10809275.46346  22237609.646    22237619.4134
  20527267.486   -22705908.191 9 -17669604.08748  20527270.575    20527277.8454
  22378833.645   -11552035.523 8  -8986404.79146  22378836.224    22378844.5974
  22111575.059   -12223516.322 8  -9505351.93647  22111578.559    22111587.1564
  22350056.325   -15591514.856 8 -12130023.78347  22350061.192    22350068.2974
